Wetterdaten: Freitag, 06.01.2023
Datum Zeit Temp. 2m Temp +5 cm Feuchte A. Luftdruck Regen Wind Richtung Richtung Sonnenschein UV Solar Taupunkt Windchill Windben
06.01.2023 00:00 8,1 C 7,2 C 93 % 1022,5 hPa 0,0 l/m 14,5 km/h (3 Bft) W 270 0 min 0,0 UV-I 0 W/m 7,0 C 3,1 C 20,9 km/h (4 Bft)
06.01.2023 00:01 8,1 C 7,2 C 93 % 1022,6 hPa 0,0 l/m 14,5 km/h (3 Bft) SW 225 0 min 0,0 UV-I 0 W/m 7,0 C 3,1 C 20,9 km/h (4 Bft)
06.01.2023 00:02 8,1 C 7,2 C 92 % 1022,5 hPa 0,0 l/m 16,1 km/h (3 Bft) W-SW 247 0 min 0,0 UV-I 0 W/m 6,9 C 2,3 C 24,1 km/h (4 Bft)
06.01.2023 00:03 8,1 C 7,2 C 92 % 1022,6 hPa 0,0 l/m 9,7 km/h (2 Bft) SW 225 0 min 0,0 UV-I 0 W/m 6,9 C 5,7 C 19,3 km/h (3 Bft)
06.01.2023 00:04 8,1 C 7,2 C 92 % 1022,5 hPa 0,0 l/m 14,5 km/h (3 Bft) W-SW 247 0 min 0,0 UV-I 0 W/m 6,9 C 3,1 C 20,9 km/h (4 Bft)
06.01.2023 00:05 8,0 C 7,2 C 92 % 1022,6 hPa 0,0 l/m 11,3 km/h (2 Bft) W-SW 247 0 min 0,0 UV-I 0 W/m 6,8 C 4,6 C 17,7 km/h (3 Bft)
06.01.2023 00:06 8,0 C 7,2 C 93 % 1022,4 hPa 0,0 l/m 12,9 km/h (3 Bft) SW 225 0 min 0,0 UV-I 0 W/m 6,9 C 3,7 C 22,5 km/h (4 Bft)
06.01.2023 00:07 7,9 C 7,2 C 93 % 1022,5 hPa 0,0 l/m 11,3 km/h (2 Bft) SW 225 0 min 0,0 UV-I 0 W/m 6,8 C 4,5 C 16,1 km/h (3 Bft)
06.01.2023 00:08 7,9 C 7,2 C 93 % 1022,6 hPa 0,0 l/m 9,7 km/h (2 Bft) SW 225 0 min 0,0 UV-I 0 W/m 6,8 C 5,5 C 16,1 km/h (3 Bft)
06.01.2023 00:09 7,9 C 7,2 C 93 % 1022,4 hPa 0,0 l/m 8,0 km/h (2 Bft) W-SW 247 0 min 0,0 UV-I 0 W/m 6,8 C 6,6 C 14,5 km/h (3 Bft)
06.01.2023 00:10 7,9 C 7,2 C 93 % 1022,4 hPa 0,0 l/m 11,3 km/h (2 Bft) SW 225 0 min 0,0 UV-I 0 W/m 6,8 C 4,5 C 17,7 km/h (3 Bft)
06.01.2023 00:11 7,9 C 7,2 C 93 % 1022,4 hPa 0,0 l/m 12,9 km/h (3 Bft) SW 225 0 min 0,0 UV-I 0 W/m 6,8 C 3,6 C 20,9 km/h (4 Bft)
06.01.2023 00:12 7,8 C 7,2 C 93 % 1022,5 hPa 0,0 l/m 11,3 km/h (2 Bft) SW 225 0 min 0,0 UV-I 0 W/m 6,7 C 4,4 C 14,5 km/h (3 Bft)
06.01.2023 00:13 7,8 C 7,2 C 93 % 1022,4 hPa 0,0 l/m 9,7 km/h (2 Bft) SW 225 0 min 0,0 UV-I 0 W/m 6,7 C 5,4 C 19,3 km/h (3 Bft)
06.01.2023 00:14 7,8 C 7,2 C 93 % 1022,5 hPa 0,0 l/m 12,9 km/h (3 Bft) S-SW 202 0 min 0,0 UV-I 0 W/m 6,7 C 3,5 C 17,7 km/h (3 Bft)
06.01.2023 00:15 7,8 C 7,2 C 93 % 1022,5 hPa 0,0 l/m 11,3 km/h (2 Bft) SW 225 0 min 0,0 UV-I 0 W/m 6,7 C 4,4 C 19,3 km/h (3 Bft)
06.01.2023 00:16 7,8 C 7,2 C 93 % 1022,5 hPa 0,0 l/m 14,5 km/h (3 Bft) S-SW 202 0 min 0,0 UV-I 0 W/m 6,7 C 2,7 C 17,7 km/h (3 Bft)
06.01.2023 00:17 7,8 C 7,2 C 93 % 1022,5 hPa 0,0 l/m 14,5 km/h (3 Bft) S-SW 202 0 min 0,0 UV-I 0 W/m 6,7 C 2,7 C 25,7 km/h (4 Bft)
06.01.2023 00:18 7,8 C 7,2 C 93 % 1022,5 hPa 0,0 l/m 12,9 km/h (3 Bft) S-SW 202 0 min 0,0 UV-I 0 W/m 6,7 C 3,5 C 16,1 km/h (3 Bft)
06.01.2023 00:19 7,8 C 7,2 C 93 % 1022,5 hPa 0,0 l/m 9,7 km/h (2 Bft) SW 225 0 min 0,0 UV-I 0 W/m 6,7 C 5,4 C 14,5 km/h (3 Bft)
06.01.2023 00:20 7,7 C 7,2 C 93 % 1022,5 hPa 0,0 l/m 12,9 km/h (3 Bft) SW 225 0 min 0,0 UV-I 0 W/m 6,6 C 3,4 C 17,7 km/h (3 Bft)
06.01.2023 00:21 7,7 C 6,7 C 92 % 1022,5 hPa 0,0 l/m 12,9 km/h (3 Bft) S-SW 202 0 min 0,0 UV-I 0 W/m 6,5 C 3,4 C 16,1 km/h (3 Bft)
06.01.2023 00:22 7,7 C 6,7 C 93 % 1022,5 hPa 0,0 l/m 9,7 km/h (2 Bft) SW 225 0 min 0,0 UV-I 0 W/m 6,6 C 5,2 C 19,3 km/h (3 Bft)
06.01.2023 00:23 7,7 C 6,7 C 92 % 1022,5 hPa 0,0 l/m 14,5 km/h (3 Bft) SW 225 0 min 0,0 UV-I 0 W/m 6,5 C 2,6 C 19,3 km/h (3 Bft)
06.01.2023 00:24 7,7 C 6,7 C 92 % 1022,5 hPa 0,0 l/m 16,1 km/h (3 Bft) SW 225 0 min 0,0 UV-I 0 W/m 6,5 C 1,9 C 22,5 km/h (4 Bft)
06.01.2023 00:25 7,7 C 6,7 C 92 % 1022,5 hPa 0,0 l/m 12,9 km/h (3 Bft) S-SW 202 0 min 0,0 UV-I 0 W/m 6,5 C 3,4 C 17,7 km/h (3 Bft)
06.01.2023 00:26 7,7 C 6,7 C 92 % 1022,4 hPa 0,0 l/m 11,3 km/h (2 Bft) S-SW 202 0 min 0,0 UV-I 0 W/m 6,5 C 4,3 C 17,7 km/h (3 Bft)
06.01.2023 00:27 7,6 C 6,7 C 92 % 1022,4 hPa 0,0 l/m 6,4 km/h (2 Bft) SW 225 0 min 0,0 UV-I 0 W/m 6,4 C 7,6 C 9,7 km/h (2 Bft)
06.01.2023 00:28 7,6 C 6,7 C 92 % 1022,3 hPa 0,0 l/m 11,3 km/h (2 Bft) SW 225 0 min 0,0 UV-I 0 W/m 6,4 C 4,1 C 19,3 km/h (3 Bft)
06.01.2023 00:29 7,6 C 6,7 C 92 % 1022,3 hPa 0,0 l/m 8,0 km/h (2 Bft) S-SW 202 0 min 0,0 UV-I 0 W/m 6,4 C 6,3 C 14,5 km/h (3 Bft)
06.01.2023 00:30 7,6 C 6,7 C 92 % 1022,2 hPa 0,0 l/m 12,9 km/h (3 Bft) S-SW 202 0 min 0,0 UV-I 0 W/m 6,4 C 3,3 C 16,1 km/h (3 Bft)
06.01.2023 00:31 7,6 C 6,7 C 92 % 1022,3 hPa 0,0 l/m 11,3 km/h (2 Bft) S-SW 202 0 min 0,0 UV-I 0 W/m 6,4 C 4,1 C 14,5 km/h (3 Bft)
06.01.2023 00:32 7,5 C 6,7 C 92 % 1022,2 hPa 0,0 l/m 12,9 km/h (3 Bft) S-SW 202 0 min 0,0 UV-I 0 W/m 6,3 C 3,1 C 17,7 km/h (3 Bft)
06.01.2023 00:33 7,6 C 6,7 C 92 % 1022,2 hPa 0,0 l/m 17,7 km/h (3 Bft) S-SW 202 0 min 0,0 UV-I 0 W/m 6,4 C 1,1 C 25,7 km/h (4 Bft)
06.01.2023 00:34 7,5 C 6,7 C 92 % 1022,1 hPa 0,0 l/m 14,5 km/h (3 Bft) S-SW 202 0 min 0,0 UV-I 0 W/m 6,3 C 2,3 C 19,3 km/h (3 Bft)
06.01.2023 00:35 7,5 C 6,7 C 92 % 1022,1 hPa 0,0 l/m 11,3 km/h (2 Bft) SW 225 0 min 0,0 UV-I 0 W/m 6,3 C 4,0 C 14,5 km/h (3 Bft)
06.01.2023 00:36 7,4 C 6,7 C 92 % 1022,1 hPa 0,0 l/m 12,9 km/h (3 Bft) S-SW 202 0 min 0,0 UV-I 0 W/m 6,2 C 3,0 C 19,3 km/h (3 Bft)
06.01.2023 00:37 7,4 C 6,7 C 92 % 1022,2 hPa 0,0 l/m 12,9 km/h (3 Bft) S-SW 202 0 min 0,0 UV-I 0 W/m 6,2 C 3,0 C 16,1 km/h (3 Bft)
06.01.2023 00:38 7,4 C 6,7 C 92 % 1022,1 hPa 0,0 l/m 14,5 km/h (3 Bft) S-SW 202 0 min 0,0 UV-I 0 W/m 6,2 C 2,2 C 19,3 km/h (3 Bft)
06.01.2023 00:39 7,4 C 6,7 C 92 % 1022,2 hPa 0,0 l/m 14,5 km/h (3 Bft) S-SW 202 0 min 0,0 UV-I 0 W/m 6,2 C 2,2 C 16,1 km/h (3 Bft)
06.01.2023 00:40 7,4 C 6,7 C 92 % 1022,1 hPa 0,0 l/m 14,5 km/h (3 Bft) SW 225 0 min 0,0 UV-I 0 W/m 6,2 C 2,2 C 17,7 km/h (3 Bft)
06.01.2023 00:41 7,4 C 6,7 C 92 % 1022,2 hPa 0,0 l/m 14,5 km/h (3 Bft) S-SW 202 0 min 0,0 UV-I 0 W/m 6,2 C 2,2 C 19,3 km/h (3 Bft)
06.01.2023 00:42 7,4 C 6,7 C 92 % 1022,2 hPa 0,0 l/m 14,5 km/h (3 Bft) S-SW 202 0 min 0,0 UV-I 0 W/m 6,2 C 2,2 C 19,3 km/h (3 Bft)
06.01.2023 00:43 7,4 C 6,7 C 92 % 1022,1 hPa 0,0 l/m 11,3 km/h (2 Bft) SW 225 0 min 0,0 UV-I 0 W/m 6,2 C 3,9 C 16,1 km/h (3 Bft)
06.01.2023 00:44 7,4 C 6,7 C 92 % 1022,2 hPa 0,0 l/m 11,3 km/h (2 Bft) SW 225 0 min 0,0 UV-I 0 W/m 6,2 C 3,9 C 19,3 km/h (3 Bft)
06.01.2023 00:45 7,3 C 6,7 C 92 % 1022,1 hPa 0,0 l/m 12,9 km/h (3 Bft) SW 225 0 min 0,0 UV-I 0 W/m 6,1 C 2,9 C 19,3 km/h (3 Bft)
06.01.2023 00:46 7,4 C 6,7 C 92 % 1022,2 hPa 0,0 l/m 17,7 km/h (3 Bft) SW 225 0 min 0,0 UV-I 0 W/m 6,2 C 0,8 C 27,4 km/h (4 Bft)
06.01.2023 00:47 7,3 C 6,7 C 92 % 1022,2 hPa 0,0 l/m 14,5 km/h (3 Bft) S-SW 202 0 min 0,0 UV-I 0 W/m 6,1 C 2,1 C 20,9 km/h (4 Bft)
06.01.2023 00:48 7,3 C 6,7 C 92 % 1022,1 hPa 0,0 l/m 19,3 km/h (3 Bft) S-SW 202 0 min 0,0 UV-I 0 W/m 6,1 C 0,1 C 24,1 km/h (4 Bft)
06.01.2023 00:49 7,3 C 6,7 C 92 % 1022,1 hPa 0,0 l/m 17,7 km/h (3 Bft) S-SW 202 0 min 0,0 UV-I 0 W/m 6,1 C 0,7 C 25,7 km/h (4 Bft)
06.01.2023 00:50 7,4 C 6,7 C 92 % 1022,1 hPa 0,0 l/m 16,1 km/h (3 Bft) S-SW 202 0 min 0,0 UV-I 0 W/m 6,2 C 1,5 C 22,5 km/h (4 Bft)
06.01.2023 00:51 7,3 C 6,7 C 92 % 1022,0 hPa 0,0 l/m 16,1 km/h (3 Bft) S-SW 202 0 min 0,0 UV-I 0 W/m 6,1 C 1,4 C 24,1 km/h (4 Bft)
06.01.2023 00:52 7,3 C 6,7 C 92 % 1022,0 hPa 0,0 l/m 17,7 km/h (3 Bft) S-SW 202 0 min 0,0 UV-I 0 W/m 6,1 C 0,7 C 24,1 km/h (4 Bft)
06.01.2023 00:53 7,3 C 6,7 C 92 % 1022,0 hPa 0,0 l/m 16,1 km/h (3 Bft) S-SW 202 0 min 0,0 UV-I 0 W/m 6,1 C 1,4 C 24,1 km/h (4 Bft)
06.01.2023 00:54 7,3 C 6,7 C 92 % 1022,0 hPa 0,0 l/m 16,1 km/h (3 Bft) S-SW 202 0 min 0,0 UV-I 0 W/m 6,1 C 1,4 C 19,3 km/h (3 Bft)
06.01.2023 00:55 7,3 C 6,7 C 92 % 1022,1 hPa 0,0 l/m 16,1 km/h (3 Bft) S-SW 202 0 min 0,0 UV-I 0 W/m 6,1 C 1,4 C 22,5 km/h (4 Bft)
06.01.2023 00:56 7,3 C 6,7 C 92 % 1022,0 hPa 0,0 l/m 12,9 km/h (3 Bft) S-SW 202 0 min 0,0 UV-I 0 W/m 6,1 C 2,9 C 17,7 km/h (3 Bft)
06.01.2023 00:57 7,3 C 6,7 C 92 % 1022,0 hPa 0,0 l/m 14,5 km/h (3 Bft) S-SW 202 0 min 0,0 UV-I 0 W/m 6,1 C 2,1 C 19,3 km/h (3 Bft)
06.01.2023 00:58 7,3 C 6,7 C 92 % 1022,1 hPa 0,0 l/m 14,5 km/h (3 Bft) SW 225 0 min 0,0 UV-I 0 W/m 6,1 C 2,1 C 20,9 km/h (4 Bft)
06.01.2023 00:59 7,3 C 6,7 C 92 % 1022,0 hPa 0,0 l/m 16,1 km/h (3 Bft) S-SW 202 0 min 0,0 UV-I 0 W/m 6,1 C 1,4 C 19,3 km/h (3 Bft)
06.01.2023 01:00 7,3 C 6,7 C 92 % 1022,0 hPa 0,0 l/m 14,5 km/h (3 Bft) S-SW 202 0 min 0,0 UV-I 0 W/m 6,1 C 2,1 C 19,3 km/h (3 Bft)
06.01.2023 01:01 7,3 C 6,7 C 92 % 1022,0 hPa 0,0 l/m 17,7 km/h (3 Bft) S-SW 202 0 min 0,0 UV-I 0 W/m 6,1 C 0,7 C 29,0 km/h (5 Bft)
06.01.2023 01:02 7,3 C 6,7 C 92 % 1022,0 hPa 0,0 l/m 17,7 km/h (3 Bft) S-SW 202 0 min 0,0 UV-I 0 W/m 6,1 C 0,7 C 22,5 km/h (4 Bft)
06.01.2023 01:03 7,3 C 6,7 C 92 % 1022,0 hPa 0,0 l/m 16,1 km/h (3 Bft) SW 225 0 min 0,0 UV-I 0 W/m 6,1 C 1,4 C 22,5 km/h (4 Bft)
06.01.2023 01:04 7,3 C 6,7 C 92 % 1021,9 hPa 0,0 l/m 16,1 km/h (3 Bft) S-SW 202 0 min 0,0 UV-I 0 W/m 6,1 C 1,4 C 20,9 km/h (4 Bft)
06.01.2023 01:05 7,3 C 6,7 C 92 % 1022,0 hPa 0,0 l/m 19,3 km/h (3 Bft) S-SW 202 0 min 0,0 UV-I 0 W/m 6,1 C 0,1 C 27,4 km/h (4 Bft)
06.01.2023 01:06 7,3 C 6,7 C 92 % 1021,9 hPa 0,0 l/m 17,7 km/h (3 Bft) S-SW 202 0 min 0,0 UV-I 0 W/m 6,1 C 0,7 C 25,7 km/h (4 Bft)
06.01.2023 01:07 7,3 C 6,7 C 92 % 1021,9 hPa 0,0 l/m 17,7 km/h (3 Bft) S-SW 202 0 min 0,0 UV-I 0 W/m 6,1 C 0,7 C 27,4 km/h (4 Bft)
06.01.2023 01:08 7,3 C 6,7 C 92 % 1021,9 hPa 0,0 l/m 17,7 km/h (3 Bft) S-SW 202 0 min 0,0 UV-I 0 W/m 6,1 C 0,7 C 20,9 km/h (4 Bft)
06.01.2023 01:09 7,3 C 6,7 C 92 % 1021,9 hPa 0,0 l/m 17,7 km/h (3 Bft) S-SW 202 0 min 0,0 UV-I 0 W/m 6,1 C 0,7 C 24,1 km/h (4 Bft)
06.01.2023 01:10 7,3 C 6,7 C 92 % 1022,0 hPa 0,0 l/m 14,5 km/h (3 Bft) SW 225 0 min 0,0 UV-I 0 W/m 6,1 C 2,1 C 19,3 km/h (3 Bft)
06.01.2023 01:11 7,3 C 6,7 C 92 % 1021,9 hPa 0,0 l/m 9,7 km/h (2 Bft) S-SW 202 0 min 0,0 UV-I 0 W/m 6,1 C 4,8 C 12,9 km/h (3 Bft)
06.01.2023 01:12 7,3 C 6,7 C 92 % 1021,9 hPa 0,0 l/m 8,0 km/h (2 Bft) SW 225 0 min 0,0 UV-I 0 W/m 6,1 C 6,0 C 12,9 km/h (3 Bft)
06.01.2023 01:13 7,3 C 6,7 C 92 % 1021,9 hPa 0,0 l/m 12,9 km/h (3 Bft) SW 225 0 min 0,0 UV-I 0 W/m 6,1 C 2,9 C 24,1 km/h (4 Bft)
06.01.2023 01:14 7,3 C 6,7 C 92 % 1022,0 hPa 0,0 l/m 8,0 km/h (2 Bft) SW 225 0 min 0,0 UV-I 0 W/m 6,1 C 6,0 C 12,9 km/h (3 Bft)
06.01.2023 01:15 7,3 C 6,7 C 92 % 1022,0 hPa 0,0 l/m 9,7 km/h (2 Bft) S-SW 202 0 min 0,0 UV-I 0 W/m 6,1 C 4,8 C 16,1 km/h (3 Bft)
06.01.2023 01:16 7,3 C 6,7 C 92 % 1022,1 hPa 0,0 l/m 12,9 km/h (3 Bft) S-SW 202 0 min 0,0 UV-I 0 W/m 6,1 C 2,9 C 17,7 km/h (3 Bft)
06.01.2023 01:17 7,3 C 6,7 C 92 % 1021,9 hPa 0,0 l/m 11,3 km/h (2 Bft) SW 225 0 min 0,0 UV-I 0 W/m 6,1 C 3,8 C 16,1 km/h (3 Bft)
06.01.2023 01:18 7,3 C 6,7 C 92 % 1021,9 hPa 0,0 l/m 11,3 km/h (2 Bft) SW 225 0 min 0,0 UV-I 0 W/m 6,1 C 3,8 C 17,7 km/h (3 Bft)
06.01.2023 01:19 7,3 C 6,7 C 92 % 1022,1 hPa 0,0 l/m 9,7 km/h (2 Bft) SW 225 0 min 0,0 UV-I 0 W/m 6,1 C 4,8 C 12,9 km/h (3 Bft)
06.01.2023 01:20 7,3 C 6,7 C 92 % 1021,9 hPa 0,0 l/m 8,0 km/h (2 Bft) S-SW 202 0 min 0,0 UV-I 0 W/m 6,1 C 6,0 C 14,5 km/h (3 Bft)
06.01.2023 01:21 7,3 C 6,7 C 92 % 1022,0 hPa 0,0 l/m 9,7 km/h (2 Bft) S-SW 202 0 min 0,0 UV-I 0 W/m 6,1 C 4,8 C 12,9 km/h (3 Bft)
06.01.2023 01:22 7,3 C 6,7 C 92 % 1022,0 hPa 0,0 l/m 9,7 km/h (2 Bft) S-SW 202 0 min 0,0 UV-I 0 W/m 6,1 C 4,8 C 12,9 km/h (3 Bft)
06.01.2023 01:23 7,3 C 6,7 C 92 % 1022,0 hPa 0,0 l/m 9,7 km/h (2 Bft) SW 225 0 min 0,0 UV-I 0 W/m 6,1 C 4,8 C 14,5 km/h (3 Bft)
06.01.2023 01:24 7,2 C 6,7 C 92 % 1022,0 hPa 0,0 l/m 9,7 km/h (2 Bft) SW 225 0 min 0,0 UV-I 0 W/m 6,0 C 4,7 C 11,3 km/h (2 Bft)
06.01.2023 01:25 7,3 C 6,7 C 92 % 1022,1 hPa 0,0 l/m 4,8 km/h (1 Bft) W-SW 247 0 min 0,0 UV-I 0 W/m 6,1 C 7,3 C 11,3 km/h (2 Bft)
06.01.2023 01:26 7,3 C 6,7 C 92 % 1022,0 hPa 0,0 l/m 9,7 km/h (2 Bft) S-SW 202 0 min 0,0 UV-I 0 W/m 6,1 C 4,8 C 12,9 km/h (3 Bft)
06.01.2023 01:27 7,3 C 6,7 C 92 % 1022,0 hPa 0,0 l/m 8,0 km/h (2 Bft) S-SW 202 0 min 0,0 UV-I 0 W/m 6,1 C 6,0 C 11,3 km/h (2 Bft)
06.01.2023 01:28 7,3 C 6,7 C 92 % 1022,0 hPa 0,0 l/m 6,4 km/h (2 Bft) S-SW 202 0 min 0,0 UV-I 0 W/m 6,1 C 7,3 C 9,7 km/h (2 Bft)
06.01.2023 01:29 7,3 C 6,7 C 92 % 1022,0 hPa 0,0 l/m 11,3 km/h (2 Bft) S-SW 202 0 min 0,0 UV-I 0 W/m 6,1 C 3,8 C 12,9 km/h (3 Bft)
06.01.2023 01:30 7,3 C 6,7 C 92 % 1022,0 hPa 0,0 l/m 9,7 km/h (2 Bft) S-SW 202 0 min 0,0 UV-I 0 W/m 6,1 C 4,8 C 12,9 km/h (3 Bft)
06.01.2023 01:31 7,2 C 6,7 C 92 % 1021,9 hPa 0,0 l/m 8,0 km/h (2 Bft) S-SW 202 0 min 0,0 UV-I 0 W/m 6,0 C 5,9 C 12,9 km/h (3 Bft)
06.01.2023 01:32 7,3 C 6,7 C 92 % 1021,9 hPa 0,0 l/m 9,7 km/h (2 Bft) W-SW 247 0 min 0,0 UV-I 0 W/m 6,1 C 4,8 C 14,5 km/h (3 Bft)
06.01.2023 01:33 7,3 C 6,7 C 92 % 1021,9 hPa 0,0 l/m 9,7 km/h (2 Bft) S-SW 202 0 min 0,0 UV-I 0 W/m 6,1 C 4,8 C 16,1 km/h (3 Bft)
06.01.2023 01:34 7,3 C 6,7 C 92 % 1021,9 hPa 0,0 l/m 14,5 km/h (3 Bft) S-SW 202 0 min 0,0 UV-I 0 W/m 6,1 C 2,1 C 24,1 km/h (4 Bft)
06.01.2023 01:35 7,3 C 6,7 C 92 % 1021,9 hPa 0,0 l/m 12,9 km/h (3 Bft) SW 225 0 min 0,0 UV-I 0 W/m 6,1 C 2,9 C 20,9 km/h (4 Bft)
06.01.2023 01:36 7,3 C 6,7 C 92 % 1021,9 hPa 0,0 l/m 11,3 km/h (2 Bft) S-SW 202 0 min 0,0 UV-I 0 W/m 6,1 C 3,8 C 19,3 km/h (3 Bft)
06.01.2023 01:37 7,3 C 6,7 C 92 % 1021,8 hPa 0,0 l/m 11,3 km/h (2 Bft) SW 225 0 min 0,0 UV-I 0 W/m 6,1 C 3,8 C 19,3 km/h (3 Bft)
06.01.2023 01:38 7,3 C 6,7 C 92 % 1021,8 hPa 0,0 l/m 11,3 km/h (2 Bft) S-SW 202 0 min 0,0 UV-I 0 W/m 6,1 C 3,8 C 14,5 km/h (3 Bft)
06.01.2023 01:39 7,2 C 6,7 C 92 % 1021,8 hPa 0,0 l/m 12,9 km/h (3 Bft) SW 225 0 min 0,0 UV-I 0 W/m 6,0 C 2,8 C 19,3 km/h (3 Bft)
06.01.2023 01:40 7,2 C 6,7 C 92 % 1021,8 hPa 0,0 l/m 11,3 km/h (2 Bft) SW 225 0 min 0,0 UV-I 0 W/m 6,0 C 3,7 C 17,7 km/h (3 Bft)
06.01.2023 01:41 7,2 C 6,7 C 92 % 1021,9 hPa 0,2 l/m 16,1 km/h (3 Bft) S-SW 202 0 min 0,0 UV-I 0 W/m 6,0 C 1,2 C 20,9 km/h (4 Bft)
06.01.2023 01:42 7,2 C 6,7 C 92 % 1021,9 hPa 0,0 l/m 12,9 km/h (3 Bft) SW 225 0 min 0,0 UV-I 0 W/m 6,0 C 2,8 C 17,7 km/h (3 Bft)
06.01.2023 01:43 7,2 C 6,7 C 92 % 1022,0 hPa 0,0 l/m 11,3 km/h (2 Bft) S-SW 202 0 min 0,0 UV-I 0 W/m 6,0 C 3,7 C 19,3 km/h (3 Bft)
06.01.2023 01:44 7,2 C 6,7 C 93 % 1021,8 hPa 0,0 l/m 11,3 km/h (2 Bft) SW 225 0 min 0,0 UV-I 0 W/m 6,1 C 3,7 C 17,7 km/h (3 Bft)
06.01.2023 01:45 7,2 C 6,7 C 93 % 1021,9 hPa 0,0 l/m 9,7 km/h (2 Bft) SW 225 0 min 0,0 UV-I 0 W/m 6,1 C 4,7 C 12,9 km/h (3 Bft)
06.01.2023 01:46 7,2 C 6,7 C 93 % 1021,9 hPa 0,0 l/m 11,3 km/h (2 Bft) S-SW 202 0 min 0,0 UV-I 0 W/m 6,1 C 3,7 C 17,7 km/h (3 Bft)
06.01.2023 01:47 7,2 C 6,7 C 93 % 1022,0 hPa 0,0 l/m 8,0 km/h (2 Bft) SW 225 0 min 0,0 UV-I 0 W/m 6,1 C 5,9 C 12,9 km/h (3 Bft)
06.01.2023 01:48 7,2 C 6,7 C 93 % 1021,9 hPa 0,0 l/m 8,0 km/h (2 Bft) SW 225 0 min 0,0 UV-I 0 W/m 6,1 C 5,9 C 11,3 km/h (2 Bft)
06.01.2023 01:49 7,2 C 6,7 C 93 % 1021,9 hPa 0,0 l/m 8,0 km/h (2 Bft) SW 225 0 min 0,0 UV-I 0 W/m 6,1 C 5,9 C 11,3 km/h (2 Bft)
06.01.2023 01:50 7,2 C 6,7 C 93 % 1022,0 hPa 0,0 l/m 9,7 km/h (2 Bft) SW 225 0 min 0,0 UV-I 0 W/m 6,1 C 4,7 C 16,1 km/h (3 Bft)
06.01.2023 01:51 7,2 C 6,7 C 93 % 1021,8 hPa 0,0 l/m 9,7 km/h (2 Bft) SW 225 0 min 0,0 UV-I 0 W/m 6,1 C 4,7 C 16,1 km/h (3 Bft)
06.01.2023 01:52 7,2 C 6,7 C 93 % 1021,8 hPa 0,0 l/m 8,0 km/h (2 Bft) W-SW 247 0 min 0,0 UV-I 0 W/m 6,1 C 5,9 C 14,5 km/h (3 Bft)
06.01.2023 01:53 7,2 C 6,7 C 93 % 1021,9 hPa 0,0 l/m 11,3 km/h (2 Bft) SW 225 0 min 0,0 UV-I 0 W/m 6,1 C 3,7 C 20,9 km/h (4 Bft)
06.01.2023 01:54 7,2 C 6,7 C 93 % 1022,0 hPa 0,0 l/m 9,7 km/h (2 Bft) S-SW 202 0 min 0,0 UV-I 0 W/m 6,1 C 4,7 C 16,1 km/h (3 Bft)
06.01.2023 01:55 7,2 C 6,7 C 93 % 1021,9 hPa 0,0 l/m 9,7 km/h (2 Bft) SW 225 0 min 0,0 UV-I 0 W/m 6,1 C 4,7 C 14,5 km/h (3 Bft)
06.01.2023 01:56 7,2 C 6,7 C 93 % 1021,9 hPa 0,0 l/m 8,0 km/h (2 Bft) S-SW 202 0 min 0,0 UV-I 0 W/m 6,1 C 5,9 C 12,9 km/h (3 Bft)
06.01.2023 01:57 7,2 C 6,7 C 93 % 1021,9 hPa 0,0 l/m 9,7 km/h (2 Bft) S-SW 202 0 min 0,0 UV-I 0 W/m 6,1 C 4,7 C 14,5 km/h (3 Bft)
06.01.2023 01:58 7,2 C 6,7 C 93 % 1021,9 hPa 0,0 l/m 12,9 km/h (3 Bft) S-SW 202 0 min 0,0 UV-I 0 W/m 6,1 C 2,8 C 17,7 km/h (3 Bft)
06.01.2023 01:59 7,2 C 6,7 C 93 % 1021,9 hPa 0,0 l/m 14,5 km/h (3 Bft) SW 225 0 min 0,0 UV-I 0 W/m 6,1 C 2,0 C 19,3 km/h (3 Bft)
06.01.2023 02:00 7,2 C 6,7 C 93 % 1021,9 hPa 0,0 l/m 11,3 km/h (2 Bft) S-SW 202 0 min 0,0 UV-I 0 W/m 6,1 C 3,7 C 14,5 km/h (3 Bft)
06.01.2023 02:01 7,2 C 6,7 C 93 % 1021,8 hPa 0,0 l/m 12,9 km/h (3 Bft) SW 225 0 min 0,0 UV-I 0 W/m 6,1 C 2,8 C 20,9 km/h (4 Bft)
06.01.2023 02:02 7,2 C 6,7 C 93 % 1021,9 hPa 0,0 l/m 6,4 km/h (2 Bft) SW 225 0 min 0,0 UV-I 0 W/m 6,1 C 7,2 C 9,7 km/h (2 Bft)
06.01.2023 02:03 7,2 C 6,7 C 93 % 1021,9 hPa 0,0 l/m 9,7 km/h (2 Bft) S-SW 202 0 min 0,0 UV-I 0 W/m 6,1 C 4,7 C 16,1 km/h (3 Bft)
06.01.2023 02:04 7,2 C 6,7 C 93 % 1021,8 hPa 0,0 l/m 12,9 km/h (3 Bft) SW 225 0 min 0,0 UV-I 0 W/m 6,1 C 2,8 C 19,3 km/h (3 Bft)
06.01.2023 02:05 7,2 C 6,7 C 93 % 1021,9 hPa 0,0 l/m 11,3 km/h (2 Bft) S-SW 202 0 min 0,0 UV-I 0 W/m 6,1 C 3,7 C 16,1 km/h (3 Bft)
06.01.2023 02:06 7,2 C 6,7 C 93 % 1021,9 hPa 0,0 l/m 12,9 km/h (3 Bft) S-SW 202 0 min 0,0 UV-I 0 W/m 6,1 C 2,8 C 17,7 km/h (3 Bft)
06.01.2023 02:07 7,3 C 6,7 C 93 % 1021,9 hPa 0,0 l/m 12,9 km/h (3 Bft) S-SW 202 0 min 0,0 UV-I 0 W/m 6,2 C 2,9 C 14,5 km/h (3 Bft)
06.01.2023 02:08 7,2 C 6,7 C 93 % 1021,8 hPa 0,0 l/m 14,5 km/h (3 Bft) S-SW 202 0 min 0,0 UV-I 0 W/m 6,1 C 2,0 C 20,9 km/h (4 Bft)
06.01.2023 02:09 7,2 C 6,7 C 93 % 1021,7 hPa 0,0 l/m 14,5 km/h (3 Bft) S-SW 202 0 min 0,0 UV-I 0 W/m 6,1 C 2,0 C 19,3 km/h (3 Bft)
06.01.2023 02:10 7,2 C 6,7 C 93 % 1021,9 hPa 0,0 l/m 14,5 km/h (3 Bft) S-SW 202 0 min 0,0 UV-I 0 W/m 6,1 C 2,0 C 20,9 km/h (4 Bft)
06.01.2023 02:11 7,2 C 6,7 C 93 % 1021,8 hPa 0,0 l/m 12,9 km/h (3 Bft) S-SW 202 0 min 0,0 UV-I 0 W/m 6,1 C 2,8 C 20,9 km/h (4 Bft)
06.01.2023 02:12 7,2 C 6,7 C 93 % 1021,8 hPa 0,0 l/m 14,5 km/h (3 Bft) S-SW 202 0 min 0,0 UV-I 0 W/m 6,1 C 2,0 C 17,7 km/h (3 Bft)
06.01.2023 02:13 7,2 C 6,7 C 93 % 1021,8 hPa 0,0 l/m 17,7 km/h (3 Bft) S-SW 202 0 min 0,0 UV-I 0 W/m 6,1 C 0,6 C 22,5 km/h (4 Bft)
06.01.2023 02:14 7,2 C 6,7 C 93 % 1021,9 hPa 0,0 l/m 17,7 km/h (3 Bft) S-SW 202 0 min 0,0 UV-I 0 W/m 6,1 C 0,6 C 27,4 km/h (4 Bft)
06.01.2023 02:15 7,3 C 6,7 C 93 % 1021,8 hPa 0,0 l/m 14,5 km/h (3 Bft) SW 225 0 min 0,0 UV-I 0 W/m 6,2 C 2,1 C 22,5 km/h (4 Bft)
06.01.2023 02:16 7,2 C 6,7 C 93 % 1021,6 hPa 0,0 l/m 12,9 km/h (3 Bft) S-SW 202 0 min 0,0 UV-I 0 W/m 6,1 C 2,8 C 17,7 km/h (3 Bft)
06.01.2023 02:17 7,2 C 6,7 C 93 % 1021,7 hPa 0,0 l/m 17,7 km/h (3 Bft) S-SW 202 0 min 0,0 UV-I 0 W/m 6,1 C 0,6 C 22,5 km/h (4 Bft)
06.01.2023 02:18 7,2 C 6,7 C 93 % 1021,7 hPa 0,0 l/m 20,9 km/h (4 Bft) S-SW 202 0 min 0,0 UV-I 0 W/m 6,1 C -0,7 C 24,1 km/h (4 Bft)
06.01.2023 02:19 7,2 C 6,7 C 93 % 1021,7 hPa 0,0 l/m 17,7 km/h (3 Bft) S-SW 202 0 min 0,0 UV-I 0 W/m 6,1 C 0,6 C 22,5 km/h (4 Bft)
06.01.2023 02:20 7,2 C 6,1 C 93 % 1021,7 hPa 0,0 l/m 16,1 km/h (3 Bft) S-SW 202 0 min 0,0 UV-I 0 W/m 6,1 C 1,2 C 24,1 km/h (4 Bft)
06.01.2023 02:21 7,2 C 6,1 C 93 % 1021,7 hPa 0,0 l/m 17,7 km/h (3 Bft) S-SW 202 0 min 0,0 UV-I 0 W/m 6,1 C 0,6 C 24,1 km/h (4 Bft)
06.01.2023 02:22 7,2 C 6,1 C 93 % 1021,7 hPa 0,0 l/m 14,5 km/h (3 Bft) S-SW 202 0 min 0,0 UV-I 0 W/m 6,1 C 2,0 C 20,9 km/h (4 Bft)
06.01.2023 02:23 7,2 C 6,1 C 93 % 1021,7 hPa 0,0 l/m 17,7 km/h (3 Bft) S-SW 202 0 min 0,0 UV-I 0 W/m 6,1 C 0,6 C 24,1 km/h (4 Bft)
06.01.2023 02:24 7,2 C 6,1 C 93 % 1021,7 hPa 0,0 l/m 12,9 km/h (3 Bft) S-SW 202 0 min 0,0 UV-I 0 W/m 6,1 C 2,8 C 16,1 km/h (3 Bft)
06.01.2023 02:25 7,2 C 6,1 C 93 % 1021,7 hPa 0,0 l/m 12,9 km/h (3 Bft) S-SW 202 0 min 0,0 UV-I 0 W/m 6,1 C 2,8 C 17,7 km/h (3 Bft)
06.01.2023 02:26 7,2 C 6,1 C 93 % 1021,6 hPa 0,0 l/m 14,5 km/h (3 Bft) S-SW 202 0 min 0,0 UV-I 0 W/m 6,1 C 2,0 C 17,7 km/h (3 Bft)
06.01.2023 02:27 7,2 C 6,1 C 93 % 1021,7 hPa 0,0 l/m 19,3 km/h (3 Bft) SW 225 0 min 0,0 UV-I 0 W/m 6,1 C -0,1 C 22,5 km/h (4 Bft)
06.01.2023 02:28 7,2 C 6,1 C 93 % 1021,6 hPa 0,0 l/m 17,7 km/h (3 Bft) S 180 0 min 0,0 UV-I 0 W/m 6,1 C 0,6 C 27,4 km/h (4 Bft)
06.01.2023 02:29 7,2 C 6,1 C 93 % 1021,7 hPa 0,0 l/m 16,1 km/h (3 Bft) S-SW 202 0 min 0,0 UV-I 0 W/m 6,1 C 1,2 C 19,3 km/h (3 Bft)
06.01.2023 02:30 7,2 C 6,1 C 93 % 1021,7 hPa 0,0 l/m 17,7 km/h (3 Bft) S-SW 202 0 min 0,0 UV-I 0 W/m 6,1 C 0,6 C 25,7 km/h (4 Bft)
06.01.2023 02:31 7,2 C 6,1 C 93 % 1021,6 hPa 0,0 l/m 17,7 km/h (3 Bft) S-SW 202 0 min 0,0 UV-I 0 W/m 6,1 C 0,6 C 22,5 km/h (4 Bft)
06.01.2023 02:32 7,2 C 6,7 C 93 % 1021,7 hPa 0,0 l/m 20,9 km/h (4 Bft) S-SW 202 0 min 0,0 UV-I 0 W/m 6,1 C -0,7 C 25,7 km/h (4 Bft)
06.01.2023 02:33 7,2 C 6,7 C 93 % 1021,8 hPa 0,0 l/m 24,1 km/h (4 Bft) S-SW 202 0 min 0,0 UV-I 0 W/m 6,1 C -1,7 C 32,2 km/h (5 Bft)
06.01.2023 02:34 7,2 C 6,7 C 93 % 1021,6 hPa 0,0 l/m 17,7 km/h (3 Bft) S-SW 202 0 min 0,0 UV-I 0 W/m 6,1 C 0,6 C 24,1 km/h (4 Bft)
06.01.2023 02:35 7,2 C 6,7 C 93 % 1021,6 hPa 0,0 l/m 14,5 km/h (3 Bft) SW 225 0 min 0,0 UV-I 0 W/m 6,1 C 2,0 C 20,9 km/h (4 Bft)
06.01.2023 02:36 7,2 C 6,7 C 93 % 1021,6 hPa 0,0 l/m 17,7 km/h (3 Bft) S-SW 202 0 min 0,0 UV-I 0 W/m 6,1 C 0,6 C 30,6 km/h (5 Bft)
06.01.2023 02:37 7,2 C 6,1 C 93 % 1021,6 hPa 0,0 l/m 20,9 km/h (4 Bft) S-SW 202 0 min 0,0 UV-I 0 W/m 6,1 C -0,7 C 29,0 km/h (5 Bft)
06.01.2023 02:38 7,2 C 6,1 C 93 % 1021,6 hPa 0,0 l/m 19,3 km/h (3 Bft) S-SW 202 0 min 0,0 UV-I 0 W/m 6,1 C -0,1 C 27,4 km/h (4 Bft)
06.01.2023 02:39 7,2 C 6,1 C 93 % 1021,6 hPa 0,0 l/m 19,3 km/h (3 Bft) S-SW 202 0 min 0,0 UV-I 0 W/m 6,1 C -0,1 C 25,7 km/h (4 Bft)
06.01.2023 02:40 7,2 C 6,7 C 93 % 1021,6 hPa 0,0 l/m 19,3 km/h (3 Bft) S-SW 202 0 min 0,0 UV-I 0 W/m 6,1 C -0,1 C 29,0 km/h (5 Bft)
06.01.2023 02:41 7,2 C 6,7 C 93 % 1021,6 hPa 0,0 l/m 12,9 km/h (3 Bft) S-SW 202 0 min 0,0 UV-I 0 W/m 6,1 C 2,8 C 16,1 km/h (3 Bft)
06.01.2023 02:42 7,2 C 6,7 C 93 % 1021,6 hPa 0,0 l/m 12,9 km/h (3 Bft) S-SW 202 0 min 0,0 UV-I 0 W/m 6,1 C 2,8 C 20,9 km/h (4 Bft)
06.01.2023 02:43 7,2 C 6,7 C 93 % 1021,6 hPa 0,0 l/m 22,5 km/h (4 Bft) S-SW 202 0 min 0,0 UV-I 0 W/m 6,1 C -1,2 C 30,6 km/h (5 Bft)
06.01.2023 02:44 7,2 C 6,7 C 93 % 1021,5 hPa 0,0 l/m 19,3 km/h (3 Bft) S-SW 202 0 min 0,0 UV-I 0 W/m 6,1 C -0,1 C 24,1 km/h (4 Bft)
06.01.2023 02:45 7,2 C 6,7 C 93 % 1021,5 hPa 0,0 l/m 17,7 km/h (3 Bft) S-SW 202 0 min 0,0 UV-I 0 W/m 6,1 C 0,6 C 27,4 km/h (4 Bft)
06.01.2023 02:46 7,2 C 6,7 C 93 % 1021,5 hPa 0,0 l/m 17,7 km/h (3 Bft) S-SW 202 0 min 0,0 UV-I 0 W/m 6,1 C 0,6 C 27,4 km/h (4 Bft)
06.01.2023 02:47 7,2 C 6,7 C 93 % 1021,5 hPa 0,0 l/m 16,1 km/h (3 Bft) S-SW 202 0 min 0,0 UV-I 0 W/m 6,1 C 1,2 C 22,5 km/h (4 Bft)
06.01.2023 02:48 7,2 C 6,7 C 93 % 1021,6 hPa 0,0 l/m 17,7 km/h (3 Bft) S-SW 202 0 min 0,0 UV-I 0 W/m 6,1 C 0,6 C 20,9 km/h (4 Bft)
06.01.2023 02:49 7,2 C 6,7 C 93 % 1021,5 hPa 0,0 l/m 19,3 km/h (3 Bft) S 180 0 min 0,0 UV-I 0 W/m 6,1 C -0,1 C 27,4 km/h (4 Bft)
06.01.2023 02:50 7,2 C 6,7 C 93 % 1021,5 hPa 0,0 l/m 17,7 km/h (3 Bft) S 180 0 min 0,0 UV-I 0 W/m 6,1 C 0,6 C 24,1 km/h (4 Bft)
06.01.2023 02:51 7,2 C 6,7 C 93 % 1021,5 hPa 0,0 l/m 19,3 km/h (3 Bft) S-SW 202 0 min 0,0 UV-I 0 W/m 6,1 C -0,1 C 27,4 km/h (4 Bft)
06.01.2023 02:52 7,2 C 6,7 C 93 % 1021,4 hPa 0,0 l/m 17,7 km/h (3 Bft) S-SW 202 0 min 0,0 UV-I 0 W/m 6,1 C 0,6 C 27,4 km/h (4 Bft)
06.01.2023 02:53 7,2 C 6,7 C 93 % 1021,4 hPa 0,0 l/m 16,1 km/h (3 Bft) S-SW 202 0 min 0,0 UV-I 0 W/m 6,1 C 1,2 C 24,1 km/h (4 Bft)
06.01.2023 02:54 7,2 C 6,7 C 93 % 1021,4 hPa 0,0 l/m 20,9 km/h (4 Bft) S-SW 202 0 min 0,0 UV-I 0 W/m 6,1 C -0,7 C 25,7 km/h (4 Bft)
06.01.2023 02:55 7,2 C 6,7 C 93 % 1021,4 hPa 0,0 l/m 19,3 km/h (3 Bft) S-SW 202 0 min 0,0 UV-I 0 W/m 6,1 C -0,1 C 29,0 km/h (5 Bft)
06.01.2023 02:56 7,2 C 6,7 C 93 % 1021,3 hPa 0,0 l/m 16,1 km/h (3 Bft) S 180 0 min 0,0 UV-I 0 W/m 6,1 C 1,2 C 20,9 km/h (4 Bft)
06.01.2023 02:57 7,2 C 6,7 C 93 % 1021,5 hPa 0,0 l/m 19,3 km/h (3 Bft) S-SW 202 0 min 0,0 UV-I 0 W/m 6,1 C -0,1 C 30,6 km/h (5 Bft)
06.01.2023 02:58 7,2 C 6,7 C 93 % 1021,4 hPa 0,0 l/m 20,9 km/h (4 Bft) S 180 0 min 0,0 UV-I 0 W/m 6,1 C -0,7 C 35,4 km/h (5 Bft)
06.01.2023 02:59 7,2 C 6,7 C 93 % 1021,4 hPa 0,0 l/m 17,7 km/h (3 Bft) S-SW 202 0 min 0,0 UV-I 0 W/m 6,1 C 0,6 C 32,2 km/h (5 Bft)
06.01.2023 03:00 7,2 C 6,7 C 93 % 1021,4 hPa 0,0 l/m 17,7 km/h (3 Bft) S-SW 202 0 min 0,0 UV-I 0 W/m 6,1 C 0,6 C 22,5 km/h (4 Bft)
06.01.2023 03:01 7,2 C 6,7 C 93 % 1021,4 hPa 0,0 l/m 14,5 km/h (3 Bft) S-SW 202 0 min 0,0 UV-I 0 W/m 6,1 C 2,0 C 19,3 km/h (3 Bft)
06.01.2023 03:02 7,2 C 6,7 C 93 % 1021,5 hPa 0,0 l/m 16,1 km/h (3 Bft) S-SW 202 0 min 0,0 UV-I 0 W/m 6,1 C 1,2 C 19,3 km/h (3 Bft)
06.01.2023 03:03 7,2 C 6,7 C 93 % 1021,5 hPa 0,0 l/m 22,5 km/h (4 Bft) S-SW 202 0 min 0,0 UV-I 0 W/m 6,1 C -1,2 C 35,4 km/h (5 Bft)
06.01.2023 03:04 7,2 C 6,7 C 93 % 1021,4 hPa 0,0 l/m 25,7 km/h (4 Bft) S 180 0 min 0,0 UV-I 0 W/m 6,1 C -2,2 C 37,0 km/h (5 Bft)
06.01.2023 03:05 7,2 C 6,7 C 93 % 1021,5 hPa 0,0 l/m 22,5 km/h (4 Bft) S-SW 202 0 min 0,0 UV-I 0 W/m 6,1 C -1,2 C 37,0 km/h (5 Bft)
06.01.2023 03:06 7,1 C 6,7 C 93 % 1021,4 hPa 0,0 l/m 22,5 km/h (4 Bft) S-SW 202 0 min 0,0 UV-I 0 W/m 6,0 C -1,3 C 29,0 km/h (5 Bft)
06.01.2023 03:07 7,2 C 6,1 C 93 % 1021,4 hPa 0,0 l/m 19,3 km/h (3 Bft) S-SW 202 0 min 0,0 UV-I 0 W/m 6,1 C -0,1 C 27,4 km/h (4 Bft)
06.01.2023 03:08 7,1 C 6,1 C 93 % 1021,6 hPa 0,0 l/m 16,1 km/h (3 Bft) S-SW 202 0 min 0,0 UV-I 0 W/m 6,0 C 1,1 C 24,1 km/h (4 Bft)
06.01.2023 03:09 7,1 C 6,1 C 93 % 1021,5 hPa 0,0 l/m 20,9 km/h (4 Bft) S-SW 202 0 min 0,0 UV-I 0 W/m 6,0 C -0,8 C 29,0 km/h (5 Bft)
06.01.2023 03:10 7,1 C 6,1 C 93 % 1021,5 hPa 0,0 l/m 22,5 km/h (4 Bft) S-SW 202 0 min 0,0 UV-I 0 W/m 6,0 C -1,3 C 30,6 km/h (5 Bft)
06.01.2023 03:11 7,1 C 6,1 C 93 % 1021,6 hPa 0,0 l/m 17,7 km/h (3 Bft) SW 225 0 min 0,0 UV-I 0 W/m 6,0 C 0,4 C 25,7 km/h (4 Bft)
06.01.2023 03:12 7,1 C 6,1 C 93 % 1021,6 hPa 0,0 l/m 17,7 km/h (3 Bft) S-SW 202 0 min 0,0 UV-I 0 W/m 6,0 C 0,4 C 22,5 km/h (4 Bft)
06.01.2023 03:13 7,1 C 6,1 C 92 % 1021,5 hPa 0,0 l/m 20,9 km/h (4 Bft) S-SW 202 0 min 0,0 UV-I 0 W/m 5,9 C -0,8 C 27,4 km/h (4 Bft)
06.01.2023 03:14 7,1 C 6,1 C 93 % 1021,6 hPa 0,0 l/m 19,3 km/h (3 Bft) S-SW 202 0 min 0,0 UV-I 0 W/m 6,0 C -0,2 C 29,0 km/h (5 Bft)
06.01.2023 03:15 7,1 C 6,1 C 92 % 1021,6 hPa 0,0 l/m 22,5 km/h (4 Bft) S-SW 202 0 min 0,0 UV-I 0 W/m 5,9 C -1,3 C 29,0 km/h (5 Bft)
06.01.2023 03:16 7,1 C 6,1 C 92 % 1021,6 hPa 0,0 l/m 14,5 km/h (3 Bft) S-SW 202 0 min 0,0 UV-I 0 W/m 5,9 C 1,9 C 22,5 km/h (4 Bft)
06.01.2023 03:17 7,1 C 6,1 C 93 % 1021,7 hPa 0,0 l/m 16,1 km/h (3 Bft) S-SW 202 0 min 0,0 UV-I 0 W/m 6,0 C 1,1 C 20,9 km/h (4 Bft)
06.01.2023 03:18 7,1 C 6,1 C 93 % 1021,7 hPa 0,0 l/m 19,3 km/h (3 Bft) S-SW 202 0 min 0,0 UV-I 0 W/m 6,0 C -0,2 C 24,1 km/h (4 Bft)
06.01.2023 03:19 7,0 C 6,1 C 92 % 1021,6 hPa 0,0 l/m 20,9 km/h (4 Bft) S-SW 202 0 min 0,0 UV-I 0 W/m 5,8 C -0,9 C 30,6 km/h (5 Bft)
06.01.2023 03:20 7,0 C 6,1 C 92 % 1021,6 hPa 0,0 l/m 22,5 km/h (4 Bft) S 180 0 min 0,0 UV-I 0 W/m 5,8 C -1,5 C 32,2 km/h (5 Bft)
06.01.2023 03:21 7,0 C 6,1 C 92 % 1021,5 hPa 0,0 l/m 19,3 km/h (3 Bft) S-SW 202 0 min 0,0 UV-I 0 W/m 5,8 C -0,3 C 24,1 km/h (4 Bft)
06.01.2023 03:22 7,0 C 6,1 C 92 % 1021,4 hPa 0,0 l/m 17,7 km/h (3 Bft) S 180 0 min 0,0 UV-I 0 W/m 5,8 C 0,3 C 25,7 km/h (4 Bft)
06.01.2023 03:23 7,0 C 6,1 C 92 % 1021,4 hPa 0,0 l/m 19,3 km/h (3 Bft) S-SW 202 0 min 0,0 UV-I 0 W/m 5,8 C -0,3 C 27,4 km/h (4 Bft)
06.01.2023 03:24 6,9 C 6,1 C 92 % 1021,5 hPa 0,0 l/m 24,1 km/h (4 Bft) S-SW 202 0 min 0,0 UV-I 0 W/m 5,7 C -2,1 C 30,6 km/h (5 Bft)
06.01.2023 03:25 6,9 C 6,1 C 92 % 1021,4 hPa 0,0 l/m 19,3 km/h (3 Bft) S-SW 202 0 min 0,0 UV-I 0 W/m 5,7 C -0,5 C 29,0 km/h (5 Bft)
06.01.2023 03:26 6,9 C 6,1 C 92 % 1021,4 hPa 0,0 l/m 20,9 km/h (4 Bft) S 180 0 min 0,0 UV-I 0 W/m 5,7 C -1,0 C 32,2 km/h (5 Bft)
06.01.2023 03:27 6,9 C 6,1 C 92 % 1021,5 hPa 0,0 l/m 22,5 km/h (4 Bft) S-SW 202 0 min 0,0 UV-I 0 W/m 5,7 C -1,6 C 33,8 km/h (5 Bft)
06.01.2023 03:28 6,9 C 6,1 C 92 % 1021,5 hPa 0,0 l/m 22,5 km/h (4 Bft) S-SW 202 0 min 0,0 UV-I 0 W/m 5,7 C -1,6 C 32,2 km/h (5 Bft)
06.01.2023 03:29 6,9 C 6,1 C 92 % 1021,4 hPa 0,0 l/m 20,9 km/h (4 Bft) S 180 0 min 0,0 UV-I 0 W/m 5,7 C -1,0 C 29,0 km/h (5 Bft)
06.01.2023 03:30 6,9 C 6,1 C 92 % 1021,5 hPa 0,0 l/m 16,1 km/h (3 Bft) S-SW 202 0 min 0,0 UV-I 0 W/m 5,7 C 0,9 C 20,9 km/h (4 Bft)
06.01.2023 03:31 6,9 C 6,1 C 92 % 1021,4 hPa 0,0 l/m 16,1 km/h (3 Bft) S-SW 202 0 min 0,0 UV-I 0 W/m 5,7 C 0,9 C 25,7 km/h (4 Bft)
06.01.2023 03:32 6,9 C 6,1 C 92 % 1021,4 hPa 0,0 l/m 17,7 km/h (3 Bft) S-SW 202 0 min 0,0 UV-I 0 W/m 5,7 C 0,2 C 22,5 km/h (4 Bft)
06.01.2023 03:33 6,9 C 6,1 C 92 % 1021,4 hPa 0,0 l/m 17,7 km/h (3 Bft) S-SW 202 0 min 0,0 UV-I 0 W/m 5,7 C 0,2 C 22,5 km/h (4 Bft)
06.01.2023 03:34 6,9 C 6,1 C 92 % 1021,5 hPa 0,0 l/m 19,3 km/h (3 Bft) S-SW 202 0 min 0,0 UV-I 0 W/m 5,7 C -0,5 C 32,2 km/h (5 Bft)
06.01.2023 03:35 6,9 C 6,1 C 92 % 1021,4 hPa 0,0 l/m 19,3 km/h (3 Bft) S-SW 202 0 min 0,0 UV-I 0 W/m 5,7 C -0,5 C 27,4 km/h (4 Bft)
06.01.2023 03:36 6,9 C 6,1 C 92 % 1021,4 hPa 0,0 l/m 17,7 km/h (3 Bft) S-SW 202 0 min 0,0 UV-I 0 W/m 5,7 C 0,2 C 22,5 km/h (4 Bft)
06.01.2023 03:37 6,9 C 6,1 C 92 % 1021,4 hPa 0,0 l/m 16,1 km/h (3 Bft) S-SW 202 0 min 0,0 UV-I 0 W/m 5,7 C 0,9 C 20,9 km/h (4 Bft)
06.01.2023 03:38 6,9 C 6,1 C 92 % 1021,5 hPa 0,0 l/m 19,3 km/h (3 Bft) S 180 0 min 0,0 UV-I 0 W/m 5,7 C -0,5 C 24,1 km/h (4 Bft)
06.01.2023 03:39 6,9 C 6,1 C 92 % 1021,4 hPa 0,0 l/m 17,7 km/h (3 Bft) S-SW 202 0 min 0,0 UV-I 0 W/m 5,7 C 0,2 C 22,5 km/h (4 Bft)
06.01.2023 03:40 6,9 C 6,1 C 92 % 1021,4 hPa 0,0 l/m 16,1 km/h (3 Bft) S-SW 202 0 min 0,0 UV-I 0 W/m 5,7 C 0,9 C 22,5 km/h (4 Bft)
06.01.2023 03:41 6,9 C 6,1 C 92 % 1021,4 hPa 0,0 l/m 19,3 km/h (3 Bft) S-SW 202 0 min 0,0 UV-I 0 W/m 5,7 C -0,5 C 24,1 km/h (4 Bft)
06.01.2023 03:42 6,9 C 6,1 C 92 % 1021,5 hPa 0,0 l/m 16,1 km/h (3 Bft) S 180 0 min 0,0 UV-I 0 W/m 5,7 C 0,9 C 29,0 km/h (5 Bft)
06.01.2023 03:43 6,9 C 6,1 C 92 % 1021,4 hPa 0,0 l/m 11,3 km/h (2 Bft) SW 225 0 min 0,0 UV-I 0 W/m 5,7 C 3,4 C 16,1 km/h (3 Bft)
06.01.2023 03:44 6,9 C 6,1 C 92 % 1021,5 hPa 0,0 l/m 16,1 km/h (3 Bft) S-SW 202 0 min 0,0 UV-I 0 W/m 5,7 C 0,9 C 20,9 km/h (4 Bft)
06.01.2023 03:45 6,9 C 6,1 C 92 % 1021,4 hPa 0,0 l/m 16,1 km/h (3 Bft) S 180 0 min 0,0 UV-I 0 W/m 5,7 C 0,9 C 24,1 km/h (4 Bft)
06.01.2023 03:46 6,9 C 6,1 C 92 % 1021,4 hPa 0,0 l/m 12,9 km/h (3 Bft) S-SW 202 0 min 0,0 UV-I 0 W/m 5,7 C 2,4 C 17,7 km/h (3 Bft)
06.01.2023 03:47 6,9 C 6,1 C 92 % 1021,4 hPa 0,0 l/m 12,9 km/h (3 Bft) S-SW 202 0 min 0,0 UV-I 0 W/m 5,7 C 2,4 C 19,3 km/h (3 Bft)
06.01.2023 03:48 6,9 C 6,1 C 92 % 1021,4 hPa 0,0 l/m 14,5 km/h (3 Bft) S-SW 202 0 min 0,0 UV-I 0 W/m 5,7 C 1,6 C 20,9 km/h (4 Bft)
06.01.2023 03:49 6,9 C 6,1 C 92 % 1021,5 hPa 0,0 l/m 12,9 km/h (3 Bft) S 180 0 min 0,0 UV-I 0 W/m 5,7 C 2,4 C 17,7 km/h (3 Bft)
06.01.2023 03:50 6,9 C 6,1 C 92 % 1021,3 hPa 0,0 l/m 14,5 km/h (3 Bft) S 180 0 min 0,0 UV-I 0 W/m 5,7 C 1,6 C 19,3 km/h (3 Bft)
06.01.2023 03:51 6,9 C 6,1 C 92 % 1021,3 hPa 0,0 l/m 20,9 km/h (4 Bft) S 180 0 min 0,0 UV-I 0 W/m 5,7 C -1,0 C 29,0 km/h (5 Bft)
06.01.2023 03:52 6,9 C 6,1 C 92 % 1021,3 hPa 0,0 l/m 19,3 km/h (3 Bft) S-SW 202 0 min 0,0 UV-I 0 W/m 5,7 C -0,5 C 25,7 km/h (4 Bft)
06.01.2023 03:53 6,9 C 6,1 C 91 % 1021,2 hPa 0,0 l/m 17,7 km/h (3 Bft) S-SW 202 0 min 0,0 UV-I 0 W/m 5,5 C 0,2 C 22,5 km/h (4 Bft)
06.01.2023 03:54 6,9 C 6,1 C 91 % 1021,2 hPa 0,0 l/m 19,3 km/h (3 Bft) S 180 0 min 0,0 UV-I 0 W/m 5,5 C -0,5 C 27,4 km/h (4 Bft)
06.01.2023 03:55 6,8 C 6,1 C 91 % 1021,2 hPa 0,0 l/m 16,1 km/h (3 Bft) S 180 0 min 0,0 UV-I 0 W/m 5,4 C 0,7 C 22,5 km/h (4 Bft)
06.01.2023 03:56 6,9 C 6,1 C 91 % 1021,3 hPa 0,0 l/m 19,3 km/h (3 Bft) S-SW 202 0 min 0,0 UV-I 0 W/m 5,5 C -0,5 C 27,4 km/h (4 Bft)
06.01.2023 03:57 6,8 C 6,1 C 91 % 1021,3 hPa 0,0 l/m 16,1 km/h (3 Bft) S 180 0 min 0,0 UV-I 0 W/m 5,4 C 0,7 C 22,5 km/h (4 Bft)
06.01.2023 03:58 6,8 C 6,1 C 91 % 1021,3 hPa 0,0 l/m 17,7 km/h (3 Bft) S-SW 202 0 min 0,0 UV-I 0 W/m 5,4 C 0,1 C 25,7 km/h (4 Bft)
06.01.2023 03:59 6,8 C 6,1 C 91 % 1021,2 hPa 0,0 l/m 17,7 km/h (3 Bft) S-SW 202 0 min 0,0 UV-I 0 W/m 5,4 C 0,1 C 27,4 km/h (4 Bft)
06.01.2023 04:00 6,8 C 6,1 C 91 % 1021,2 hPa 0,0 l/m 19,3 km/h (3 Bft) S-SW 202 0 min 0,0 UV-I 0 W/m 5,4 C -0,6 C 22,5 km/h (4 Bft)
06.01.2023 04:01 6,8 C 6,1 C 91 % 1021,1 hPa 0,0 l/m 19,3 km/h (3 Bft) S-SW 202 0 min 0,0 UV-I 0 W/m 5,4 C -0,6 C 22,5 km/h (4 Bft)
06.01.2023 04:02 6,9 C 6,1 C 91 % 1021,2 hPa 0,0 l/m 17,7 km/h (3 Bft) S 180 0 min 0,0 UV-I 0 W/m 5,5 C 0,2 C 24,1 km/h (4 Bft)
06.01.2023 04:03 6,8 C 6,1 C 91 % 1021,2 hPa 0,0 l/m 19,3 km/h (3 Bft) S 180 0 min 0,0 UV-I 0 W/m 5,4 C -0,6 C 25,7 km/h (4 Bft)
06.01.2023 04:04 6,8 C 6,1 C 91 % 1021,1 hPa 0,0 l/m 16,1 km/h (3 Bft) S-SW 202 0 min 0,0 UV-I 0 W/m 5,4 C 0,7 C 24,1 km/h (4 Bft)
06.01.2023 04:05 6,8 C 6,1 C 91 % 1021,3 hPa 0,0 l/m 19,3 km/h (3 Bft) S 180 0 min 0,0 UV-I 0 W/m 5,4 C -0,6 C 25,7 km/h (4 Bft)
06.01.2023 04:06 6,8 C 6,1 C 91 % 1021,1 hPa 0,0 l/m 16,1 km/h (3 Bft) S-SW 202 0 min 0,0 UV-I 0 W/m 5,4 C 0,7 C 27,4 km/h (4 Bft)
06.01.2023 04:07 6,8 C 6,1 C 91 % 1021,2 hPa 0,0 l/m 16,1 km/h (3 Bft) S-SW 202 0 min 0,0 UV-I 0 W/m 5,4 C 0,7 C 30,6 km/h (5 Bft)
06.01.2023 04:08 6,8 C 6,1 C 91 % 1021,1 hPa 0,0 l/m 17,7 km/h (3 Bft) S-SW 202 0 min 0,0 UV-I 0 W/m 5,4 C 0,1 C 24,1 km/h (4 Bft)
06.01.2023 04:09 6,8 C 6,1 C 91 % 1021,1 hPa 0,0 l/m 20,9 km/h (4 Bft) S-SW 202 0 min 0,0 UV-I 0 W/m 5,4 C -1,2 C 27,4 km/h (4 Bft)
06.01.2023 04:10 6,9 C 6,1 C 91 % 1021,2 hPa 0,0 l/m 19,3 km/h (3 Bft) S-SW 202 0 min 0,0 UV-I 0 W/m 5,5 C -0,5 C 25,7 km/h (4 Bft)
06.01.2023 04:11 6,8 C 6,1 C 91 % 1021,1 hPa 0,0 l/m 19,3 km/h (3 Bft) S-SW 202 0 min 0,0 UV-I 0 W/m 5,4 C -0,6 C 27,4 km/h (4 Bft)
06.01.2023 04:12 6,8 C 6,1 C 91 % 1021,2 hPa 0,0 l/m 19,3 km/h (3 Bft) S-SW 202 0 min 0,0 UV-I 0 W/m 5,4 C -0,6 C 24,1 km/h (4 Bft)
06.01.2023 04:13 6,8 C 6,1 C 91 % 1021,2 hPa 0,0 l/m 17,7 km/h (3 Bft) S-SW 202 0 min 0,0 UV-I 0 W/m 5,4 C 0,1 C 24,1 km/h (4 Bft)
06.01.2023 04:14 6,8 C 6,1 C 91 % 1021,1 hPa 0,0 l/m 14,5 km/h (3 Bft) S-SW 202 0 min 0,0 UV-I 0 W/m 5,4 C 1,5 C 17,7 km/h (3 Bft)
06.01.2023 04:15 6,8 C 6,1 C 91 % 1021,1 hPa 0,0 l/m 19,3 km/h (3 Bft) S-SW 202 0 min 0,0 UV-I 0 W/m 5,4 C -0,6 C 37,0 km/h (5 Bft)
06.01.2023 04:16 6,9 C 6,1 C 91 % 1021,0 hPa 0,0 l/m 17,7 km/h (3 Bft) S 180 0 min 0,0 UV-I 0 W/m 5,5 C 0,2 C 24,1 km/h (4 Bft)
06.01.2023 04:17 6,9 C 6,1 C 91 % 1021,0 hPa 0,0 l/m 25,7 km/h (4 Bft) S-SW 202 0 min 0,0 UV-I 0 W/m 5,5 C -2,6 C 32,2 km/h (5 Bft)
06.01.2023 04:18 6,9 C 6,1 C 91 % 1021,0 hPa 0,0 l/m 20,9 km/h (4 Bft) S 180 0 min 0,0 UV-I 0 W/m 5,5 C -1,0 C 30,6 km/h (5 Bft)
06.01.2023 04:19 6,8 C 6,1 C 91 % 1021,1 hPa 0,0 l/m 16,1 km/h (3 Bft) S 180 0 min 0,0 UV-I 0 W/m 5,4 C 0,7 C 22,5 km/h (4 Bft)
06.01.2023 04:20 6,9 C 6,1 C 91 % 1021,0 hPa 0,0 l/m 16,1 km/h (3 Bft) S-SW 202 0 min 0,0 UV-I 0 W/m 5,5 C 0,9 C 20,9 km/h (4 Bft)
06.01.2023 04:21 6,9 C 6,1 C 91 % 1021,0 hPa 0,0 l/m 19,3 km/h (3 Bft) S-SW 202 0 min 0,0 UV-I 0 W/m 5,5 C -0,5 C 25,7 km/h (4 Bft)
06.01.2023 04:22 6,8 C 6,1 C 91 % 1021,1 hPa 0,0 l/m 19,3 km/h (3 Bft) S-SW 202 0 min 0,0 UV-I 0 W/m 5,4 C -0,6 C 25,7 km/h (4 Bft)
06.01.2023 04:23 6,8 C 6,1 C 91 % 1021,1 hPa 0,0 l/m 24,1 km/h (4 Bft) S-SW 202 0 min 0,0 UV-I 0 W/m 5,4 C -2,2 C 32,2 km/h (5 Bft)
06.01.2023 04:24 6,9 C 6,1 C 91 % 1021,1 hPa 0,0 l/m 17,7 km/h (3 Bft) S 180 0 min 0,0 UV-I 0 W/m 5,5 C 0,2 C 30,6 km/h (5 Bft)
06.01.2023 04:25 6,9 C 6,1 C 91 % 1021,1 hPa 0,0 l/m 19,3 km/h (3 Bft) S-SW 202 0 min 0,0 UV-I 0 W/m 5,5 C -0,5 C 25,7 km/h (4 Bft)
06.01.2023 04:26 6,8 C 6,1 C 91 % 1021,1 hPa 0,0 l/m 16,1 km/h (3 Bft) S 180 0 min 0,0 UV-I 0 W/m 5,4 C 0,7 C 22,5 km/h (4 Bft)
06.01.2023 04:27 6,8 C 6,1 C 91 % 1021,1 hPa 0,0 l/m 17,7 km/h (3 Bft) S-SW 202 0 min 0,0 UV-I 0 W/m 5,4 C 0,1 C 22,5 km/h (4 Bft)
06.01.2023 04:28 6,8 C 6,1 C 91 % 1021,2 hPa 0,0 l/m 16,1 km/h (3 Bft) S 180 0 min 0,0 UV-I 0 W/m 5,4 C 0,7 C 25,7 km/h (4 Bft)
06.01.2023 04:29 6,8 C 6,1 C 91 % 1021,2 hPa 0,0 l/m 19,3 km/h (3 Bft) S-SW 202 0 min 0,0 UV-I 0 W/m 5,4 C -0,6 C 25,7 km/h (4 Bft)
06.01.2023 04:30 6,8 C 6,1 C 91 % 1021,2 hPa 0,0 l/m 17,7 km/h (3 Bft) S-SW 202 0 min 0,0 UV-I 0 W/m 5,4 C 0,1 C 20,9 km/h (4 Bft)
06.01.2023 04:31 6,9 C 6,1 C 91 % 1021,0 hPa 0,0 l/m 17,7 km/h (3 Bft) S-SW 202 0 min 0,0 UV-I 0 W/m 5,5 C 0,2 C 22,5 km/h (4 Bft)
06.01.2023 04:32 6,8 C 6,1 C 91 % 1021,0 hPa 0,0 l/m 16,1 km/h (3 Bft) S 180 0 min 0,0 UV-I 0 W/m 5,4 C 0,7 C 22,5 km/h (4 Bft)
06.01.2023 04:33 6,8 C 6,1 C 91 % 1021,1 hPa 0,0 l/m 16,1 km/h (3 Bft) S-SW 202 0 min 0,0 UV-I 0 W/m 5,4 C 0,7 C 20,9 km/h (4 Bft)
06.01.2023 04:34 6,8 C 6,1 C 91 % 1021,0 hPa 0,0 l/m 16,1 km/h (3 Bft) S-SW 202 0 min 0,0 UV-I 0 W/m 5,4 C 0,7 C 22,5 km/h (4 Bft)
06.01.2023 04:35 6,9 C 6,1 C 91 % 1021,0 hPa 0,0 l/m 20,9 km/h (4 Bft) S-SW 202 0 min 0,0 UV-I 0 W/m 5,5 C -1,0 C 25,7 km/h (4 Bft)
06.01.2023 04:36 6,8 C 6,1 C 91 % 1021,0 hPa 0,0 l/m 16,1 km/h (3 Bft) S-SW 202 0 min 0,0 UV-I 0 W/m 5,4 C 0,7 C 20,9 km/h (4 Bft)
06.01.2023 04:37 6,8 C 6,1 C 91 % 1021,1 hPa 0,0 l/m 16,1 km/h (3 Bft) S-SW 202 0 min 0,0 UV-I 0 W/m 5,4 C 0,7 C 22,5 km/h (4 Bft)
06.01.2023 04:38 6,8 C 6,1 C 91 % 1021,1 hPa 0,0 l/m 17,7 km/h (3 Bft) S-SW 202 0 min 0,0 UV-I 0 W/m 5,4 C 0,1 C 29,0 km/h (5 Bft)
06.01.2023 04:39 6,8 C 6,1 C 91 % 1021,1 hPa 0,0 l/m 17,7 km/h (3 Bft) S-SW 202 0 min 0,0 UV-I 0 W/m 5,4 C 0,1 C 22,5 km/h (4 Bft)
06.01.2023 04:40 6,8 C 6,1 C 91 % 1021,0 hPa 0,0 l/m 14,5 km/h (3 Bft) S-SW 202 0 min 0,0 UV-I 0 W/m 5,4 C 1,5 C 17,7 km/h (3 Bft)
06.01.2023 04:41 6,8 C 6,1 C 91 % 1021,0 hPa 0,0 l/m 12,9 km/h (3 Bft) S-SW 202 0 min 0,0 UV-I 0 W/m 5,4 C 2,3 C 19,3 km/h (3 Bft)
06.01.2023 04:42 6,8 C 6,1 C 91 % 1021,1 hPa 0,0 l/m 16,1 km/h (3 Bft) S 180 0 min 0,0 UV-I 0 W/m 5,4 C 0,7 C 20,9 km/h (4 Bft)
06.01.2023 04:43 6,8 C 6,1 C 91 % 1020,9 hPa 0,0 l/m 14,5 km/h (3 Bft) S-SW 202 0 min 0,0 UV-I 0 W/m 5,4 C 1,5 C 19,3 km/h (3 Bft)
06.01.2023 04:44 6,8 C 6,1 C 91 % 1021,0 hPa 0,0 l/m 14,5 km/h (3 Bft) S-SW 202 0 min 0,0 UV-I 0 W/m 5,4 C 1,5 C 20,9 km/h (4 Bft)
06.01.2023 04:45 6,8 C 6,1 C 91 % 1021,0 hPa 0,0 l/m 14,5 km/h (3 Bft) S-SW 202 0 min 0,0 UV-I 0 W/m 5,4 C 1,5 C 20,9 km/h (4 Bft)
06.01.2023 04:46 6,8 C 6,1 C 91 % 1021,0 hPa 0,0 l/m 16,1 km/h (3 Bft) S-SW 202 0 min 0,0 UV-I 0 W/m 5,4 C 0,7 C 22,5 km/h (4 Bft)
06.01.2023 04:47 6,8 C 6,1 C 91 % 1021,0 hPa 0,0 l/m 16,1 km/h (3 Bft) S-SW 202 0 min 0,0 UV-I 0 W/m 5,4 C 0,7 C 19,3 km/h (3 Bft)
06.01.2023 04:48 6,8 C 6,1 C 91 % 1021,0 hPa 0,0 l/m 19,3 km/h (3 Bft) S-SW 202 0 min 0,0 UV-I 0 W/m 5,4 C -0,6 C 24,1 km/h (4 Bft)
06.01.2023 04:49 6,8 C 6,1 C 91 % 1020,9 hPa 0,0 l/m 17,7 km/h (3 Bft) S-SW 202 0 min 0,0 UV-I 0 W/m 5,4 C 0,1 C 24,1 km/h (4 Bft)
06.01.2023 04:50 6,8 C 6,1 C 91 % 1021,0 hPa 0,0 l/m 19,3 km/h (3 Bft) S-SW 202 0 min 0,0 UV-I 0 W/m 5,4 C -0,6 C 27,4 km/h (4 Bft)
06.01.2023 04:51 6,8 C 6,1 C 91 % 1021,1 hPa 0,0 l/m 17,7 km/h (3 Bft) S-SW 202 0 min 0,0 UV-I 0 W/m 5,4 C 0,1 C 24,1 km/h (4 Bft)
06.01.2023 04:52 6,8 C 6,1 C 91 % 1021,0 hPa 0,0 l/m 12,9 km/h (3 Bft) S 180 0 min 0,0 UV-I 0 W/m 5,4 C 2,3 C 16,1 km/h (3 Bft)
06.01.2023 04:53 6,8 C 6,1 C 91 % 1021,0 hPa 0,0 l/m 12,9 km/h (3 Bft) S-SW 202 0 min 0,0 UV-I 0 W/m 5,4 C 2,3 C 19,3 km/h (3 Bft)
06.01.2023 04:54 6,8 C 6,1 C 91 % 1021,1 hPa 0,0 l/m 11,3 km/h (2 Bft) S-SW 202 0 min 0,0 UV-I 0 W/m 5,4 C 3,2 C 22,5 km/h (4 Bft)
06.01.2023 04:55 6,8 C 6,1 C 91 % 1021,1 hPa 0,0 l/m 12,9 km/h (3 Bft) S-SW 202 0 min 0,0 UV-I 0 W/m 5,4 C 2,3 C 19,3 km/h (3 Bft)
06.01.2023 04:56 6,8 C 6,1 C 91 % 1021,0 hPa 0,0 l/m 14,5 km/h (3 Bft) S-SW 202 0 min 0,0 UV-I 0 W/m 5,4 C 1,5 C 19,3 km/h (3 Bft)
06.01.2023 04:57 6,8 C 6,1 C 91 % 1021,0 hPa 0,0 l/m 20,9 km/h (4 Bft) S-SW 202 0 min 0,0 UV-I 0 W/m 5,4 C -1,2 C 25,7 km/h (4 Bft)
06.01.2023 04:58 6,8 C 6,1 C 91 % 1021,0 hPa 0,0 l/m 19,3 km/h (3 Bft) S-SW 202 0 min 0,0 UV-I 0 W/m 5,4 C -0,6 C 27,4 km/h (4 Bft)
06.01.2023 04:59 6,8 C 6,1 C 91 % 1021,1 hPa 0,0 l/m 17,7 km/h (3 Bft) S-SW 202 0 min 0,0 UV-I 0 W/m 5,4 C 0,1 C 25,7 km/h (4 Bft)
06.01.2023 05:00 6,8 C 6,1 C 91 % 1021,0 hPa 0,0 l/m 17,7 km/h (3 Bft) S-SW 202 0 min 0,0 UV-I 0 W/m 5,4 C 0,1 C 24,1 km/h (4 Bft)
06.01.2023 05:01 6,8 C 6,1 C 91 % 1021,0 hPa 0,0 l/m 22,5 km/h (4 Bft) S-SW 202 0 min 0,0 UV-I 0 W/m 5,4 C -1,7 C 30,6 km/h (5 Bft)
06.01.2023 05:02 6,8 C 6,1 C 91 % 1021,1 hPa 0,0 l/m 16,1 km/h (3 Bft) S-SW 202 0 min 0,0 UV-I 0 W/m 5,4 C 0,7 C 22,5 km/h (4 Bft)
06.01.2023 05:03 6,8 C 6,1 C 91 % 1021,0 hPa 0,0 l/m 16,1 km/h (3 Bft) S-SW 202 0 min 0,0 UV-I 0 W/m 5,4 C 0,7 C 25,7 km/h (4 Bft)
06.01.2023 05:04 6,8 C 6,1 C 91 % 1021,0 hPa 0,0 l/m 16,1 km/h (3 Bft) S-SW 202 0 min 0,0 UV-I 0 W/m 5,4 C 0,7 C 22,5 km/h (4 Bft)
06.01.2023 05:05 6,8 C 6,1 C 91 % 1021,1 hPa 0,0 l/m 14,5 km/h (3 Bft) S-SW 202 0 min 0,0 UV-I 0 W/m 5,4 C 1,5 C 20,9 km/h (4 Bft)
06.01.2023 05:06 6,8 C 6,1 C 91 % 1021,1 hPa 0,0 l/m 19,3 km/h (3 Bft) S-SW 202 0 min 0,0 UV-I 0 W/m 5,4 C -0,6 C 29,0 km/h (5 Bft)
06.01.2023 05:07 6,8 C 6,1 C 91 % 1021,1 hPa 0,0 l/m 16,1 km/h (3 Bft) SW 225 0 min 0,0 UV-I 0 W/m 5,4 C 0,7 C 20,9 km/h (4 Bft)
06.01.2023 05:08 6,8 C 6,1 C 91 % 1021,0 hPa 0,0 l/m 16,1 km/h (3 Bft) S-SW 202 0 min 0,0 UV-I 0 W/m 5,4 C 0,7 C 22,5 km/h (4 Bft)
06.01.2023 05:09 6,8 C 6,1 C 91 % 1021,0 hPa 0,0 l/m 16,1 km/h (3 Bft) S-SW 202 0 min 0,0 UV-I 0 W/m 5,4 C 0,7 C 22,5 km/h (4 Bft)
06.01.2023 05:10 6,8 C 6,1 C 91 % 1021,1 hPa 0,0 l/m 22,5 km/h (4 Bft) S-SW 202 0 min 0,0 UV-I 0 W/m 5,4 C -1,7 C 32,2 km/h (5 Bft)
06.01.2023 05:11 6,8 C 6,1 C 91 % 1021,0 hPa 0,0 l/m 24,1 km/h (4 Bft) S-SW 202 0 min 0,0 UV-I 0 W/m 5,4 C -2,2 C 38,6 km/h (5 Bft)
06.01.2023 05:12 6,8 C 6,1 C 91 % 1021,0 hPa 0,0 l/m 17,7 km/h (3 Bft) SW 225 0 min 0,0 UV-I 0 W/m 5,4 C 0,1 C 27,4 km/h (4 Bft)
06.01.2023 05:13 6,8 C 6,1 C 91 % 1021,0 hPa 0,0 l/m 19,3 km/h (3 Bft) S-SW 202 0 min 0,0 UV-I 0 W/m 5,4 C -0,6 C 27,4 km/h (4 Bft)
06.01.2023 05:14 6,8 C 6,1 C 91 % 1020,9 hPa 0,0 l/m 17,7 km/h (3 Bft) S-SW 202 0 min 0,0 UV-I 0 W/m 5,4 C 0,1 C 25,7 km/h (4 Bft)
06.01.2023 05:15 6,8 C 6,1 C 91 % 1021,0 hPa 0,0 l/m 19,3 km/h (3 Bft) S-SW 202 0 min 0,0 UV-I 0 W/m 5,4 C -0,6 C 33,8 km/h (5 Bft)
06.01.2023 05:16 6,8 C 6,1 C 91 % 1020,9 hPa 0,0 l/m 16,1 km/h (3 Bft) S-SW 202 0 min 0,0 UV-I 0 W/m 5,4 C 0,7 C 20,9 km/h (4 Bft)
06.01.2023 05:17 6,8 C 6,1 C 91 % 1020,9 hPa 0,0 l/m 14,5 km/h (3 Bft) S-SW 202 0 min 0,0 UV-I 0 W/m 5,4 C 1,5 C 19,3 km/h (3 Bft)
06.01.2023 05:18 6,8 C 6,1 C 91 % 1020,8 hPa 0,0 l/m 16,1 km/h (3 Bft) SW 225 0 min 0,0 UV-I 0 W/m 5,4 C 0,7 C 20,9 km/h (4 Bft)
06.01.2023 05:19 6,8 C 6,1 C 91 % 1020,8 hPa 0,0 l/m 19,3 km/h (3 Bft) S-SW 202 0 min 0,0 UV-I 0 W/m 5,4 C -0,6 C 25,7 km/h (4 Bft)
06.01.2023 05:20 6,8 C 6,1 C 91 % 1020,8 hPa 0,0 l/m 16,1 km/h (3 Bft) S-SW 202 0 min 0,0 UV-I 0 W/m 5,4 C 0,7 C 22,5 km/h (4 Bft)
06.01.2023 05:21 6,8 C 6,1 C 91 % 1020,8 hPa 0,0 l/m 19,3 km/h (3 Bft) S-SW 202 0 min 0,0 UV-I 0 W/m 5,4 C -0,6 C 25,7 km/h (4 Bft)
06.01.2023 05:22 6,7 C 6,1 C 91 % 1020,8 hPa 0,0 l/m 19,3 km/h (3 Bft) S-SW 202 0 min 0,0 UV-I 0 W/m 5,3 C -0,7 C 24,1 km/h (4 Bft)
06.01.2023 05:23 6,7 C 6,1 C 91 % 1020,9 hPa 0,0 l/m 17,7 km/h (3 Bft) S-SW 202 0 min 0,0 UV-I 0 W/m 5,3 C -0,1 C 29,0 km/h (5 Bft)
06.01.2023 05:24 6,8 C 6,1 C 91 % 1020,9 hPa 0,0 l/m 20,9 km/h (4 Bft) S-SW 202 0 min 0,0 UV-I 0 W/m 5,4 C -1,2 C 25,7 km/h (4 Bft)
06.01.2023 05:25 6,7 C 6,1 C 91 % 1020,9 hPa 0,0 l/m 20,9 km/h (4 Bft) S-SW 202 0 min 0,0 UV-I 0 W/m 5,3 C -1,3 C 29,0 km/h (5 Bft)
06.01.2023 05:26 6,7 C 6,1 C 91 % 1020,9 hPa 0,0 l/m 16,1 km/h (3 Bft) S-SW 202 0 min 0,0 UV-I 0 W/m 5,3 C 0,6 C 25,7 km/h (4 Bft)
06.01.2023 05:27 6,7 C 6,1 C 91 % 1020,8 hPa 0,0 l/m 16,1 km/h (3 Bft) S-SW 202 0 min 0,0 UV-I 0 W/m 5,3 C 0,6 C 22,5 km/h (4 Bft)
06.01.2023 05:28 6,7 C 6,1 C 91 % 1020,8 hPa 0,0 l/m 14,5 km/h (3 Bft) S-SW 202 0 min 0,0 UV-I 0 W/m 5,3 C 1,4 C 17,7 km/h (3 Bft)
06.01.2023 05:29 6,7 C 6,1 C 91 % 1020,9 hPa 0,0 l/m 17,7 km/h (3 Bft) S-SW 202 0 min 0,0 UV-I 0 W/m 5,3 C -0,1 C 30,6 km/h (5 Bft)
06.01.2023 05:30 6,7 C 6,1 C 91 % 1020,9 hPa 0,0 l/m 12,9 km/h (3 Bft) S-SW 202 0 min 0,0 UV-I 0 W/m 5,3 C 2,2 C 17,7 km/h (3 Bft)
06.01.2023 05:31 6,7 C 6,1 C 91 % 1020,9 hPa 0,0 l/m 11,3 km/h (2 Bft) S 180 0 min 0,0 UV-I 0 W/m 5,3 C 3,1 C 16,1 km/h (3 Bft)
06.01.2023 05:32 6,7 C 6,1 C 91 % 1020,7 hPa 0,0 l/m 16,1 km/h (3 Bft) S 180 0 min 0,0 UV-I 0 W/m 5,3 C 0,6 C 22,5 km/h (4 Bft)
06.01.2023 05:33 6,7 C 6,1 C 91 % 1020,7 hPa 0,0 l/m 14,5 km/h (3 Bft) S 180 0 min 0,0 UV-I 0 W/m 5,3 C 1,4 C 19,3 km/h (3 Bft)
06.01.2023 05:34 6,7 C 6,1 C 90 % 1020,6 hPa 0,0 l/m 17,7 km/h (3 Bft) S 180 0 min 0,0 UV-I 0 W/m 5,2 C -0,1 C 22,5 km/h (4 Bft)
06.01.2023 05:35 6,7 C 6,1 C 90 % 1020,7 hPa 0,0 l/m 16,1 km/h (3 Bft) S-SW 202 0 min 0,0 UV-I 0 W/m 5,2 C 0,6 C 22,5 km/h (4 Bft)
06.01.2023 05:36 6,7 C 6,1 C 90 % 1020,8 hPa 0,0 l/m 19,3 km/h (3 Bft) S 180 0 min 0,0 UV-I 0 W/m 5,2 C -0,7 C 25,7 km/h (4 Bft)
06.01.2023 05:37 6,7 C 6,1 C 90 % 1020,8 hPa 0,0 l/m 17,7 km/h (3 Bft) S-SW 202 0 min 0,0 UV-I 0 W/m 5,2 C -0,1 C 22,5 km/h (4 Bft)
06.01.2023 05:38 6,7 C 6,1 C 90 % 1020,8 hPa 0,0 l/m 17,7 km/h (3 Bft) S 180 0 min 0,0 UV-I 0 W/m 5,2 C -0,1 C 30,6 km/h (5 Bft)
06.01.2023 05:39 6,7 C 6,1 C 90 % 1020,7 hPa 0,0 l/m 16,1 km/h (3 Bft) S-SW 202 0 min 0,0 UV-I 0 W/m 5,2 C 0,6 C 19,3 km/h (3 Bft)
06.01.2023 05:40 6,7 C 6,1 C 90 % 1020,8 hPa 0,0 l/m 16,1 km/h (3 Bft) S 180 0 min 0,0 UV-I 0 W/m 5,2 C 0,6 C 24,1 km/h (4 Bft)
06.01.2023 05:41 6,7 C 6,1 C 90 % 1020,9 hPa 0,0 l/m 14,5 km/h (3 Bft) S-SW 202 0 min 0,0 UV-I 0 W/m 5,2 C 1,4 C 19,3 km/h (3 Bft)
06.01.2023 05:42 6,7 C 6,1 C 90 % 1020,9 hPa 0,0 l/m 14,5 km/h (3 Bft) S-SW 202 0 min 0,0 UV-I 0 W/m 5,2 C 1,4 C 19,3 km/h (3 Bft)
06.01.2023 05:43 6,7 C 6,1 C 90 % 1020,9 hPa 0,0 l/m 19,3 km/h (3 Bft) S-SW 202 0 min 0,0 UV-I 0 W/m 5,2 C -0,7 C 25,7 km/h (4 Bft)
06.01.2023 05:44 6,7 C 6,1 C 90 % 1020,9 hPa 0,0 l/m 17,7 km/h (3 Bft) S-SW 202 0 min 0,0 UV-I 0 W/m 5,2 C -0,1 C 22,5 km/h (4 Bft)
06.01.2023 05:45 6,7 C 6,1 C 90 % 1020,9 hPa 0,0 l/m 14,5 km/h (3 Bft) S-SW 202 0 min 0,0 UV-I 0 W/m 5,2 C 1,4 C 24,1 km/h (4 Bft)
06.01.2023 05:46 6,7 C 6,1 C 90 % 1020,9 hPa 0,0 l/m 14,5 km/h (3 Bft) S-SW 202 0 min 0,0 UV-I 0 W/m 5,2 C 1,4 C 17,7 km/h (3 Bft)
06.01.2023 05:47 6,7 C 6,1 C 90 % 1020,9 hPa 0,0 l/m 14,5 km/h (3 Bft) S-SW 202 0 min 0,0 UV-I 0 W/m 5,2 C 1,4 C 22,5 km/h (4 Bft)
06.01.2023 05:48 6,7 C 6,1 C 90 % 1020,9 hPa 0,0 l/m 14,5 km/h (3 Bft) S-SW 202 0 min 0,0 UV-I 0 W/m 5,2 C 1,4 C 20,9 km/h (4 Bft)
06.01.2023 05:49 6,7 C 6,1 C 90 % 1020,8 hPa 0,0 l/m 14,5 km/h (3 Bft) S-SW 202 0 min 0,0 UV-I 0 W/m 5,2 C 1,4 C 17,7 km/h (3 Bft)
06.01.2023 05:50 6,7 C 6,1 C 90 % 1020,9 hPa 0,0 l/m 17,7 km/h (3 Bft) S-SW 202 0 min 0,0 UV-I 0 W/m 5,2 C -0,1 C 29,0 km/h (5 Bft)
06.01.2023 05:51 6,7 C 6,1 C 90 % 1020,8 hPa 0,0 l/m 19,3 km/h (3 Bft) S-SW 202 0 min 0,0 UV-I 0 W/m 5,2 C -0,7 C 25,7 km/h (4 Bft)
06.01.2023 05:52 6,7 C 6,1 C 90 % 1020,8 hPa 0,0 l/m 19,3 km/h (3 Bft) S-SW 202 0 min 0,0 UV-I 0 W/m 5,2 C -0,7 C 29,0 km/h (5 Bft)
06.01.2023 05:53 6,7 C 6,1 C 90 % 1020,7 hPa 0,0 l/m 16,1 km/h (3 Bft) S 180 0 min 0,0 UV-I 0 W/m 5,2 C 0,6 C 22,5 km/h (4 Bft)
06.01.2023 05:54 6,7 C 6,1 C 90 % 1020,6 hPa 0,0 l/m 19,3 km/h (3 Bft) S-SW 202 0 min 0,0 UV-I 0 W/m 5,2 C -0,7 C 24,1 km/h (4 Bft)
06.01.2023 05:55 6,7 C 6,1 C 90 % 1020,6 hPa 0,0 l/m 19,3 km/h (3 Bft) S 180 0 min 0,0 UV-I 0 W/m 5,2 C -0,7 C 27,4 km/h (4 Bft)
06.01.2023 05:56 6,8 C 6,1 C 90 % 1020,7 hPa 0,0 l/m 17,7 km/h (3 Bft) S 180 0 min 0,0 UV-I 0 W/m 5,3 C 0,1 C 22,5 km/h (4 Bft)
06.01.2023 05:57 6,7 C 6,1 C 90 % 1020,6 hPa 0,0 l/m 17,7 km/h (3 Bft) S 180 0 min 0,0 UV-I 0 W/m 5,2 C -0,1 C 24,1 km/h (4 Bft)
06.01.2023 05:58 6,8 C 6,1 C 90 % 1020,5 hPa 0,0 l/m 17,7 km/h (3 Bft) S 180 0 min 0,0 UV-I 0 W/m 5,3 C 0,1 C 24,1 km/h (4 Bft)
06.01.2023 05:59 6,8 C 6,1 C 90 % 1020,6 hPa 0,0 l/m 19,3 km/h (3 Bft) S 180 0 min 0,0 UV-I 0 W/m 5,3 C -0,6 C 24,1 km/h (4 Bft)
06.01.2023 06:00 6,8 C 6,1 C 89 % 1020,6 hPa 0,0 l/m 16,1 km/h (3 Bft) S-SW 202 0 min 0,0 UV-I 0 W/m 5,1 C 0,7 C 19,3 km/h (3 Bft)
06.01.2023 06:01 6,8 C 6,1 C 89 % 1020,7 hPa 0,0 l/m 14,5 km/h (3 Bft) S-SW 202 0 min 0,0 UV-I 0 W/m 5,1 C 1,5 C 22,5 km/h (4 Bft)
06.01.2023 06:02 6,8 C 6,1 C 89 % 1020,7 hPa 0,0 l/m 14,5 km/h (3 Bft) S 180 0 min 0,0 UV-I 0 W/m 5,1 C 1,5 C 27,4 km/h (4 Bft)
06.01.2023 06:03 6,8 C 6,1 C 89 % 1020,6 hPa 0,0 l/m 19,3 km/h (3 Bft) S 180 0 min 0,0 UV-I 0 W/m 5,1 C -0,6 C 25,7 km/h (4 Bft)
06.01.2023 06:04 6,8 C 6,1 C 89 % 1020,6 hPa 0,0 l/m 17,7 km/h (3 Bft) S 180 0 min 0,0 UV-I 0 W/m 5,1 C 0,1 C 25,7 km/h (4 Bft)
06.01.2023 06:05 6,8 C 6,1 C 89 % 1020,6 hPa 0,0 l/m 14,5 km/h (3 Bft) S-SW 202 0 min 0,0 UV-I 0 W/m 5,1 C 1,5 C 19,3 km/h (3 Bft)
06.01.2023 06:06 6,8 C 6,1 C 89 % 1020,6 hPa 0,0 l/m 16,1 km/h (3 Bft) S 180 0 min 0,0 UV-I 0 W/m 5,1 C 0,7 C 20,9 km/h (4 Bft)
06.01.2023 06:07 6,8 C 6,1 C 89 % 1020,8 hPa 0,0 l/m 16,1 km/h (3 Bft) S-SW 202 0 min 0,0 UV-I 0 W/m 5,1 C 0,7 C 22,5 km/h (4 Bft)
06.01.2023 06:08 6,8 C 6,1 C 89 % 1020,7 hPa 0,0 l/m 16,1 km/h (3 Bft) S 180 0 min 0,0 UV-I 0 W/m 5,1 C 0,7 C 22,5 km/h (4 Bft)
06.01.2023 06:09 6,7 C 6,1 C 89 % 1020,7 hPa 0,0 l/m 20,9 km/h (4 Bft) S-SW 202 0 min 0,0 UV-I 0 W/m 5,0 C -1,3 C 24,1 km/h (4 Bft)
06.01.2023 06:10 6,7 C 6,1 C 89 % 1020,7 hPa 0,0 l/m 16,1 km/h (3 Bft) S 180 0 min 0,0 UV-I 0 W/m 5,0 C 0,6 C 24,1 km/h (4 Bft)
06.01.2023 06:11 6,7 C 6,1 C 89 % 1020,7 hPa 0,0 l/m 11,3 km/h (2 Bft) S-SW 202 0 min 0,0 UV-I 0 W/m 5,0 C 3,1 C 17,7 km/h (3 Bft)
06.01.2023 06:12 6,7 C 6,1 C 89 % 1020,7 hPa 0,0 l/m 16,1 km/h (3 Bft) S-SW 202 0 min 0,0 UV-I 0 W/m 5,0 C 0,6 C 22,5 km/h (4 Bft)
06.01.2023 06:13 6,7 C 6,1 C 89 % 1020,7 hPa 0,0 l/m 19,3 km/h (3 Bft) S-SW 202 0 min 0,0 UV-I 0 W/m 5,0 C -0,7 C 30,6 km/h (5 Bft)
06.01.2023 06:14 6,7 C 6,1 C 89 % 1020,6 hPa 0,0 l/m 19,3 km/h (3 Bft) S-SW 202 0 min 0,0 UV-I 0 W/m 5,0 C -0,7 C 27,4 km/h (4 Bft)
06.01.2023 06:15 6,7 C 6,1 C 89 % 1020,7 hPa 0,0 l/m 16,1 km/h (3 Bft) S-SW 202 0 min 0,0 UV-I 0 W/m 5,0 C 0,6 C 20,9 km/h (4 Bft)
06.01.2023 06:16 6,7 C 6,1 C 89 % 1020,7 hPa 0,0 l/m 12,9 km/h (3 Bft) S 180 0 min 0,0 UV-I 0 W/m 5,0 C 2,2 C 20,9 km/h (4 Bft)
06.01.2023 06:17 6,7 C 6,1 C 89 % 1020,6 hPa 0,0 l/m 12,9 km/h (3 Bft) S 180 0 min 0,0 UV-I 0 W/m 5,0 C 2,2 C 16,1 km/h (3 Bft)
06.01.2023 06:18 6,7 C 6,1 C 89 % 1020,7 hPa 0,0 l/m 12,9 km/h (3 Bft) S-SW 202 0 min 0,0 UV-I 0 W/m 5,0 C 2,2 C 22,5 km/h (4 Bft)
06.01.2023 06:19 6,7 C 6,1 C 89 % 1020,6 hPa 0,0 l/m 19,3 km/h (3 Bft) S 180 0 min 0,0 UV-I 0 W/m 5,0 C -0,7 C 29,0 km/h (5 Bft)
06.01.2023 06:20 6,7 C 6,1 C 89 % 1020,6 hPa 0,0 l/m 20,9 km/h (4 Bft) S 180 0 min 0,0 UV-I 0 W/m 5,0 C -1,3 C 29,0 km/h (5 Bft)
06.01.2023 06:21 6,7 C 6,1 C 89 % 1020,5 hPa 0,0 l/m 14,5 km/h (3 Bft) S 180 0 min 0,0 UV-I 0 W/m 5,0 C 1,4 C 17,7 km/h (3 Bft)
06.01.2023 06:22 6,7 C 6,1 C 89 % 1020,7 hPa 0,0 l/m 16,1 km/h (3 Bft) S-SW 202 0 min 0,0 UV-I 0 W/m 5,0 C 0,6 C 22,5 km/h (4 Bft)
06.01.2023 06:23 6,7 C 6,1 C 89 % 1020,5 hPa 0,0 l/m 14,5 km/h (3 Bft) S 180 0 min 0,0 UV-I 0 W/m 5,0 C 1,4 C 19,3 km/h (3 Bft)
06.01.2023 06:24 6,7 C 6,1 C 89 % 1020,5 hPa 0,0 l/m 14,5 km/h (3 Bft) S 180 0 min 0,0 UV-I 0 W/m 5,0 C 1,4 C 20,9 km/h (4 Bft)
06.01.2023 06:25 6,7 C 6,1 C 89 % 1020,6 hPa 0,0 l/m 16,1 km/h (3 Bft) S 180 0 min 0,0 UV-I 0 W/m 5,0 C 0,6 C 25,7 km/h (4 Bft)
06.01.2023 06:26 6,7 C 6,1 C 89 % 1020,6 hPa 0,0 l/m 14,5 km/h (3 Bft) S-SW 202 0 min 0,0 UV-I 0 W/m 5,0 C 1,4 C 20,9 km/h (4 Bft)
06.01.2023 06:27 6,7 C 6,1 C 89 % 1020,6 hPa 0,0 l/m 17,7 km/h (3 Bft) S-SW 202 0 min 0,0 UV-I 0 W/m 5,0 C -0,1 C 27,4 km/h (4 Bft)
06.01.2023 06:28 6,7 C 6,1 C 89 % 1020,6 hPa 0,0 l/m 16,1 km/h (3 Bft) S-SW 202 0 min 0,0 UV-I 0 W/m 5,0 C 0,6 C 27,4 km/h (4 Bft)
06.01.2023 06:29 6,7 C 6,1 C 89 % 1020,5 hPa 0,0 l/m 20,9 km/h (4 Bft) S-SW 202 0 min 0,0 UV-I 0 W/m 5,0 C -1,3 C 27,4 km/h (4 Bft)
06.01.2023 06:30 6,7 C 6,1 C 89 % 1020,6 hPa 0,0 l/m 17,7 km/h (3 Bft) S 180 0 min 0,0 UV-I 0 W/m 5,0 C -0,1 C 27,4 km/h (4 Bft)
06.01.2023 06:31 6,7 C 6,1 C 89 % 1020,6 hPa 0,0 l/m 19,3 km/h (3 Bft) S-SW 202 0 min 0,0 UV-I 0 W/m 5,0 C -0,7 C 25,7 km/h (4 Bft)
06.01.2023 06:32 6,7 C 6,1 C 89 % 1020,7 hPa 0,0 l/m 14,5 km/h (3 Bft) S 180 0 min 0,0 UV-I 0 W/m 5,0 C 1,4 C 20,9 km/h (4 Bft)
06.01.2023 06:33 6,7 C 6,1 C 89 % 1020,6 hPa 0,0 l/m 16,1 km/h (3 Bft) S 180 0 min 0,0 UV-I 0 W/m 5,0 C 0,6 C 20,9 km/h (4 Bft)
06.01.2023 06:34 6,7 C 6,1 C 89 % 1020,7 hPa 0,0 l/m 17,7 km/h (3 Bft) S-SW 202 0 min 0,0 UV-I 0 W/m 5,0 C -0,1 C 20,9 km/h (4 Bft)
06.01.2023 06:35 6,7 C 6,1 C 89 % 1020,7 hPa 0,0 l/m 16,1 km/h (3 Bft) S-SW 202 0 min 0,0 UV-I 0 W/m 5,0 C 0,6 C 19,3 km/h (3 Bft)
06.01.2023 06:36 6,7 C 6,1 C 89 % 1020,7 hPa 0,0 l/m 17,7 km/h (3 Bft) S-SW 202 0 min 0,0 UV-I 0 W/m 5,0 C -0,1 C 25,7 km/h (4 Bft)
06.01.2023 06:37 6,7 C 6,1 C 89 % 1020,6 hPa 0,0 l/m 14,5 km/h (3 Bft) S-SW 202 0 min 0,0 UV-I 0 W/m 5,0 C 1,4 C 19,3 km/h (3 Bft)
06.01.2023 06:38 6,8 C 6,1 C 89 % 1020,7 hPa 0,0 l/m 17,7 km/h (3 Bft) S-SW 202 0 min 0,0 UV-I 0 W/m 5,1 C 0,1 C 22,5 km/h (4 Bft)
06.01.2023 06:39 6,8 C 6,1 C 89 % 1020,6 hPa 0,0 l/m 14,5 km/h (3 Bft) S-SW 202 0 min 0,0 UV-I 0 W/m 5,1 C 1,5 C 22,5 km/h (4 Bft)
06.01.2023 06:40 6,7 C 6,1 C 89 % 1020,7 hPa 0,0 l/m 14,5 km/h (3 Bft) S 180 0 min 0,0 UV-I 0 W/m 5,0 C 1,4 C 19,3 km/h (3 Bft)
06.01.2023 06:41 6,7 C 6,1 C 89 % 1020,7 hPa 0,0 l/m 11,3 km/h (2 Bft) S 180 0 min 0,0 UV-I 0 W/m 5,0 C 3,1 C 14,5 km/h (3 Bft)
06.01.2023 06:42 6,8 C 6,1 C 89 % 1020,7 hPa 0,0 l/m 12,9 km/h (3 Bft) S-SW 202 0 min 0,0 UV-I 0 W/m 5,1 C 2,3 C 17,7 km/h (3 Bft)
06.01.2023 06:43 6,7 C 6,1 C 89 % 1020,8 hPa 0,0 l/m 12,9 km/h (3 Bft) S-SW 202 0 min 0,0 UV-I 0 W/m 5,0 C 2,2 C 16,1 km/h (3 Bft)
06.01.2023 06:44 6,7 C 6,1 C 89 % 1020,7 hPa 0,0 l/m 12,9 km/h (3 Bft) S-SW 202 0 min 0,0 UV-I 0 W/m 5,0 C 2,2 C 24,1 km/h (4 Bft)
06.01.2023 06:45 6,7 C 6,1 C 89 % 1020,7 hPa 0,0 l/m 19,3 km/h (3 Bft) S-SW 202 0 min 0,0 UV-I 0 W/m 5,0 C -0,7 C 24,1 km/h (4 Bft)
06.01.2023 06:46 6,7 C 6,1 C 89 % 1020,6 hPa 0,0 l/m 14,5 km/h (3 Bft) S 180 0 min 0,0 UV-I 0 W/m 5,0 C 1,4 C 22,5 km/h (4 Bft)
06.01.2023 06:47 6,7 C 6,1 C 89 % 1020,6 hPa 0,0 l/m 12,9 km/h (3 Bft) S-SW 202 0 min 0,0 UV-I 0 W/m 5,0 C 2,2 C 17,7 km/h (3 Bft)
06.01.2023 06:48 6,7 C 6,1 C 89 % 1020,7 hPa 0,0 l/m 16,1 km/h (3 Bft) S-SW 202 0 min 0,0 UV-I 0 W/m 5,0 C 0,6 C 20,9 km/h (4 Bft)
06.01.2023 06:49 6,8 C 6,1 C 89 % 1020,7 hPa 0,0 l/m 12,9 km/h (3 Bft) S 180 0 min 0,0 UV-I 0 W/m 5,1 C 2,3 C 19,3 km/h (3 Bft)
06.01.2023 06:50 6,8 C 6,1 C 89 % 1020,5 hPa 0,0 l/m 14,5 km/h (3 Bft) S-SW 202 0 min 0,0 UV-I 0 W/m 5,1 C 1,5 C 20,9 km/h (4 Bft)
06.01.2023 06:51 6,7 C 6,1 C 89 % 1020,6 hPa 0,0 l/m 12,9 km/h (3 Bft) S 180 0 min 0,0 UV-I 0 W/m 5,0 C 2,2 C 17,7 km/h (3 Bft)
06.01.2023 06:52 6,7 C 6,1 C 89 % 1020,5 hPa 0,0 l/m 17,7 km/h (3 Bft) S 180 0 min 0,0 UV-I 0 W/m 5,0 C -0,1 C 24,1 km/h (4 Bft)
06.01.2023 06:53 6,7 C 6,1 C 89 % 1020,6 hPa 0,0 l/m 16,1 km/h (3 Bft) S-SW 202 0 min 0,0 UV-I 0 W/m 5,0 C 0,6 C 22,5 km/h (4 Bft)
06.01.2023 06:54 6,7 C 6,1 C 89 % 1020,5 hPa 0,0 l/m 17,7 km/h (3 Bft) S-SW 202 0 min 0,0 UV-I 0 W/m 5,0 C -0,1 C 22,5 km/h (4 Bft)
06.01.2023 06:55 6,7 C 6,1 C 90 % 1020,5 hPa 0,0 l/m 16,1 km/h (3 Bft) S 180 0 min 0,0 UV-I 0 W/m 5,2 C 0,6 C 25,7 km/h (4 Bft)
06.01.2023 06:56 6,7 C 6,1 C 90 % 1020,5 hPa 0,0 l/m 16,1 km/h (3 Bft) S-SW 202 0 min 0,0 UV-I 0 W/m 5,2 C 0,6 C 27,4 km/h (4 Bft)
06.01.2023 06:57 6,7 C 6,1 C 90 % 1020,5 hPa 0,0 l/m 14,5 km/h (3 Bft) S 180 0 min 0,0 UV-I 0 W/m 5,2 C 1,4 C 22,5 km/h (4 Bft)
06.01.2023 06:58 6,7 C 6,1 C 90 % 1020,6 hPa 0,0 l/m 16,1 km/h (3 Bft) S-SW 202 0 min 0,0 UV-I 0 W/m 5,2 C 0,6 C 20,9 km/h (4 Bft)
06.01.2023 06:59 6,7 C 6,1 C 90 % 1020,6 hPa 0,0 l/m 17,7 km/h (3 Bft) S 180 0 min 0,0 UV-I 0 W/m 5,2 C -0,1 C 22,5 km/h (4 Bft)
06.01.2023 07:00 6,7 C 6,1 C 90 % 1020,6 hPa 0,0 l/m 16,1 km/h (3 Bft) S 180 0 min 0,0 UV-I 0 W/m 5,2 C 0,6 C 24,1 km/h (4 Bft)
06.01.2023 07:01 6,7 C 6,1 C 90 % 1020,5 hPa 0,0 l/m 16,1 km/h (3 Bft) S 180 0 min 0,0 UV-I 0 W/m 5,2 C 0,6 C 20,9 km/h (4 Bft)
06.01.2023 07:02 6,8 C 6,1 C 90 % 1020,4 hPa 0,0 l/m 17,7 km/h (3 Bft) S 180 0 min 0,0 UV-I 0 W/m 5,3 C 0,1 C 25,7 km/h (4 Bft)
06.01.2023 07:03 6,7 C 6,1 C 90 % 1020,6 hPa 0,0 l/m 17,7 km/h (3 Bft) S-SW 202 0 min 0,0 UV-I 0 W/m 5,2 C -0,1 C 22,5 km/h (4 Bft)
06.01.2023 07:04 6,7 C 6,1 C 90 % 1020,6 hPa 0,0 l/m 14,5 km/h (3 Bft) S-SW 202 0 min 0,0 UV-I 0 W/m 5,2 C 1,4 C 22,5 km/h (4 Bft)
06.01.2023 07:05 6,7 C 6,1 C 90 % 1020,5 hPa 0,0 l/m 19,3 km/h (3 Bft) S 180 0 min 0,0 UV-I 0 W/m 5,2 C -0,7 C 25,7 km/h (4 Bft)
06.01.2023 07:06 6,7 C 6,1 C 90 % 1020,7 hPa 0,0 l/m 16,1 km/h (3 Bft) S-SW 202 0 min 0,0 UV-I 0 W/m 5,2 C 0,6 C 20,9 km/h (4 Bft)
06.01.2023 07:07 6,7 C 6,1 C 90 % 1020,6 hPa 0,0 l/m 11,3 km/h (2 Bft) S 180 0 min 0,0 UV-I 0 W/m 5,2 C 3,1 C 17,7 km/h (3 Bft)
06.01.2023 07:08 6,7 C 6,1 C 90 % 1020,6 hPa 0,0 l/m 12,9 km/h (3 Bft) S-SW 202 0 min 0,0 UV-I 0 W/m 5,2 C 2,2 C 19,3 km/h (3 Bft)
06.01.2023 07:09 6,7 C 6,1 C 90 % 1020,6 hPa 0,0 l/m 12,9 km/h (3 Bft) S-SW 202 0 min 0,0 UV-I 0 W/m 5,2 C 2,2 C 17,7 km/h (3 Bft)
06.01.2023 07:10 6,7 C 6,1 C 90 % 1020,7 hPa 0,0 l/m 14,5 km/h (3 Bft) S-SW 202 0 min 0,0 UV-I 0 W/m 5,2 C 1,4 C 22,5 km/h (4 Bft)
06.01.2023 07:11 6,7 C 6,1 C 90 % 1020,7 hPa 0,0 l/m 16,1 km/h (3 Bft) S-SW 202 0 min 0,0 UV-I 0 W/m 5,2 C 0,6 C 22,5 km/h (4 Bft)
06.01.2023 07:12 6,7 C 6,1 C 90 % 1020,8 hPa 0,0 l/m 16,1 km/h (3 Bft) S-SW 202 0 min 0,0 UV-I 0 W/m 5,2 C 0,6 C 22,5 km/h (4 Bft)
06.01.2023 07:13 6,7 C 6,1 C 90 % 1020,8 hPa 0,0 l/m 12,9 km/h (3 Bft) S-SW 202 0 min 0,0 UV-I 0 W/m 5,2 C 2,2 C 17,7 km/h (3 Bft)
06.01.2023 07:14 6,7 C 6,1 C 90 % 1020,8 hPa 0,0 l/m 11,3 km/h (2 Bft) S-SW 202 0 min 0,0 UV-I 0 W/m 5,2 C 3,1 C 16,1 km/h (3 Bft)
06.01.2023 07:15 6,7 C 6,1 C 90 % 1020,8 hPa 0,0 l/m 12,9 km/h (3 Bft) S-SW 202 0 min 0,0 UV-I 0 W/m 5,2 C 2,2 C 17,7 km/h (3 Bft)
06.01.2023 07:16 6,7 C 6,1 C 90 % 1020,7 hPa 0,0 l/m 14,5 km/h (3 Bft) SW 225 0 min 0,0 UV-I 0 W/m 5,2 C 1,4 C 22,5 km/h (4 Bft)
06.01.2023 07:17 6,7 C 6,1 C 90 % 1020,8 hPa 0,0 l/m 14,5 km/h (3 Bft) S-SW 202 0 min 0,0 UV-I 0 W/m 5,2 C 1,4 C 22,5 km/h (4 Bft)
06.01.2023 07:18 6,7 C 6,1 C 90 % 1020,7 hPa 0,0 l/m 9,7 km/h (2 Bft) S-SW 202 0 min 0,0 UV-I 0 W/m 5,2 C 4,2 C 12,9 km/h (3 Bft)
06.01.2023 07:19 6,8 C 6,1 C 90 % 1020,9 hPa 0,0 l/m 12,9 km/h (3 Bft) S-SW 202 0 min 0,0 UV-I 0 W/m 5,3 C 2,3 C 17,7 km/h (3 Bft)
06.01.2023 07:20 6,7 C 6,1 C 90 % 1020,9 hPa 0,0 l/m 9,7 km/h (2 Bft) S-SW 202 0 min 0,0 UV-I 0 W/m 5,2 C 4,2 C 12,9 km/h (3 Bft)
06.01.2023 07:21 6,8 C 6,1 C 90 % 1020,9 hPa 0,0 l/m 11,3 km/h (2 Bft) SW 225 0 min 0,0 UV-I 0 W/m 5,3 C 3,2 C 14,5 km/h (3 Bft)
06.01.2023 07:22 6,8 C 6,1 C 90 % 1020,8 hPa 0,0 l/m 14,5 km/h (3 Bft) S-SW 202 0 min 0,0 UV-I 0 W/m 5,3 C 1,5 C 17,7 km/h (3 Bft)
06.01.2023 07:23 6,7 C 6,1 C 90 % 1020,9 hPa 0,0 l/m 14,5 km/h (3 Bft) S-SW 202 0 min 0,0 UV-I 0 W/m 5,2 C 1,4 C 17,7 km/h (3 Bft)
06.01.2023 07:24 6,7 C 6,1 C 90 % 1020,8 hPa 0,0 l/m 12,9 km/h (3 Bft) S-SW 202 0 min 0,0 UV-I 0 W/m 5,2 C 2,2 C 19,3 km/h (3 Bft)
06.01.2023 07:27 6,7 C 6,1 C 90 % 1020,8 hPa 0,0 l/m 15,5 km/h (3 Bft) S-SW 197 0 min 0,0 UV-I 0 W/m 5,2 C 0,9 C 19,3 km/h (3 Bft)
06.01.2023 07:30 6,7 C 6,1 C 90 % 1020,8 hPa 0,0 l/m 15,2 km/h (3 Bft) S-SW 198 0 min 0,0 UV-I 0 W/m 5,2 C 1,0 C 24,1 km/h (4 Bft)
06.01.2023 07:33 6,8 C 6,1 C 90 % 1020,7 hPa 0,0 l/m 17,7 km/h (3 Bft) S-SW 192 0 min 0,0 UV-I 0 W/m 5,3 C 0,1 C 29,0 km/h (5 Bft)
06.01.2023 07:36 6,7 C 6,1 C 90 % 1020,8 hPa 0,0 l/m 20,1 km/h (4 Bft) S 188 0 min 0,0 UV-I 0 W/m 5,2 C -1,0 C 30,6 km/h (5 Bft)
06.01.2023 07:39 6,8 C 6,1 C 90 % 1020,8 hPa 0,0 l/m 18,4 km/h (3 Bft) S 186 0 min 0,0 UV-I 0 W/m 5,3 C -0,2 C 29,0 km/h (5 Bft)
06.01.2023 07:42 6,8 C 6,1 C 91 % 1020,9 hPa 0,0 l/m 15,3 km/h (3 Bft) S 178 0 min 0,0 UV-I 0 W/m 5,4 C 1,1 C 22,5 km/h (4 Bft)
06.01.2023 07:45 6,8 C 6,1 C 90 % 1020,9 hPa 0,0 l/m 15,2 km/h (3 Bft) S 190 0 min 0,0 UV-I 0 W/m 5,3 C 1,2 C 24,1 km/h (4 Bft)
06.01.2023 07:48 6,8 C 6,1 C 91 % 1020,9 hPa 0,0 l/m 13,1 km/h (3 Bft) S 183 0 min 0,0 UV-I 0 W/m 5,4 C 2,2 C 19,3 km/h (3 Bft)
06.01.2023 07:51 6,8 C 6,1 C 91 % 1020,9 hPa 0,0 l/m 13,0 km/h (3 Bft) S-SW 201 0 min 0,0 UV-I 0 W/m 5,4 C 2,3 C 19,3 km/h (3 Bft)
06.01.2023 07:54 6,7 C 6,1 C 91 % 1020,8 hPa 0,0 l/m 15,3 km/h (3 Bft) S 175 0 min 0,0 UV-I 0 W/m 5,3 C 1,0 C 22,5 km/h (4 Bft)
06.01.2023 07:57 6,8 C 6,1 C 91 % 1020,9 hPa 0,0 l/m 15,5 km/h (3 Bft) S-SW 195 0 min 0,0 UV-I 0 W/m 5,4 C 1,0 C 25,7 km/h (4 Bft)
06.01.2023 08:00 6,8 C 6,1 C 91 % 1020,8 hPa 0,0 l/m 16,8 km/h (3 Bft) S-SW 192 0 min 0,0 UV-I 0 W/m 5,4 C 0,4 C 29,0 km/h (5 Bft)
06.01.2023 08:03 6,8 C 6,1 C 91 % 1020,9 hPa 0,0 l/m 16,8 km/h (3 Bft) S 173 0 min 0,0 UV-I 0 W/m 5,4 C 0,4 C 29,0 km/h (5 Bft)
06.01.2023 08:06 6,8 C 6,1 C 91 % 1020,9 hPa 0,0 l/m 14,7 km/h (3 Bft) S 184 0 min 0,0 UV-I 0 W/m 5,4 C 1,4 C 29,0 km/h (5 Bft)
06.01.2023 08:09 6,8 C 6,1 C 91 % 1020,8 hPa 0,0 l/m 17,1 km/h (3 Bft) S-SW 193 0 min 0,0 UV-I 0 W/m 5,4 C 0,3 C 29,0 km/h (5 Bft)
06.01.2023 08:12 6,8 C 6,1 C 91 % 1020,8 hPa 0,0 l/m 20,4 km/h (4 Bft) S-SW 198 0 min 0,0 UV-I 0 W/m 5,4 C -1,0 C 30,6 km/h (5 Bft)
06.01.2023 08:15 6,8 C 6,1 C 91 % 1020,9 hPa 0,0 l/m 18,5 km/h (3 Bft) S-SW 200 0 min 0,0 UV-I 0 W/m 5,4 C -0,3 C 33,8 km/h (5 Bft)
06.01.2023 08:18 6,8 C 6,1 C 91 % 1020,8 hPa 0,0 l/m 16,8 km/h (3 Bft) S 169 0 min 0,0 UV-I 0 W/m 5,4 C 0,4 C 27,4 km/h (4 Bft)
06.01.2023 08:21 6,8 C 6,1 C 91 % 1020,9 hPa 0,0 l/m 17,4 km/h (3 Bft) S 190 0 min 0,0 UV-I 0 W/m 5,4 C 0,2 C 33,8 km/h (5 Bft)
06.01.2023 08:24 6,8 C 6,1 C 91 % 1021,0 hPa 0,0 l/m 16,5 km/h (3 Bft) S-SW 205 0 min 0,0 UV-I 0 W/m 5,4 C 0,6 C 24,1 km/h (4 Bft)
06.01.2023 08:27 6,8 C 6,1 C 91 % 1021,0 hPa 0,0 l/m 19,3 km/h (3 Bft) S 172 0 min 0,0 UV-I 0 W/m 5,4 C -0,6 C 35,4 km/h (5 Bft)
06.01.2023 08:30 6,8 C 6,1 C 92 % 1020,9 hPa 0,0 l/m 13,7 km/h (3 Bft) S 179 0 min 0,0 UV-I 0 W/m 5,6 C 1,9 C 25,7 km/h (4 Bft)
06.01.2023 08:33 6,8 C 6,1 C 92 % 1020,9 hPa 0,0 l/m 18,2 km/h (3 Bft) S-SW 197 0 min 0,0 UV-I 0 W/m 5,6 C -0,2 C 27,4 km/h (4 Bft)
06.01.2023 08:36 6,8 C 6,1 C 92 % 1021,0 hPa 0,0 l/m 18,3 km/h (3 Bft) SW 225 0 min 0,0 UV-I 0 W/m 5,6 C -0,2 C 25,7 km/h (4 Bft)
06.01.2023 08:39 6,8 C 6,1 C 92 % 1020,9 hPa 0,0 l/m 18,3 km/h (3 Bft) S 177 0 min 0,0 UV-I 0 W/m 5,6 C -0,2 C 29,0 km/h (5 Bft)
06.01.2023 08:42 6,8 C 6,1 C 92 % 1020,9 hPa 0,0 l/m 18,0 km/h (3 Bft) S 173 0 min 0,0 UV-I 0 W/m 5,6 C -0,1 C 30,6 km/h (5 Bft)
06.01.2023 08:45 6,8 C 6,1 C 92 % 1021,0 hPa 0,0 l/m 13,2 km/h (3 Bft) S-SO 162 0 min 0,0 UV-I 0 W/m 5,6 C 2,2 C 19,3 km/h (3 Bft)
06.01.2023 08:48 6,8 C 6,1 C 92 % 1020,8 hPa 0,0 l/m 15,5 km/h (3 Bft) S 186 0 min 0,0 UV-I 0 W/m 5,6 C 1,0 C 27,4 km/h (4 Bft)
06.01.2023 08:51 6,8 C 6,1 C 92 % 1021,0 hPa 0,0 l/m 14,5 km/h (3 Bft) S-SW 193 0 min 0,0 UV-I 2 W/m 5,6 C 1,5 C 19,3 km/h (3 Bft)
06.01.2023 08:54 6,9 C 6,1 C 92 % 1021,0 hPa 0,0 l/m 16,9 km/h (3 Bft) S-SW 202 0 min 0,0 UV-I 5 W/m 5,7 C 0,5 C 27,4 km/h (4 Bft)
06.01.2023 08:57 6,9 C 6,1 C 92 % 1021,0 hPa 0,0 l/m 18,2 km/h (3 Bft) S 179 0 min 0,0 UV-I 6 W/m 5,7 C -0,0 C 25,7 km/h (4 Bft)
06.01.2023 09:00 6,9 C 6,1 C 92 % 1021,0 hPa 0,0 l/m 17,9 km/h (3 Bft) S-SW 203 0 min 0,0 UV-I 8 W/m 5,7 C 0,1 C 25,7 km/h (4 Bft)
06.01.2023 09:03 6,9 C 6,1 C 92 % 1021,0 hPa 0,0 l/m 15,5 km/h (3 Bft) S 175 0 min 0,0 UV-I 8 W/m 5,7 C 1,1 C 25,7 km/h (4 Bft)
06.01.2023 09:06 6,9 C 6,1 C 92 % 1021,0 hPa 0,0 l/m 18,7 km/h (3 Bft) SW 218 0 min 0,0 UV-I 7 W/m 5,7 C -0,2 C 29,0 km/h (5 Bft)
06.01.2023 09:09 6,9 C 6,1 C 92 % 1021,0 hPa 0,0 l/m 18,0 km/h (3 Bft) S 174 0 min 0,0 UV-I 10 W/m 5,7 C 0,1 C 27,4 km/h (4 Bft)
06.01.2023 09:12 6,9 C 6,7 C 92 % 1020,9 hPa 0,0 l/m 17,7 km/h (3 Bft) S 172 0 min 0,0 UV-I 14 W/m 5,7 C 0,2 C 37,0 km/h (5 Bft)
06.01.2023 09:15 7,0 C 6,7 C 92 % 1021,0 hPa 0,0 l/m 14,4 km/h (3 Bft) S-SW 208 0 min 0,0 UV-I 15 W/m 5,8 C 1,8 C 24,1 km/h (4 Bft)
06.01.2023 09:18 7,0 C 6,7 C 92 % 1020,9 hPa 0,0 l/m 21,1 km/h (4 Bft) S 190 0 min 0,0 UV-I 15 W/m 5,8 C -1,0 C 29,0 km/h (5 Bft)
06.01.2023 09:21 7,0 C 6,7 C 92 % 1021,0 hPa 0,0 l/m 20,3 km/h (4 Bft) S-SW 197 0 min 0,0 UV-I 16 W/m 5,8 C -0,7 C 33,8 km/h (5 Bft)
06.01.2023 09:24 7,0 C 6,7 C 91 % 1020,9 hPa 0,0 l/m 21,6 km/h (4 Bft) S 178 0 min 0,0 UV-I 18 W/m 5,6 C -1,2 C 35,4 km/h (5 Bft)
06.01.2023 09:27 7,1 C 6,7 C 91 % 1021,0 hPa 0,0 l/m 17,7 km/h (3 Bft) S 171 0 min 0,0 UV-I 17 W/m 5,7 C 0,4 C 27,4 km/h (4 Bft)
06.01.2023 09:30 7,1 C 6,7 C 91 % 1021,0 hPa 0,0 l/m 21,9 km/h (4 Bft) S 188 0 min 0,0 UV-I 20 W/m 5,7 C -1,1 C 33,8 km/h (5 Bft)
06.01.2023 09:33 7,1 C 6,7 C 91 % 1021,0 hPa 0,0 l/m 19,3 km/h (3 Bft) S-SW 202 0 min 0,0 UV-I 24 W/m 5,7 C -0,2 C 27,4 km/h (4 Bft)
06.01.2023 09:36 7,1 C 6,7 C 91 % 1021,0 hPa 0,0 l/m 18,3 km/h (3 Bft) S-SW 213 0 min 0,0 UV-I 18 W/m 5,7 C 0,2 C 32,2 km/h (5 Bft)
06.01.2023 09:39 7,1 C 6,7 C 91 % 1020,9 hPa 0,0 l/m 16,1 km/h (3 Bft) S-SW 192 0 min 0,0 UV-I 20 W/m 5,7 C 1,1 C 24,1 km/h (4 Bft)
06.01.2023 09:42 7,1 C 6,7 C 91 % 1020,9 hPa 0,0 l/m 13,7 km/h (3 Bft) SW 223 0 min 0,0 UV-I 21 W/m 5,7 C 2,3 C 24,1 km/h (4 Bft)
06.01.2023 09:45 7,1 C 6,7 C 91 % 1021,0 hPa 0,0 l/m 13,0 km/h (3 Bft) SW 221 0 min 0,0 UV-I 17 W/m 5,7 C 2,6 C 17,7 km/h (3 Bft)
06.01.2023 09:48 7,1 C 6,7 C 91 % 1021,0 hPa 0,0 l/m 17,5 km/h (3 Bft) SW 223 0 min 0,0 UV-I 17 W/m 5,7 C 0,5 C 29,0 km/h (5 Bft)
06.01.2023 09:51 7,1 C 6,7 C 91 % 1021,2 hPa 0,0 l/m 17,9 km/h (3 Bft) S-SW 192 0 min 0,0 UV-I 19 W/m 5,7 C 0,4 C 27,4 km/h (4 Bft)
06.01.2023 09:54 7,2 C 6,7 C 91 % 1021,0 hPa 0,0 l/m 16,5 km/h (3 Bft) S-SW 207 0 min 0,0 UV-I 23 W/m 5,8 C 1,1 C 27,4 km/h (4 Bft)
06.01.2023 09:57 7,1 C 6,7 C 91 % 1021,2 hPa 0,0 l/m 16,2 km/h (3 Bft) SW 231 0 min 0,0 UV-I 26 W/m 5,7 C 1,1 C 27,4 km/h (4 Bft)
06.01.2023 10:00 7,1 C 6,7 C 91 % 1021,1 hPa 0,0 l/m 18,1 km/h (3 Bft) S 169 0 min 0,0 UV-I 20 W/m 5,7 C 0,3 C 25,7 km/h (4 Bft)
06.01.2023 10:03 7,1 C 6,7 C 91 % 1021,2 hPa 0,0 l/m 16,9 km/h (3 Bft) S 171 0 min 0,0 UV-I 19 W/m 5,7 C 0,8 C 25,7 km/h (4 Bft)
06.01.2023 10:06 7,2 C 6,7 C 91 % 1021,2 hPa 0,0 l/m 17,4 km/h (3 Bft) S 176 0 min 0,0 UV-I 26 W/m 5,8 C 0,7 C 29,0 km/h (5 Bft)
06.01.2023 10:09 7,2 C 6,7 C 91 % 1021,3 hPa 0,0 l/m 19,6 km/h (3 Bft) SW 222 0 min 0,0 UV-I 26 W/m 5,8 C -0,2 C 33,8 km/h (5 Bft)
06.01.2023 10:12 7,2 C 6,7 C 91 % 1021,4 hPa 0,0 l/m 17,0 km/h (3 Bft) S 187 0 min 0,0 UV-I 28 W/m 5,8 C 0,8 C 24,1 km/h (4 Bft)
06.01.2023 10:15 7,2 C 6,7 C 91 % 1021,3 hPa 0,0 l/m 17,1 km/h (3 Bft) SW 225 0 min 0,0 UV-I 24 W/m 5,8 C 0,8 C 32,2 km/h (5 Bft)
06.01.2023 10:18 7,2 C 6,7 C 91 % 1021,3 hPa 0,0 l/m 19,6 km/h (3 Bft) S-SW 209 0 min 0,0 UV-I 30 W/m 5,8 C -0,2 C 32,2 km/h (5 Bft)
06.01.2023 10:21 7,2 C 6,7 C 91 % 1021,5 hPa 0,0 l/m 20,5 km/h (4 Bft) S-SW 194 0 min 0,0 UV-I 28 W/m 5,8 C -0,5 C 32,2 km/h (5 Bft)
06.01.2023 10:24 7,2 C 6,7 C 91 % 1021,3 hPa 0,0 l/m 25,5 km/h (4 Bft) S-SW 194 0 min 0,0 UV-I 27 W/m 5,8 C -2,1 C 45,1 km/h (6 Bft)
06.01.2023 10:27 7,2 C 6,7 C 92 % 1021,4 hPa 0,0 l/m 15,0 km/h (3 Bft) S 188 0 min 0,0 UV-I 21 W/m 6,0 C 1,7 C 25,7 km/h (4 Bft)
06.01.2023 10:30 7,2 C 6,7 C 92 % 1021,5 hPa 0,0 l/m 19,0 km/h (3 Bft) S 190 0 min 0,0 UV-I 18 W/m 6,0 C 0,0 C 27,4 km/h (4 Bft)
06.01.2023 10:33 7,2 C 6,7 C 91 % 1021,5 hPa 0,0 l/m 18,9 km/h (3 Bft) SW 217 0 min 0,0 UV-I 20 W/m 5,8 C 0,1 C 29,0 km/h (5 Bft)
06.01.2023 10:36 7,2 C 6,7 C 92 % 1021,5 hPa 0,0 l/m 19,8 km/h (3 Bft) S 190 0 min 0,0 UV-I 15 W/m 6,0 C -0,3 C 30,6 km/h (5 Bft)
06.01.2023 10:39 7,2 C 6,7 C 92 % 1021,6 hPa 0,0 l/m 18,9 km/h (3 Bft) S-SW 192 0 min 0,0 UV-I 24 W/m 6,0 C 0,1 C 27,4 km/h (4 Bft)
06.01.2023 10:42 7,2 C 6,7 C 92 % 1021,6 hPa 0,0 l/m 20,0 km/h (4 Bft) S-SW 203 0 min 0,0 UV-I 28 W/m 6,0 C -0,3 C 33,8 km/h (5 Bft)
06.01.2023 10:45 7,2 C 6,7 C 92 % 1021,6 hPa 0,0 l/m 19,9 km/h (4 Bft) S-SW 196 0 min 0,0 UV-I 20 W/m 6,0 C -0,3 C 30,6 km/h (5 Bft)
06.01.2023 10:48 7,3 C 6,7 C 92 % 1021,6 hPa 0,0 l/m 17,7 km/h (3 Bft) SW 218 0 min 0,0 UV-I 24 W/m 6,1 C 0,7 C 30,6 km/h (5 Bft)
06.01.2023 10:51 7,3 C 6,7 C 92 % 1021,6 hPa 0,0 l/m 18,9 km/h (3 Bft) S-SW 195 0 min 0,0 UV-I 22 W/m 6,1 C 0,2 C 29,0 km/h (5 Bft)
06.01.2023 10:54 7,3 C 6,7 C 92 % 1021,6 hPa 0,0 l/m 14,9 km/h (3 Bft) S-SW 200 0 min 0,0 UV-I 24 W/m 6,1 C 1,9 C 25,7 km/h (4 Bft)
06.01.2023 10:57 7,3 C 6,7 C 92 % 1021,6 hPa 0,0 l/m 17,0 km/h (3 Bft) S-SW 200 0 min 0,0 UV-I 31 W/m 6,1 C 1,0 C 29,0 km/h (5 Bft)
06.01.2023 11:00 7,3 C 6,7 C 92 % 1021,6 hPa 0,2 l/m 19,0 km/h (3 Bft) S 183 0 min 0,0 UV-I 37 W/m 6,1 C 0,2 C 30,6 km/h (5 Bft)
06.01.2023 11:03 7,3 C 6,7 C 92 % 1021,5 hPa 0,0 l/m 18,2 km/h (3 Bft) S-SW 198 0 min 0,0 UV-I 50 W/m 6,1 C 0,5 C 29,0 km/h (5 Bft)
06.01.2023 11:06 7,3 C 6,7 C 92 % 1021,5 hPa 0,0 l/m 18,7 km/h (3 Bft) S-SW 207 0 min 0,0 UV-I 38 W/m 6,1 C 0,3 C 30,6 km/h (5 Bft)
06.01.2023 11:09 7,3 C 6,7 C 92 % 1021,6 hPa 0,0 l/m 18,3 km/h (3 Bft) S 178 0 min 0,0 UV-I 48 W/m 6,1 C 0,4 C 30,6 km/h (5 Bft)
06.01.2023 11:12 7,4 C 6,7 C 92 % 1021,6 hPa 0,0 l/m 18,8 km/h (3 Bft) S-SW 192 0 min 0,0 UV-I 59 W/m 6,2 C 0,4 C 25,7 km/h (4 Bft)
06.01.2023 11:15 7,4 C 7,2 C 92 % 1021,7 hPa 0,0 l/m 16,8 km/h (3 Bft) S-SO 167 0 min 0,0 UV-I 55 W/m 6,2 C 1,2 C 32,2 km/h (5 Bft)
06.01.2023 11:18 7,4 C 7,2 C 92 % 1021,8 hPa 0,0 l/m 21,3 km/h (4 Bft) S 190 0 min 0,0 UV-I 52 W/m 6,2 C -0,5 C 30,6 km/h (5 Bft)
06.01.2023 11:21 7,4 C 7,2 C 92 % 1021,6 hPa 0,0 l/m 16,1 km/h (3 Bft) S-SW 193 0 min 0,0 UV-I 47 W/m 6,2 C 1,5 C 30,6 km/h (5 Bft)
06.01.2023 11:24 7,4 C 7,2 C 92 % 1021,8 hPa 0,0 l/m 16,5 km/h (3 Bft) S-SO 168 0 min 0,0 UV-I 46 W/m 6,2 C 1,3 C 29,0 km/h (5 Bft)
06.01.2023 11:27 7,4 C 7,2 C 92 % 1021,9 hPa 0,0 l/m 18,8 km/h (3 Bft) S 179 0 min 0,0 UV-I 42 W/m 6,2 C 0,4 C 27,4 km/h (4 Bft)
06.01.2023 11:30 7,4 C 7,2 C 92 % 1021,6 hPa 0,0 l/m 16,5 km/h (3 Bft) S-SW 194 0 min 0,0 UV-I 45 W/m 6,2 C 1,3 C 25,7 km/h (4 Bft)
06.01.2023 11:33 7,4 C 7,2 C 92 % 1021,6 hPa 0,0 l/m 17,9 km/h (3 Bft) SW 220 0 min 0,0 UV-I 42 W/m 6,2 C 0,7 C 29,0 km/h (5 Bft)
06.01.2023 11:36 7,5 C 7,2 C 92 % 1021,6 hPa 0,0 l/m 17,2 km/h (3 Bft) S-SW 206 0 min 0,0 UV-I 42 W/m 6,3 C 1,1 C 22,5 km/h (4 Bft)
06.01.2023 11:39 7,5 C 7,2 C 92 % 1021,5 hPa 0,0 l/m 16,7 km/h (3 Bft) S-SO 162 0 min 0,0 UV-I 46 W/m 6,3 C 1,3 C 29,0 km/h (5 Bft)
06.01.2023 11:42 7,5 C 7,2 C 92 % 1021,6 hPa 0,0 l/m 15,9 km/h (3 Bft) S 178 0 min 0,0 UV-I 68 W/m 6,3 C 1,7 C 25,7 km/h (4 Bft)
06.01.2023 11:45 7,6 C 7,2 C 92 % 1021,5 hPa 0,0 l/m 16,4 km/h (3 Bft) S 186 0 min 0,0 UV-I 99 W/m 6,4 C 1,6 C 25,7 km/h (4 Bft)
06.01.2023 11:48 7,6 C 7,2 C 92 % 1021,5 hPa 0,0 l/m 15,9 km/h (3 Bft) SW 217 0 min 0,0 UV-I 86 W/m 6,4 C 1,8 C 27,4 km/h (4 Bft)
06.01.2023 11:51 7,6 C 7,2 C 92 % 1021,5 hPa 0,0 l/m 21,3 km/h (4 Bft) S-SW 205 0 min 0,0 UV-I 76 W/m 6,4 C -0,3 C 32,2 km/h (5 Bft)
06.01.2023 11:54 7,6 C 7,2 C 92 % 1021,6 hPa 0,0 l/m 17,9 km/h (3 Bft) S 188 0 min 0,0 UV-I 55 W/m 6,4 C 1,0 C 32,2 km/h (5 Bft)
06.01.2023 11:57 7,6 C 7,2 C 92 % 1021,5 hPa 0,0 l/m 21,0 km/h (4 Bft) S-SW 210 0 min 0,0 UV-I 49 W/m 6,4 C -0,2 C 33,8 km/h (5 Bft)
06.01.2023 12:00 7,6 C 7,2 C 92 % 1021,5 hPa 0,0 l/m 20,6 km/h (4 Bft) S-SW 200 0 min 0,0 UV-I 48 W/m 6,4 C -0,0 C 29,0 km/h (5 Bft)
06.01.2023 12:03 7,6 C 7,2 C 92 % 1021,5 hPa 0,0 l/m 16,2 km/h (3 Bft) S-SW 198 0 min 0,0 UV-I 48 W/m 6,4 C 1,7 C 29,0 km/h (5 Bft)
06.01.2023 12:06 7,6 C 7,2 C 92 % 1021,4 hPa 0,0 l/m 17,4 km/h (3 Bft) S-SW 194 0 min 0,0 UV-I 61 W/m 6,4 C 1,2 C 27,4 km/h (4 Bft)
06.01.2023 12:09 7,6 C 7,2 C 92 % 1021,5 hPa 0,0 l/m 17,5 km/h (3 Bft) S-SO 163 0 min 0,0 UV-I 54 W/m 6,4 C 1,1 C 37,0 km/h (5 Bft)
06.01.2023 12:12 7,6 C 7,2 C 92 % 1021,5 hPa 0,0 l/m 13,2 km/h (3 Bft) S-SW 212 0 min 0,0 UV-I 55 W/m 6,4 C 3,1 C 19,3 km/h (3 Bft)
06.01.2023 12:15 7,6 C 7,2 C 92 % 1021,5 hPa 0,0 l/m 16,3 km/h (3 Bft) S 177 0 min 0,0 UV-I 56 W/m 6,4 C 1,6 C 25,7 km/h (4 Bft)
06.01.2023 12:18 7,6 C 7,2 C 92 % 1021,5 hPa 0,0 l/m 19,1 km/h (3 Bft) S 169 0 min 0,0 UV-I 58 W/m 6,4 C 0,5 C 27,4 km/h (4 Bft)
06.01.2023 12:21 7,6 C 7,2 C 92 % 1021,5 hPa 0,0 l/m 19,9 km/h (4 Bft) S-SW 210 0 min 0,0 UV-I 58 W/m 6,4 C 0,2 C 29,0 km/h (5 Bft)
06.01.2023 12:24 7,6 C 7,2 C 92 % 1021,5 hPa 0,0 l/m 17,9 km/h (3 Bft) S-SW 192 0 min 0,0 UV-I 57 W/m 6,4 C 1,0 C 27,4 km/h (4 Bft)
06.01.2023 12:27 7,7 C 7,2 C 92 % 1021,3 hPa 0,0 l/m 18,6 km/h (3 Bft) S-SW 213 0 min 0,0 UV-I 61 W/m 6,5 C 0,8 C 30,6 km/h (5 Bft)
06.01.2023 12:30 7,7 C 7,2 C 92 % 1021,2 hPa 0,0 l/m 19,2 km/h (3 Bft) S 177 0 min 0,0 UV-I 73 W/m 6,5 C 0,6 C 27,4 km/h (4 Bft)
06.01.2023 12:33 7,7 C 7,2 C 92 % 1021,2 hPa 0,0 l/m 17,5 km/h (3 Bft) S-SW 209 0 min 0,0 UV-I 75 W/m 6,5 C 1,3 C 29,0 km/h (5 Bft)
06.01.2023 12:36 7,7 C 7,2 C 92 % 1021,2 hPa 0,0 l/m 19,3 km/h (3 Bft) S 184 0 min 0,0 UV-I 54 W/m 6,5 C 0,6 C 27,4 km/h (4 Bft)
06.01.2023 12:39 7,7 C 7,2 C 92 % 1021,1 hPa 0,0 l/m 14,9 km/h (3 Bft) S 182 0 min 0,0 UV-I 67 W/m 6,5 C 2,4 C 29,0 km/h (5 Bft)
06.01.2023 12:42 7,8 C 7,2 C 92 % 1021,2 hPa 0,0 l/m 15,4 km/h (3 Bft) S-SW 195 0 min 0,0 UV-I 75 W/m 6,6 C 2,3 C 27,4 km/h (4 Bft)
06.01.2023 12:45 7,8 C 7,2 C 92 % 1021,2 hPa 0,0 l/m 18,3 km/h (3 Bft) S 185 0 min 0,0 UV-I 64 W/m 6,6 C 1,1 C 24,1 km/h (4 Bft)
06.01.2023 12:48 7,8 C 7,2 C 92 % 1021,2 hPa 0,0 l/m 18,7 km/h (3 Bft) SW 221 0 min 0,0 UV-I 52 W/m 6,6 C 0,9 C 32,2 km/h (5 Bft)
06.01.2023 12:51 7,8 C 7,2 C 92 % 1021,3 hPa 0,0 l/m 18,7 km/h (3 Bft) S-SW 192 0 min 0,0 UV-I 67 W/m 6,6 C 0,9 C 32,2 km/h (5 Bft)
06.01.2023 12:54 7,8 C 7,8 C 92 % 1021,3 hPa 0,0 l/m 14,1 km/h (3 Bft) S-SW 210 0 min 0,0 UV-I 79 W/m 6,6 C 2,9 C 24,1 km/h (4 Bft)
06.01.2023 12:57 7,8 C 7,8 C 92 % 1021,3 hPa 0,0 l/m 15,4 km/h (3 Bft) S-SW 196 0 min 0,0 UV-I 63 W/m 6,6 C 2,3 C 24,1 km/h (4 Bft)
06.01.2023 13:00 7,8 C 7,2 C 92 % 1021,3 hPa 0,0 l/m 18,1 km/h (3 Bft) S-SW 201 0 min 0,0 UV-I 52 W/m 6,6 C 1,2 C 27,4 km/h (4 Bft)
06.01.2023 13:03 7,8 C 7,2 C 92 % 1021,4 hPa 0,0 l/m 22,2 km/h (4 Bft) S 187 0 min 0,0 UV-I 45 W/m 6,6 C -0,3 C 35,4 km/h (5 Bft)
06.01.2023 13:06 7,8 C 7,2 C 92 % 1021,3 hPa 0,0 l/m 16,7 km/h (3 Bft) S 170 0 min 0,0 UV-I 54 W/m 6,6 C 1,7 C 25,7 km/h (4 Bft)
06.01.2023 13:09 7,9 C 7,2 C 92 % 1021,3 hPa 0,0 l/m 19,7 km/h (3 Bft) S 186 0 min 0,0 UV-I 57 W/m 6,7 C 0,7 C 27,4 km/h (4 Bft)
06.01.2023 13:12 7,9 C 7,2 C 92 % 1021,2 hPa 0,0 l/m 14,6 km/h (3 Bft) S-SW 209 0 min 0,0 UV-I 40 W/m 6,7 C 2,8 C 24,1 km/h (4 Bft)
06.01.2023 13:15 7,9 C 7,2 C 92 % 1021,2 hPa 0,0 l/m 17,9 km/h (3 Bft) S-SW 213 0 min 0,0 UV-I 40 W/m 6,7 C 1,4 C 30,6 km/h (5 Bft)
06.01.2023 13:18 7,9 C 7,2 C 92 % 1021,3 hPa 0,0 l/m 18,2 km/h (3 Bft) S-SW 198 0 min 0,0 UV-I 43 W/m 6,7 C 1,2 C 32,2 km/h (5 Bft)
06.01.2023 13:21 7,8 C 7,2 C 92 % 1021,1 hPa 0,0 l/m 16,7 km/h (3 Bft) SW 221 0 min 0,0 UV-I 45 W/m 6,6 C 1,7 C 27,4 km/h (4 Bft)
06.01.2023 13:24 7,8 C 7,2 C 92 % 1021,2 hPa 0,0 l/m 15,3 km/h (3 Bft) S-SO 163 0 min 0,0 UV-I 52 W/m 6,6 C 2,3 C 32,2 km/h (5 Bft)
06.01.2023 13:27 7,8 C 7,2 C 92 % 1021,1 hPa 0,0 l/m 15,0 km/h (3 Bft) S-SW 198 0 min 0,0 UV-I 52 W/m 6,6 C 2,5 C 32,2 km/h (5 Bft)
06.01.2023 13:30 7,8 C 7,2 C 92 % 1021,1 hPa 0,0 l/m 16,0 km/h (3 Bft) S-SO 157 0 min 0,0 UV-I 57 W/m 6,6 C 2,0 C 22,5 km/h (4 Bft)
06.01.2023 13:33 7,9 C 7,2 C 92 % 1021,1 hPa 0,0 l/m 16,0 km/h (3 Bft) SW 225 0 min 0,0 UV-I 49 W/m 6,7 C 2,1 C 25,7 km/h (4 Bft)
06.01.2023 13:36 7,9 C 7,2 C 92 % 1021,1 hPa 0,0 l/m 13,1 km/h (3 Bft) S-SW 204 0 min 0,0 UV-I 51 W/m 6,7 C 3,5 C 27,4 km/h (4 Bft)
06.01.2023 13:39 7,9 C 7,2 C 92 % 1021,0 hPa 0,0 l/m 19,4 km/h (3 Bft) S-SW 207 0 min 0,0 UV-I 44 W/m 6,7 C 0,8 C 38,6 km/h (5 Bft)
06.01.2023 13:42 7,9 C 7,2 C 92 % 1020,9 hPa 0,0 l/m 17,7 km/h (3 Bft) SW 228 0 min 0,0 UV-I 42 W/m 6,7 C 1,4 C 27,4 km/h (4 Bft)
06.01.2023 13:45 7,9 C 7,2 C 92 % 1020,9 hPa 0,0 l/m 18,3 km/h (3 Bft) S-SW 209 0 min 0,0 UV-I 54 W/m 6,7 C 1,2 C 30,6 km/h (5 Bft)
06.01.2023 13:48 7,9 C 7,2 C 92 % 1021,0 hPa 0,0 l/m 18,9 km/h (3 Bft) S 176 0 min 0,0 UV-I 47 W/m 6,7 C 1,0 C 32,2 km/h (5 Bft)
06.01.2023 13:51 7,9 C 7,2 C 92 % 1021,0 hPa 0,0 l/m 18,0 km/h (3 Bft) S-SO 168 0 min 0,0 UV-I 46 W/m 6,7 C 1,3 C 32,2 km/h (5 Bft)
06.01.2023 13:54 7,9 C 7,2 C 92 % 1021,0 hPa 0,0 l/m 18,6 km/h (3 Bft) SW 224 0 min 0,0 UV-I 49 W/m 6,7 C 1,1 C 27,4 km/h (4 Bft)
06.01.2023 13:57 8,0 C 7,8 C 92 % 1020,9 hPa 0,0 l/m 16,5 km/h (3 Bft) S-SW 194 0 min 0,0 UV-I 50 W/m 6,8 C 2,1 C 22,5 km/h (4 Bft)
06.01.2023 14:00 7,9 C 7,2 C 92 % 1020,9 hPa 0,0 l/m 19,2 km/h (3 Bft) S-SW 205 0 min 0,0 UV-I 48 W/m 6,7 C 0,9 C 30,6 km/h (5 Bft)
06.01.2023 14:03 8,0 C 7,2 C 92 % 1021,0 hPa 0,0 l/m 19,8 km/h (3 Bft) S 189 0 min 0,0 UV-I 46 W/m 6,8 C 0,8 C 29,0 km/h (5 Bft)
06.01.2023 14:06 8,0 C 7,2 C 92 % 1021,0 hPa 0,0 l/m 19,5 km/h (3 Bft) S-SW 202 0 min 0,0 UV-I 41 W/m 6,8 C 0,9 C 27,4 km/h (4 Bft)
06.01.2023 14:09 8,0 C 7,2 C 92 % 1021,1 hPa 0,0 l/m 24,3 km/h (4 Bft) S 184 0 min 0,0 UV-I 42 W/m 6,8 C -0,7 C 35,4 km/h (5 Bft)
06.01.2023 14:12 8,0 C 7,2 C 92 % 1021,1 hPa 0,0 l/m 16,3 km/h (3 Bft) S-SW 212 0 min 0,0 UV-I 37 W/m 6,8 C 2,1 C 24,1 km/h (4 Bft)
06.01.2023 14:15 8,0 C 7,2 C 92 % 1021,0 hPa 0,0 l/m 16,3 km/h (3 Bft) S-SW 192 0 min 0,0 UV-I 47 W/m 6,8 C 2,1 C 25,7 km/h (4 Bft)
06.01.2023 14:18 8,0 C 7,2 C 92 % 1021,1 hPa 0,0 l/m 17,6 km/h (3 Bft) SW 215 0 min 0,0 UV-I 41 W/m 6,8 C 1,6 C 29,0 km/h (5 Bft)
06.01.2023 14:21 8,0 C 7,2 C 92 % 1021,1 hPa 0,0 l/m 15,9 km/h (3 Bft) S 187 0 min 0,0 UV-I 46 W/m 6,8 C 2,3 C 25,7 km/h (4 Bft)
06.01.2023 14:24 8,1 C 7,8 C 92 % 1021,1 hPa 0,0 l/m 13,8 km/h (3 Bft) S-SW 196 0 min 0,0 UV-I 53 W/m 6,9 C 3,4 C 22,5 km/h (4 Bft)
06.01.2023 14:27 8,1 C 7,8 C 92 % 1021,0 hPa 0,0 l/m 18,3 km/h (3 Bft) S 176 0 min 0,0 UV-I 58 W/m 6,9 C 1,5 C 32,2 km/h (5 Bft)
06.01.2023 14:30 8,0 C 7,8 C 92 % 1021,2 hPa 0,0 l/m 15,5 km/h (3 Bft) S-SW 192 0 min 0,0 UV-I 42 W/m 6,8 C 2,5 C 25,7 km/h (4 Bft)
06.01.2023 14:33 8,1 C 7,8 C 92 % 1021,1 hPa 0,0 l/m 13,2 km/h (3 Bft) S-SW 211 0 min 0,0 UV-I 46 W/m 6,9 C 3,7 C 25,7 km/h (4 Bft)
06.01.2023 14:36 8,1 C 7,8 C 92 % 1021,2 hPa 0,2 l/m 16,0 km/h (3 Bft) S 188 0 min 0,0 UV-I 50 W/m 6,9 C 2,4 C 30,6 km/h (5 Bft)
06.01.2023 14:39 8,1 C 7,8 C 92 % 1021,0 hPa 0,0 l/m 13,4 km/h (3 Bft) S-SW 198 0 min 0,0 UV-I 39 W/m 6,9 C 3,6 C 24,1 km/h (4 Bft)
06.01.2023 14:42 8,0 C 7,2 C 92 % 1021,0 hPa 0,0 l/m 17,9 km/h (3 Bft) S 173 0 min 0,0 UV-I 32 W/m 6,8 C 1,5 C 27,4 km/h (4 Bft)
06.01.2023 14:45 8,1 C 7,2 C 92 % 1020,9 hPa 0,0 l/m 14,5 km/h (3 Bft) S-SW 194 0 min 0,0 UV-I 28 W/m 6,9 C 3,1 C 22,5 km/h (4 Bft)
06.01.2023 14:48 8,0 C 7,2 C 92 % 1021,1 hPa 0,0 l/m 15,6 km/h (3 Bft) S-SW 194 0 min 0,0 UV-I 35 W/m 6,8 C 2,4 C 20,9 km/h (4 Bft)
06.01.2023 14:51 8,0 C 7,2 C 92 % 1020,9 hPa 0,0 l/m 16,9 km/h (3 Bft) W-SW 248 0 min 0,0 UV-I 24 W/m 6,8 C 1,9 C 27,4 km/h (4 Bft)
06.01.2023 14:54 8,0 C 7,2 C 92 % 1020,9 hPa 0,0 l/m 20,1 km/h (4 Bft) S 183 0 min 0,0 UV-I 53 W/m 6,8 C 0,7 C 32,2 km/h (5 Bft)
06.01.2023 14:57 8,1 C 7,2 C 92 % 1021,1 hPa 0,0 l/m 17,1 km/h (3 Bft) S-SW 196 0 min 0,0 UV-I 48 W/m 6,9 C 1,9 C 37,0 km/h (5 Bft)
06.01.2023 15:00 8,0 C 7,2 C 92 % 1021,1 hPa 0,0 l/m 18,8 km/h (3 Bft) S 181 0 min 0,0 UV-I 29 W/m 6,8 C 1,1 C 30,6 km/h (5 Bft)
06.01.2023 15:03 8,0 C 7,2 C 92 % 1021,0 hPa 0,0 l/m 16,2 km/h (3 Bft) S 191 0 min 0,0 UV-I 36 W/m 6,8 C 2,2 C 25,7 km/h (4 Bft)
06.01.2023 15:06 8,0 C 7,2 C 92 % 1021,0 hPa 0,0 l/m 14,8 km/h (3 Bft) W-SW 245 0 min 0,0 UV-I 22 W/m 6,8 C 2,8 C 24,1 km/h (4 Bft)
06.01.2023 15:09 8,0 C 7,2 C 92 % 1020,9 hPa 0,0 l/m 17,3 km/h (3 Bft) S 178 0 min 0,0 UV-I 35 W/m 6,8 C 1,7 C 24,1 km/h (4 Bft)
06.01.2023 15:12 8,1 C 7,8 C 92 % 1020,9 hPa 0,2 l/m 15,8 km/h (3 Bft) SW 219 0 min 0,0 UV-I 44 W/m 6,9 C 2,5 C 25,7 km/h (4 Bft)
06.01.2023 15:15 8,0 C 7,2 C 92 % 1021,1 hPa 0,0 l/m 16,7 km/h (3 Bft) S-SW 193 0 min 0,0 UV-I 40 W/m 6,8 C 2,0 C 29,0 km/h (5 Bft)
06.01.2023 15:18 8,0 C 7,2 C 92 % 1021,0 hPa 0,0 l/m 21,3 km/h (4 Bft) S 189 0 min 0,0 UV-I 39 W/m 6,8 C 0,3 C 32,2 km/h (5 Bft)
06.01.2023 15:21 8,0 C 7,8 C 92 % 1021,0 hPa 0,0 l/m 15,4 km/h (3 Bft) S 181 0 min 0,0 UV-I 51 W/m 6,8 C 2,5 C 22,5 km/h (4 Bft)
06.01.2023 15:24 8,0 C 7,2 C 92 % 1021,0 hPa 0,0 l/m 18,3 km/h (3 Bft) S-SW 198 0 min 0,0 UV-I 33 W/m 6,8 C 1,3 C 27,4 km/h (4 Bft)
06.01.2023 15:27 8,0 C 7,2 C 92 % 1021,1 hPa 0,0 l/m 15,6 km/h (3 Bft) S-SW 208 0 min 0,0 UV-I 31 W/m 6,8 C 2,4 C 25,7 km/h (4 Bft)
06.01.2023 15:30 8,0 C 7,8 C 92 % 1021,1 hPa 0,0 l/m 14,8 km/h (3 Bft) SW 219 0 min 0,0 UV-I 29 W/m 6,8 C 2,8 C 24,1 km/h (4 Bft)
06.01.2023 15:33 8,0 C 7,2 C 92 % 1021,1 hPa 0,0 l/m 16,3 km/h (3 Bft) S 190 0 min 0,0 UV-I 27 W/m 6,8 C 2,1 C 27,4 km/h (4 Bft)
06.01.2023 15:36 8,0 C 7,2 C 92 % 1021,1 hPa 0,0 l/m 14,6 km/h (3 Bft) S-SW 194 0 min 0,0 UV-I 26 W/m 6,8 C 2,9 C 24,1 km/h (4 Bft)
06.01.2023 15:39 8,0 C 7,2 C 92 % 1021,0 hPa 0,0 l/m 15,8 km/h (3 Bft) S-SW 194 0 min 0,0 UV-I 27 W/m 6,8 C 2,4 C 25,7 km/h (4 Bft)
06.01.2023 15:42 8,0 C 7,2 C 92 % 1020,9 hPa 0,0 l/m 18,9 km/h (3 Bft) S-SW 208 0 min 0,0 UV-I 31 W/m 6,8 C 1,1 C 27,4 km/h (4 Bft)
06.01.2023 15:45 8,0 C 7,2 C 92 % 1021,0 hPa 0,0 l/m 12,7 km/h (3 Bft) S 186 0 min 0,0 UV-I 17 W/m 6,8 C 3,8 C 22,5 km/h (4 Bft)
06.01.2023 15:48 8,0 C 7,2 C 92 % 1021,2 hPa 0,0 l/m 18,2 km/h (3 Bft) S-SW 192 0 min 0,0 UV-I 18 W/m 6,8 C 1,4 C 35,4 km/h (5 Bft)
06.01.2023 15:51 8,0 C 7,2 C 92 % 1021,1 hPa 0,0 l/m 16,9 km/h (3 Bft) S-SW 212 0 min 0,0 UV-I 18 W/m 6,8 C 1,9 C 32,2 km/h (5 Bft)
06.01.2023 15:54 8,0 C 7,2 C 92 % 1021,2 hPa 0,0 l/m 16,5 km/h (3 Bft) S-SW 195 0 min 0,0 UV-I 16 W/m 6,8 C 2,1 C 24,1 km/h (4 Bft)
06.01.2023 15:57 7,9 C 7,2 C 92 % 1021,2 hPa 0,2 l/m 13,8 km/h (3 Bft) S 178 0 min 0,0 UV-I 14 W/m 6,7 C 3,2 C 22,5 km/h (4 Bft)
06.01.2023 16:00 7,9 C 7,2 C 92 % 1021,3 hPa 0,0 l/m 17,4 km/h (3 Bft) S 174 0 min 0,0 UV-I 17 W/m 6,7 C 1,6 C 27,4 km/h (4 Bft)
06.01.2023 16:03 7,9 C 7,2 C 92 % 1021,2 hPa 0,0 l/m 13,7 km/h (3 Bft) SW 222 0 min 0,0 UV-I 13 W/m 6,7 C 3,2 C 24,1 km/h (4 Bft)
06.01.2023 16:06 7,9 C 7,2 C 92 % 1021,3 hPa 0,0 l/m 17,5 km/h (3 Bft) SW 219 0 min 0,0 UV-I 11 W/m 6,7 C 1,5 C 29,0 km/h (5 Bft)
06.01.2023 16:09 7,9 C 7,2 C 92 % 1021,3 hPa 0,0 l/m 15,8 km/h (3 Bft) S-SW 212 0 min 0,0 UV-I 11 W/m 6,7 C 2,2 C 24,1 km/h (4 Bft)
06.01.2023 16:12 7,9 C 7,2 C 92 % 1021,2 hPa 0,0 l/m 16,1 km/h (3 Bft) S 180 0 min 0,0 UV-I 9 W/m 6,7 C 2,1 C 24,1 km/h (4 Bft)
06.01.2023 16:15 7,9 C 7,2 C 92 % 1021,2 hPa 0,0 l/m 15,0 km/h (3 Bft) S-SW 202 0 min 0,0 UV-I 8 W/m 6,7 C 2,6 C 25,7 km/h (4 Bft)
06.01.2023 16:18 7,9 C 7,2 C 92 % 1021,2 hPa 0,0 l/m 14,6 km/h (3 Bft) S 182 0 min 0,0 UV-I 5 W/m 6,7 C 2,8 C 25,7 km/h (4 Bft)
06.01.2023 16:21 7,9 C 7,2 C 92 % 1021,1 hPa 0,2 l/m 16,6 km/h (3 Bft) S-SW 197 0 min 0,0 UV-I 1 W/m 6,7 C 1,9 C 29,0 km/h (5 Bft)
06.01.2023 16:24 7,9 C 7,2 C 92 % 1021,3 hPa 0,0 l/m 17,3 km/h (3 Bft) S-SW 202 0 min 0,0 UV-I 0 W/m 6,7 C 1,6 C 25,7 km/h (4 Bft)
06.01.2023 16:27 7,8 C 7,2 C 92 % 1021,2 hPa 0,0 l/m 15,2 km/h (3 Bft) S-SW 213 0 min 0,0 UV-I 5 W/m 6,6 C 2,4 C 24,1 km/h (4 Bft)
06.01.2023 16:30 7,8 C 7,2 C 92 % 1021,2 hPa 0,0 l/m 15,5 km/h (3 Bft) S-SW 203 0 min 0,0 UV-I 4 W/m 6,6 C 2,2 C 22,5 km/h (4 Bft)
06.01.2023 16:33 7,9 C 7,2 C 92 % 1021,1 hPa 0,0 l/m 15,4 km/h (3 Bft) S 173 0 min 0,0 UV-I 3 W/m 6,7 C 2,4 C 24,1 km/h (4 Bft)
06.01.2023 16:36 7,9 C 7,2 C 92 % 1021,2 hPa 0,0 l/m 14,1 km/h (3 Bft) S 187 0 min 0,0 UV-I 0 W/m 6,7 C 3,0 C 24,1 km/h (4 Bft)
06.01.2023 16:39 7,8 C 7,2 C 92 % 1021,1 hPa 0,0 l/m 14,1 km/h (3 Bft) S-SW 200 0 min 0,0 UV-I 0 W/m 6,6 C 2,9 C 24,1 km/h (4 Bft)
06.01.2023 16:42 7,9 C 7,2 C 92 % 1021,0 hPa 0,0 l/m 17,0 km/h (3 Bft) S-SW 211 0 min 0,0 UV-I 0 W/m 6,7 C 1,7 C 30,6 km/h (5 Bft)
06.01.2023 16:45 7,8 C 7,2 C 92 % 1021,0 hPa 0,0 l/m 14,9 km/h (3 Bft) S-SW 208 0 min 0,0 UV-I 0 W/m 6,6 C 2,5 C 27,4 km/h (4 Bft)
06.01.2023 16:48 7,8 C 7,2 C 92 % 1021,0 hPa 0,0 l/m 15,7 km/h (3 Bft) S 174 0 min 0,0 UV-I 0 W/m 6,6 C 2,2 C 29,0 km/h (5 Bft)
06.01.2023 16:51 7,9 C 7,2 C 92 % 1020,9 hPa 0,0 l/m 17,3 km/h (3 Bft) S 190 0 min 0,0 UV-I 0 W/m 6,7 C 1,6 C 27,4 km/h (4 Bft)
06.01.2023 16:54 7,8 C 7,2 C 92 % 1020,9 hPa 0,0 l/m 15,9 km/h (3 Bft) S 186 0 min 0,0 UV-I 0 W/m 6,6 C 2,1 C 25,7 km/h (4 Bft)
06.01.2023 16:57 7,8 C 7,2 C 92 % 1021,1 hPa 0,0 l/m 17,1 km/h (3 Bft) S-SW 198 0 min 0,0 UV-I 0 W/m 6,6 C 1,6 C 27,4 km/h (4 Bft)
06.01.2023 17:00 7,9 C 7,2 C 92 % 1021,0 hPa 0,0 l/m 18,3 km/h (3 Bft) S 181 0 min 0,0 UV-I 0 W/m 6,7 C 1,2 C 33,8 km/h (5 Bft)
06.01.2023 17:03 7,9 C 7,2 C 92 % 1020,9 hPa 0,0 l/m 14,1 km/h (3 Bft) S-SW 206 0 min 0,0 UV-I 0 W/m 6,7 C 3,0 C 27,4 km/h (4 Bft)
06.01.2023 17:06 7,9 C 7,2 C 92 % 1021,0 hPa 0,0 l/m 11,8 km/h (2 Bft) SO 146 0 min 0,0 UV-I 0 W/m 6,7 C 4,2 C 20,9 km/h (4 Bft)
06.01.2023 17:09 7,8 C 7,2 C 92 % 1021,1 hPa 0,0 l/m 12,2 km/h (2 Bft) S-SO 155 0 min 0,0 UV-I 0 W/m 6,6 C 3,9 C 17,7 km/h (3 Bft)
06.01.2023 17:12 7,9 C 7,2 C 92 % 1020,9 hPa 0,0 l/m 14,0 km/h (3 Bft) S-SW 194 0 min 0,0 UV-I 0 W/m 6,7 C 3,1 C 22,5 km/h (4 Bft)
06.01.2023 17:15 7,9 C 7,2 C 92 % 1020,9 hPa 0,0 l/m 16,6 km/h (3 Bft) S 175 0 min 0,0 UV-I 0 W/m 6,7 C 1,9 C 33,8 km/h (5 Bft)
06.01.2023 17:18 7,9 C 7,2 C 92 % 1021,1 hPa 0,0 l/m 14,6 km/h (3 Bft) S-SW 209 0 min 0,0 UV-I 0 W/m 6,7 C 2,8 C 22,5 km/h (4 Bft)
06.01.2023 17:21 7,8 C 7,2 C 92 % 1021,0 hPa 0,0 l/m 13,4 km/h (3 Bft) S-SO 153 0 min 0,0 UV-I 0 W/m 6,6 C 3,2 C 22,5 km/h (4 Bft)
06.01.2023 17:24 7,8 C 7,2 C 92 % 1020,9 hPa 0,0 l/m 15,1 km/h (3 Bft) SO 141 0 min 0,0 UV-I 0 W/m 6,6 C 2,4 C 29,0 km/h (5 Bft)
06.01.2023 17:27 7,9 C 7,2 C 92 % 1021,1 hPa 0,0 l/m 20,1 km/h (4 Bft) S 190 0 min 0,0 UV-I 0 W/m 6,7 C 0,5 C 30,6 km/h (5 Bft)
06.01.2023 17:30 7,9 C 7,2 C 92 % 1021,1 hPa 0,0 l/m 15,8 km/h (3 Bft) S-SW 194 0 min 0,0 UV-I 0 W/m 6,7 C 2,2 C 22,5 km/h (4 Bft)
06.01.2023 17:33 7,9 C 7,2 C 92 % 1021,1 hPa 0,0 l/m 11,6 km/h (2 Bft) S 188 0 min 0,0 UV-I 0 W/m 6,7 C 4,3 C 17,7 km/h (3 Bft)
06.01.2023 17:36 7,9 C 7,2 C 92 % 1021,1 hPa 0,0 l/m 15,9 km/h (3 Bft) SW 215 0 min 0,0 UV-I 0 W/m 6,7 C 2,2 C 27,4 km/h (4 Bft)
06.01.2023 17:39 7,9 C 7,2 C 92 % 1021,1 hPa 0,0 l/m 10,1 km/h (2 Bft) S 189 0 min 0,0 UV-I 0 W/m 6,7 C 5,2 C 20,9 km/h (4 Bft)
06.01.2023 17:42 7,9 C 7,2 C 92 % 1021,2 hPa 0,0 l/m 14,3 km/h (3 Bft) S-SW 199 0 min 0,0 UV-I 0 W/m 6,7 C 2,9 C 19,3 km/h (3 Bft)
06.01.2023 17:45 7,9 C 7,2 C 92 % 1021,2 hPa 0,0 l/m 14,7 km/h (3 Bft) S-SO 155 0 min 0,0 UV-I 0 W/m 6,7 C 2,7 C 20,9 km/h (4 Bft)
06.01.2023 17:48 7,9 C 7,2 C 92 % 1021,3 hPa 0,0 l/m 12,5 km/h (3 Bft) S 187 0 min 0,0 UV-I 0 W/m 6,7 C 3,8 C 19,3 km/h (3 Bft)
06.01.2023 17:51 7,8 C 7,2 C 92 % 1021,3 hPa 0,0 l/m 16,0 km/h (3 Bft) S-SW 211 0 min 0,0 UV-I 0 W/m 6,6 C 2,0 C 24,1 km/h (4 Bft)
06.01.2023 17:54 7,8 C 7,2 C 92 % 1021,2 hPa 0,0 l/m 15,8 km/h (3 Bft) S 169 0 min 0,0 UV-I 0 W/m 6,6 C 2,1 C 24,1 km/h (4 Bft)
06.01.2023 17:57 7,9 C 7,2 C 92 % 1021,3 hPa 0,0 l/m 12,5 km/h (3 Bft) S-SW 194 0 min 0,0 UV-I 0 W/m 6,7 C 3,8 C 17,7 km/h (3 Bft)
06.01.2023 18:00 7,8 C 7,2 C 92 % 1021,3 hPa 0,0 l/m 13,3 km/h (3 Bft) S 176 0 min 0,0 UV-I 0 W/m 6,6 C 3,3 C 19,3 km/h (3 Bft)
06.01.2023 18:03 7,8 C 7,2 C 92 % 1021,3 hPa 0,0 l/m 14,0 km/h (3 Bft) S-SW 197 0 min 0,0 UV-I 0 W/m 6,6 C 2,9 C 24,1 km/h (4 Bft)
06.01.2023 18:06 7,8 C 7,2 C 92 % 1021,2 hPa 0,0 l/m 15,9 km/h (3 Bft) S 178 0 min 0,0 UV-I 0 W/m 6,6 C 2,1 C 25,7 km/h (4 Bft)
06.01.2023 18:09 7,8 C 7,2 C 92 % 1021,1 hPa 0,0 l/m 13,5 km/h (3 Bft) SW 215 0 min 0,0 UV-I 0 W/m 6,6 C 3,2 C 20,9 km/h (4 Bft)
06.01.2023 18:12 7,8 C 7,2 C 92 % 1021,2 hPa 0,0 l/m 13,6 km/h (3 Bft) S 177 0 min 0,0 UV-I 0 W/m 6,6 C 3,1 C 29,0 km/h (5 Bft)
06.01.2023 18:15 7,8 C 7,2 C 92 % 1021,2 hPa 0,0 l/m 12,1 km/h (2 Bft) S-SW 198 0 min 0,0 UV-I 0 W/m 6,6 C 3,9 C 19,3 km/h (3 Bft)
06.01.2023 18:18 7,8 C 7,2 C 92 % 1021,2 hPa 0,0 l/m 15,4 km/h (3 Bft) S 191 0 min 0,0 UV-I 0 W/m 6,6 C 2,3 C 24,1 km/h (4 Bft)
06.01.2023 18:21 7,8 C 7,2 C 92 % 1021,1 hPa 0,0 l/m 16,7 km/h (3 Bft) S-SW 203 0 min 0,0 UV-I 0 W/m 6,6 C 1,7 C 24,1 km/h (4 Bft)
06.01.2023 18:24 7,8 C 7,2 C 92 % 1021,2 hPa 0,0 l/m 15,6 km/h (3 Bft) S 186 0 min 0,0 UV-I 0 W/m 6,6 C 2,2 C 25,7 km/h (4 Bft)
06.01.2023 18:27 7,8 C 7,2 C 92 % 1021,3 hPa 0,0 l/m 16,9 km/h (3 Bft) S 184 0 min 0,0 UV-I 0 W/m 6,6 C 1,6 C 24,1 km/h (4 Bft)
06.01.2023 18:30 7,8 C 7,2 C 92 % 1021,3 hPa 0,0 l/m 12,3 km/h (3 Bft) S 190 0 min 0,0 UV-I 0 W/m 6,6 C 3,8 C 20,9 km/h (4 Bft)
06.01.2023 18:33 7,8 C 7,2 C 92 % 1021,4 hPa 0,0 l/m 12,7 km/h (3 Bft) S 183 0 min 0,0 UV-I 0 W/m 6,6 C 3,6 C 22,5 km/h (4 Bft)
06.01.2023 18:36 7,8 C 7,2 C 92 % 1021,3 hPa 0,0 l/m 11,8 km/h (2 Bft) S-SW 199 0 min 0,0 UV-I 0 W/m 6,6 C 4,1 C 19,3 km/h (3 Bft)
06.01.2023 18:39 7,9 C 7,2 C 92 % 1021,3 hPa 0,0 l/m 14,8 km/h (3 Bft) S-SW 196 0 min 0,0 UV-I 0 W/m 6,7 C 2,7 C 22,5 km/h (4 Bft)
06.01.2023 18:42 7,9 C 7,2 C 92 % 1021,3 hPa 0,0 l/m 13,7 km/h (3 Bft) S 181 0 min 0,0 UV-I 0 W/m 6,7 C 3,2 C 29,0 km/h (5 Bft)
06.01.2023 18:45 7,8 C 7,2 C 92 % 1021,3 hPa 0,0 l/m 14,5 km/h (3 Bft) S-SW 205 0 min 0,0 UV-I 0 W/m 6,6 C 2,7 C 25,7 km/h (4 Bft)
06.01.2023 18:48 7,8 C 7,2 C 92 % 1021,3 hPa 0,0 l/m 16,2 km/h (3 Bft) S 172 0 min 0,0 UV-I 0 W/m 6,6 C 1,9 C 25,7 km/h (4 Bft)
06.01.2023 18:51 7,8 C 7,2 C 92 % 1021,3 hPa 0,0 l/m 14,5 km/h (3 Bft) S 170 0 min 0,0 UV-I 0 W/m 6,6 C 2,7 C 24,1 km/h (4 Bft)
06.01.2023 18:54 7,8 C 7,2 C 92 % 1021,4 hPa 0,0 l/m 14,1 km/h (3 Bft) S-SW 198 0 min 0,0 UV-I 0 W/m 6,6 C 2,9 C 20,9 km/h (4 Bft)
06.01.2023 18:57 7,8 C 7,2 C 92 % 1021,3 hPa 0,0 l/m 15,2 km/h (3 Bft) S-SW 207 0 min 0,0 UV-I 0 W/m 6,6 C 2,4 C 25,7 km/h (4 Bft)
06.01.2023 19:00 7,8 C 7,2 C 92 % 1021,4 hPa 0,0 l/m 12,6 km/h (3 Bft) S-SW 202 0 min 0,0 UV-I 0 W/m 6,6 C 3,7 C 19,3 km/h (3 Bft)
06.01.2023 19:03 7,8 C 7,2 C 92 % 1021,4 hPa 0,0 l/m 11,7 km/h (2 Bft) S-SO 160 0 min 0,0 UV-I 0 W/m 6,6 C 4,1 C 24,1 km/h (4 Bft)
06.01.2023 19:06 7,8 C 7,2 C 92 % 1021,4 hPa 0,0 l/m 15,4 km/h (3 Bft) S 170 0 min 0,0 UV-I 0 W/m 6,6 C 2,3 C 25,7 km/h (4 Bft)
06.01.2023 19:09 7,8 C 7,2 C 92 % 1021,4 hPa 0,0 l/m 15,8 km/h (3 Bft) S 191 0 min 0,0 UV-I 0 W/m 6,6 C 2,1 C 22,5 km/h (4 Bft)
06.01.2023 19:12 7,9 C 7,2 C 92 % 1021,3 hPa 0,0 l/m 15,2 km/h (3 Bft) S-SW 202 0 min 0,0 UV-I 0 W/m 6,7 C 2,5 C 22,5 km/h (4 Bft)
06.01.2023 19:15 7,8 C 7,2 C 92 % 1021,4 hPa 0,0 l/m 14,8 km/h (3 Bft) S 188 0 min 0,0 UV-I 0 W/m 6,6 C 2,6 C 20,9 km/h (4 Bft)
06.01.2023 19:18 7,9 C 7,2 C 92 % 1021,4 hPa 0,0 l/m 14,5 km/h (3 Bft) S-SW 197 0 min 0,0 UV-I 0 W/m 6,7 C 2,8 C 20,9 km/h (4 Bft)
06.01.2023 19:21 7,8 C 7,2 C 92 % 1021,3 hPa 0,0 l/m 12,4 km/h (3 Bft) S-SW 203 0 min 0,0 UV-I 0 W/m 6,6 C 3,8 C 20,9 km/h (4 Bft)
06.01.2023 19:24 7,8 C 7,2 C 92 % 1021,3 hPa 0,2 l/m 12,8 km/h (3 Bft) S 190 0 min 0,0 UV-I 0 W/m 6,6 C 3,6 C 17,7 km/h (3 Bft)
06.01.2023 19:27 7,8 C 7,2 C 92 % 1021,3 hPa 0,0 l/m 10,1 km/h (2 Bft) S-SW 207 0 min 0,0 UV-I 0 W/m 6,6 C 5,1 C 16,1 km/h (3 Bft)
06.01.2023 19:30 7,8 C 7,2 C 92 % 1021,3 hPa 0,0 l/m 14,1 km/h (3 Bft) S-SO 164 0 min 0,0 UV-I 0 W/m 6,6 C 2,9 C 19,3 km/h (3 Bft)
06.01.2023 19:33 7,8 C 7,2 C 92 % 1021,2 hPa 0,0 l/m 16,7 km/h (3 Bft) S 181 0 min 0,0 UV-I 0 W/m 6,6 C 1,7 C 29,0 km/h (5 Bft)
06.01.2023 19:36 7,8 C 7,2 C 92 % 1021,3 hPa 0,0 l/m 14,3 km/h (3 Bft) S 182 0 min 0,0 UV-I 0 W/m 6,6 C 2,8 C 25,7 km/h (4 Bft)
06.01.2023 19:39 7,8 C 7,2 C 92 % 1021,3 hPa 0,0 l/m 12,8 km/h (3 Bft) S 188 0 min 0,0 UV-I 0 W/m 6,6 C 3,6 C 25,7 km/h (4 Bft)
06.01.2023 19:42 7,8 C 7,2 C 92 % 1021,2 hPa 0,0 l/m 15,8 km/h (3 Bft) S 184 0 min 0,0 UV-I 0 W/m 6,6 C 2,1 C 25,7 km/h (4 Bft)
06.01.2023 19:45 7,8 C 7,2 C 92 % 1021,2 hPa 0,0 l/m 15,5 km/h (3 Bft) S 188 0 min 0,0 UV-I 0 W/m 6,6 C 2,2 C 25,7 km/h (4 Bft)
06.01.2023 19:48 7,8 C 7,2 C 92 % 1021,2 hPa 0,0 l/m 15,0 km/h (3 Bft) S-SO 167 0 min 0,0 UV-I 0 W/m 6,6 C 2,5 C 27,4 km/h (4 Bft)
06.01.2023 19:51 7,8 C 7,2 C 92 % 1021,2 hPa 0,0 l/m 13,4 km/h (3 Bft) S 185 0 min 0,0 UV-I 0 W/m 6,6 C 3,2 C 20,9 km/h (4 Bft)
06.01.2023 19:54 7,8 C 7,2 C 92 % 1021,3 hPa 0,0 l/m 15,1 km/h (3 Bft) S 188 0 min 0,0 UV-I 0 W/m 6,6 C 2,4 C 24,1 km/h (4 Bft)
06.01.2023 19:57 7,8 C 7,2 C 92 % 1021,2 hPa 0,0 l/m 12,1 km/h (2 Bft) S 186 0 min 0,0 UV-I 0 W/m 6,6 C 3,9 C 24,1 km/h (4 Bft)
06.01.2023 20:00 7,8 C 7,2 C 92 % 1021,3 hPa 0,0 l/m 15,8 km/h (3 Bft) S-SW 194 0 min 0,0 UV-I 0 W/m 6,6 C 2,1 C 30,6 km/h (5 Bft)
06.01.2023 20:03 7,8 C 7,2 C 92 % 1021,3 hPa 0,0 l/m 14,3 km/h (3 Bft) S 190 0 min 0,0 UV-I 0 W/m 6,6 C 2,8 C 22,5 km/h (4 Bft)
06.01.2023 20:06 7,8 C 7,2 C 92 % 1021,4 hPa 0,0 l/m 15,6 km/h (3 Bft) S-SW 194 0 min 0,0 UV-I 0 W/m 6,6 C 2,2 C 24,1 km/h (4 Bft)
06.01.2023 20:09 7,8 C 7,2 C 92 % 1021,4 hPa 0,0 l/m 15,9 km/h (3 Bft) S 180 0 min 0,0 UV-I 0 W/m 6,6 C 2,1 C 25,7 km/h (4 Bft)
06.01.2023 20:12 7,8 C 7,2 C 92 % 1021,3 hPa 0,0 l/m 10,8 km/h (2 Bft) S 182 0 min 0,0 UV-I 0 W/m 6,6 C 4,7 C 17,7 km/h (3 Bft)
06.01.2023 20:15 7,8 C 7,2 C 92 % 1021,3 hPa 0,0 l/m 13,5 km/h (3 Bft) S 172 0 min 0,0 UV-I 0 W/m 6,6 C 3,2 C 20,9 km/h (4 Bft)
06.01.2023 20:18 7,8 C 7,2 C 92 % 1021,3 hPa 0,0 l/m 13,8 km/h (3 Bft) S-SW 198 0 min 0,0 UV-I 0 W/m 6,6 C 3,0 C 20,9 km/h (4 Bft)
06.01.2023 20:21 7,8 C 7,2 C 92 % 1021,3 hPa 0,0 l/m 13,9 km/h (3 Bft) S 184 0 min 0,0 UV-I 0 W/m 6,6 C 3,0 C 24,1 km/h (4 Bft)
06.01.2023 20:24 7,8 C 7,2 C 92 % 1021,3 hPa 0,0 l/m 10,2 km/h (2 Bft) S-SO 166 0 min 0,0 UV-I 0 W/m 6,6 C 5,0 C 20,9 km/h (4 Bft)
06.01.2023 20:27 7,8 C 7,2 C 92 % 1021,3 hPa 0,0 l/m 11,8 km/h (2 Bft) S-SW 211 0 min 0,0 UV-I 0 W/m 6,6 C 4,1 C 19,3 km/h (3 Bft)
06.01.2023 20:30 7,8 C 7,2 C 92 % 1021,2 hPa 0,0 l/m 11,9 km/h (2 Bft) S 178 0 min 0,0 UV-I 0 W/m 6,6 C 4,0 C 19,3 km/h (3 Bft)
06.01.2023 20:33 7,8 C 7,2 C 92 % 1021,4 hPa 0,0 l/m 9,0 km/h (2 Bft) S 174 0 min 0,0 UV-I 0 W/m 6,6 C 5,8 C 20,9 km/h (4 Bft)
06.01.2023 20:36 7,8 C 7,2 C 92 % 1021,4 hPa 0,0 l/m 11,8 km/h (2 Bft) SW 218 0 min 0,0 UV-I 0 W/m 6,6 C 4,1 C 19,3 km/h (3 Bft)
06.01.2023 20:39 7,8 C 7,2 C 92 % 1021,3 hPa 0,0 l/m 14,1 km/h (3 Bft) S 188 0 min 0,0 UV-I 0 W/m 6,6 C 2,9 C 20,9 km/h (4 Bft)
06.01.2023 20:42 7,8 C 7,2 C 92 % 1021,3 hPa 0,0 l/m 13,1 km/h (3 Bft) S-SO 161 0 min 0,0 UV-I 0 W/m 6,6 C 3,4 C 17,7 km/h (3 Bft)
06.01.2023 20:45 7,8 C 7,2 C 92 % 1021,2 hPa 0,0 l/m 13,6 km/h (3 Bft) S-SO 159 0 min 0,0 UV-I 0 W/m 6,6 C 3,1 C 30,6 km/h (5 Bft)
06.01.2023 20:48 7,8 C 7,2 C 92 % 1021,3 hPa 0,0 l/m 13,8 km/h (3 Bft) S 190 0 min 0,0 UV-I 0 W/m 6,6 C 3,0 C 19,3 km/h (3 Bft)
06.01.2023 20:51 7,8 C 7,2 C 92 % 1021,3 hPa 0,0 l/m 15,0 km/h (3 Bft) S-SO 165 0 min 0,0 UV-I 0 W/m 6,6 C 2,5 C 20,9 km/h (4 Bft)
06.01.2023 20:54 7,8 C 7,2 C 92 % 1021,2 hPa 0,0 l/m 11,4 km/h (2 Bft) S 171 0 min 0,0 UV-I 0 W/m 6,6 C 4,3 C 20,9 km/h (4 Bft)
06.01.2023 20:57 7,8 C 7,2 C 92 % 1021,3 hPa 0,0 l/m 18,4 km/h (3 Bft) S 169 0 min 0,0 UV-I 0 W/m 6,6 C 1,0 C 25,7 km/h (4 Bft)
06.01.2023 21:00 7,8 C 7,2 C 92 % 1021,2 hPa 0,0 l/m 14,5 km/h (3 Bft) S-SO 165 0 min 0,0 UV-I 0 W/m 6,6 C 2,7 C 25,7 km/h (4 Bft)
06.01.2023 21:03 7,8 C 7,2 C 92 % 1021,2 hPa 0,0 l/m 14,8 km/h (3 Bft) S 180 0 min 0,0 UV-I 0 W/m 6,6 C 2,6 C 22,5 km/h (4 Bft)
06.01.2023 21:06 7,8 C 7,2 C 92 % 1021,2 hPa 0,0 l/m 15,0 km/h (3 Bft) S-SO 166 0 min 0,0 UV-I 0 W/m 6,6 C 2,5 C 24,1 km/h (4 Bft)
06.01.2023 21:09 7,8 C 7,2 C 92 % 1021,2 hPa 0,0 l/m 11,5 km/h (2 Bft) S 176 0 min 0,0 UV-I 0 W/m 6,6 C 4,3 C 22,5 km/h (4 Bft)
06.01.2023 21:12 7,9 C 7,2 C 92 % 1021,2 hPa 0,0 l/m 12,7 km/h (3 Bft) S 188 0 min 0,0 UV-I 0 W/m 6,7 C 3,7 C 17,7 km/h (3 Bft)
06.01.2023 21:15 7,9 C 7,2 C 92 % 1021,2 hPa 0,0 l/m 15,3 km/h (3 Bft) S 181 0 min 0,0 UV-I 0 W/m 6,7 C 2,5 C 29,0 km/h (5 Bft)
06.01.2023 21:18 7,9 C 7,2 C 92 % 1021,1 hPa 0,0 l/m 12,1 km/h (2 Bft) S 188 0 min 0,0 UV-I 0 W/m 6,7 C 4,0 C 20,9 km/h (4 Bft)
06.01.2023 21:21 7,9 C 7,2 C 92 % 1021,2 hPa 0,0 l/m 11,6 km/h (2 Bft) S 173 0 min 0,0 UV-I 0 W/m 6,7 C 4,3 C 22,5 km/h (4 Bft)
06.01.2023 21:24 7,9 C 7,2 C 92 % 1021,2 hPa 0,0 l/m 13,8 km/h (3 Bft) S 183 0 min 0,0 UV-I 0 W/m 6,7 C 3,2 C 19,3 km/h (3 Bft)
06.01.2023 21:27 7,9 C 7,2 C 92 % 1021,2 hPa 0,0 l/m 13,1 km/h (3 Bft) S 184 0 min 0,0 UV-I 0 W/m 6,7 C 3,5 C 19,3 km/h (3 Bft)
06.01.2023 21:30 7,9 C 7,2 C 92 % 1021,1 hPa 0,0 l/m 13,1 km/h (3 Bft) S 171 0 min 0,0 UV-I 0 W/m 6,7 C 3,5 C 24,1 km/h (4 Bft)
06.01.2023 21:33 7,9 C 7,2 C 92 % 1021,0 hPa 0,0 l/m 11,9 km/h (2 Bft) S-SO 167 0 min 0,0 UV-I 0 W/m 6,7 C 4,2 C 17,7 km/h (3 Bft)
06.01.2023 21:36 7,9 C 7,2 C 92 % 1021,1 hPa 0,0 l/m 17,5 km/h (3 Bft) S-SW 197 0 min 0,0 UV-I 0 W/m 6,7 C 1,5 C 30,6 km/h (5 Bft)
06.01.2023 21:39 7,9 C 7,2 C 92 % 1021,2 hPa 0,0 l/m 13,1 km/h (3 Bft) S 176 0 min 0,0 UV-I 0 W/m 6,7 C 3,5 C 22,5 km/h (4 Bft)
06.01.2023 21:42 7,9 C 7,2 C 92 % 1021,2 hPa 0,0 l/m 14,1 km/h (3 Bft) S-SW 204 0 min 0,0 UV-I 0 W/m 6,7 C 3,0 C 25,7 km/h (4 Bft)
06.01.2023 21:45 7,9 C 7,2 C 92 % 1021,1 hPa 0,0 l/m 14,7 km/h (3 Bft) S-SW 199 0 min 0,0 UV-I 0 W/m 6,7 C 2,7 C 27,4 km/h (4 Bft)
06.01.2023 21:48 7,9 C 7,2 C 92 % 1021,2 hPa 0,0 l/m 16,0 km/h (3 Bft) S-SW 192 0 min 0,0 UV-I 0 W/m 6,7 C 2,1 C 27,4 km/h (4 Bft)
06.01.2023 21:51 7,9 C 7,2 C 92 % 1021,2 hPa 0,0 l/m 15,3 km/h (3 Bft) S 191 0 min 0,0 UV-I 0 W/m 6,7 C 2,5 C 25,7 km/h (4 Bft)
06.01.2023 21:54 7,9 C 7,2 C 92 % 1021,2 hPa 0,0 l/m 17,2 km/h (3 Bft) S 177 0 min 0,0 UV-I 0 W/m 6,7 C 1,6 C 32,2 km/h (5 Bft)
06.01.2023 21:57 7,9 C 7,2 C 92 % 1021,1 hPa 0,0 l/m 17,1 km/h (3 Bft) S 185 0 min 0,0 UV-I 0 W/m 6,7 C 1,7 C 29,0 km/h (5 Bft)
06.01.2023 22:00 7,9 C 7,2 C 92 % 1021,1 hPa 0,0 l/m 12,9 km/h (3 Bft) S-SO 159 0 min 0,0 UV-I 0 W/m 6,7 C 3,6 C 22,5 km/h (4 Bft)
06.01.2023 22:03 7,9 C 7,2 C 92 % 1021,1 hPa 0,0 l/m 10,9 km/h (2 Bft) S-SO 165 0 min 0,0 UV-I 0 W/m 6,7 C 4,7 C 17,7 km/h (3 Bft)
06.01.2023 22:06 7,9 C 7,2 C 92 % 1021,1 hPa 0,0 l/m 14,8 km/h (3 Bft) S-SW 193 0 min 0,0 UV-I 0 W/m 6,7 C 2,7 C 24,1 km/h (4 Bft)
06.01.2023 22:09 7,9 C 7,2 C 92 % 1021,1 hPa 0,0 l/m 14,2 km/h (3 Bft) S-SW 198 0 min 0,0 UV-I 0 W/m 6,7 C 3,0 C 25,7 km/h (4 Bft)
06.01.2023 22:12 7,9 C 7,2 C 92 % 1021,1 hPa 0,0 l/m 15,6 km/h (3 Bft) S-SW 192 0 min 0,0 UV-I 0 W/m 6,7 C 2,3 C 32,2 km/h (5 Bft)
06.01.2023 22:15 7,9 C 7,2 C 92 % 1021,1 hPa 0,0 l/m 16,2 km/h (3 Bft) S 169 0 min 0,0 UV-I 0 W/m 6,7 C 2,1 C 27,4 km/h (4 Bft)
06.01.2023 22:18 7,9 C 7,2 C 92 % 1021,0 hPa 0,0 l/m 16,3 km/h (3 Bft) S 189 0 min 0,0 UV-I 0 W/m 6,7 C 2,0 C 24,1 km/h (4 Bft)
06.01.2023 22:21 7,9 C 7,2 C 92 % 1021,0 hPa 0,0 l/m 15,4 km/h (3 Bft) S-SW 211 0 min 0,0 UV-I 0 W/m 6,7 C 2,4 C 30,6 km/h (5 Bft)
06.01.2023 22:24 7,9 C 7,2 C 92 % 1021,0 hPa 0,0 l/m 12,4 km/h (3 Bft) S-SW 204 0 min 0,0 UV-I 0 W/m 6,7 C 3,9 C 22,5 km/h (4 Bft)
06.01.2023 22:27 7,9 C 7,2 C 92 % 1021,0 hPa 0,0 l/m 16,3 km/h (3 Bft) S 184 0 min 0,0 UV-I 0 W/m 6,7 C 2,0 C 27,4 km/h (4 Bft)
06.01.2023 22:30 7,9 C 7,2 C 92 % 1021,1 hPa 0,0 l/m 14,8 km/h (3 Bft) S 169 0 min 0,0 UV-I 0 W/m 6,7 C 2,7 C 22,5 km/h (4 Bft)
06.01.2023 22:33 7,9 C 7,2 C 92 % 1021,0 hPa 0,0 l/m 15,4 km/h (3 Bft) S 178 0 min 0,0 UV-I 0 W/m 6,7 C 2,4 C 27,4 km/h (4 Bft)
06.01.2023 22:36 7,9 C 7,2 C 92 % 1021,0 hPa 0,0 l/m 12,7 km/h (3 Bft) S-SW 194 0 min 0,0 UV-I 0 W/m 6,7 C 3,7 C 24,1 km/h (4 Bft)
06.01.2023 22:39 7,9 C 7,2 C 92 % 1020,9 hPa 0,0 l/m 17,1 km/h (3 Bft) S 184 0 min 0,0 UV-I 0 W/m 6,7 C 1,7 C 27,4 km/h (4 Bft)
06.01.2023 22:42 7,9 C 7,2 C 92 % 1021,0 hPa 0,0 l/m 15,5 km/h (3 Bft) S 186 0 min 0,0 UV-I 0 W/m 6,7 C 2,4 C 24,1 km/h (4 Bft)
06.01.2023 22:45 7,9 C 7,2 C 92 % 1021,1 hPa 0,0 l/m 14,2 km/h (3 Bft) S 188 0 min 0,0 UV-I 0 W/m 6,7 C 3,0 C 20,9 km/h (4 Bft)
06.01.2023 22:48 7,9 C 7,2 C 92 % 1021,1 hPa 0,0 l/m 12,5 km/h (3 Bft) S 184 0 min 0,0 UV-I 0 W/m 6,7 C 3,8 C 20,9 km/h (4 Bft)
06.01.2023 22:51 7,9 C 7,2 C 92 % 1021,1 hPa 0,0 l/m 14,3 km/h (3 Bft) S-SW 192 0 min 0,0 UV-I 0 W/m 6,7 C 2,9 C 25,7 km/h (4 Bft)
06.01.2023 22:54 7,9 C 7,2 C 92 % 1021,0 hPa 0,0 l/m 13,9 km/h (3 Bft) S 190 0 min 0,0 UV-I 0 W/m 6,7 C 3,1 C 27,4 km/h (4 Bft)
06.01.2023 22:57 7,9 C 7,2 C 92 % 1021,0 hPa 0,0 l/m 15,5 km/h (3 Bft) S-SW 205 0 min 0,0 UV-I 0 W/m 6,7 C 2,4 C 22,5 km/h (4 Bft)
06.01.2023 23:00 7,9 C 7,2 C 92 % 1021,0 hPa 0,0 l/m 11,8 km/h (2 Bft) S 179 0 min 0,0 UV-I 0 W/m 6,7 C 4,2 C 19,3 km/h (3 Bft)
06.01.2023 23:03 7,9 C 7,2 C 92 % 1021,0 hPa 0,0 l/m 12,9 km/h (3 Bft) S-SW 195 0 min 0,0 UV-I 0 W/m 6,7 C 3,6 C 22,5 km/h (4 Bft)
06.01.2023 23:06 7,9 C 7,2 C 92 % 1020,9 hPa 0,0 l/m 11,9 km/h (2 Bft) S-SO 163 0 min 0,0 UV-I 0 W/m 6,7 C 4,2 C 20,9 km/h (4 Bft)
06.01.2023 23:09 7,9 C 7,2 C 92 % 1021,0 hPa 0,0 l/m 10,4 km/h (2 Bft) S 191 0 min 0,0 UV-I 0 W/m 6,7 C 5,0 C 12,9 km/h (3 Bft)
06.01.2023 23:12 7,9 C 7,2 C 92 % 1020,9 hPa 0,0 l/m 13,6 km/h (3 Bft) S 190 0 min 0,0 UV-I 0 W/m 6,7 C 3,3 C 24,1 km/h (4 Bft)
06.01.2023 23:15 7,9 C 7,2 C 92 % 1021,0 hPa 0,0 l/m 13,3 km/h (3 Bft) S 181 0 min 0,0 UV-I 0 W/m 6,7 C 3,4 C 20,9 km/h (4 Bft)
06.01.2023 23:18 7,9 C 7,2 C 92 % 1021,0 hPa 0,0 l/m 12,0 km/h (2 Bft) S-SO 161 0 min 0,0 UV-I 0 W/m 6,7 C 4,1 C 17,7 km/h (3 Bft)
06.01.2023 23:21 7,9 C 7,2 C 92 % 1020,9 hPa 0,0 l/m 12,8 km/h (3 Bft) S 188 0 min 0,0 UV-I 0 W/m 6,7 C 3,7 C 24,1 km/h (4 Bft)
06.01.2023 23:24 7,9 C 7,2 C 92 % 1021,0 hPa 0,0 l/m 11,5 km/h (2 Bft) S-SO 162 0 min 0,0 UV-I 0 W/m 6,7 C 4,4 C 19,3 km/h (3 Bft)
06.01.2023 23:27 7,9 C 7,2 C 92 % 1021,0 hPa 0,0 l/m 12,0 km/h (2 Bft) S-SW 196 0 min 0,0 UV-I 0 W/m 6,7 C 4,1 C 22,5 km/h (4 Bft)
06.01.2023 23:30 7,9 C 7,2 C 92 % 1021,1 hPa 0,0 l/m 13,4 km/h (3 Bft) S-SW 194 0 min 0,0 UV-I 0 W/m 6,7 C 3,4 C 22,5 km/h (4 Bft)
06.01.2023 23:33 7,9 C 7,2 C 92 % 1021,2 hPa 0,0 l/m 14,8 km/h (3 Bft) S 188 0 min 0,0 UV-I 0 W/m 6,7 C 2,7 C 24,1 km/h (4 Bft)
06.01.2023 23:36 7,9 C 7,2 C 92 % 1021,1 hPa 0,0 l/m 11,8 km/h (2 Bft) S-SW 193 0 min 0,0 UV-I 0 W/m 6,7 C 4,2 C 19,3 km/h (3 Bft)
06.01.2023 23:39 7,9 C 7,2 C 92 % 1021,2 hPa 0,0 l/m 14,9 km/h (3 Bft) SW 217 0 min 0,0 UV-I 0 W/m 6,7 C 2,6 C 24,1 km/h (4 Bft)
06.01.2023 23:42 7,9 C 7,2 C 92 % 1021,1 hPa 0,0 l/m 12,3 km/h (3 Bft) SW 220 0 min 0,0 UV-I 0 W/m 6,7 C 3,9 C 19,3 km/h (3 Bft)
06.01.2023 23:45 7,9 C 7,2 C 92 % 1021,1 hPa 0,0 l/m 12,0 km/h (2 Bft) S-SW 203 0 min 0,0 UV-I 0 W/m 6,7 C 4,1 C 20,9 km/h (4 Bft)
06.01.2023 23:48 7,9 C 7,2 C 92 % 1021,0 hPa 0,0 l/m 12,8 km/h (3 Bft) S 189 0 min 0,0 UV-I 0 W/m 6,7 C 3,7 C 19,3 km/h (3 Bft)
06.01.2023 23:51 7,9 C 7,2 C 92 % 1021,0 hPa 0,0 l/m 13,5 km/h (3 Bft) S 173 0 min 0,0 UV-I 0 W/m 6,7 C 3,3 C 20,9 km/h (4 Bft)
06.01.2023 23:54 7,9 C 7,2 C 92 % 1021,1 hPa 0,0 l/m 11,8 km/h (2 Bft) S 178 0 min 0,0 UV-I 0 W/m 6,7 C 4,2 C 17,7 km/h (3 Bft)
06.01.2023 23:57 7,9 C 7,2 C 92 % 1021,1 hPa 0,0 l/m 11,3 km/h (2 Bft) S 175 0 min 0,0 UV-I 0 W/m 6,7 C 4,5 C 19,3 km/h (3 Bft)
06.01.2023 23:58 7,9 C 7,2 C 92 % 1021,2 hPa 0,0 l/m 11,3 km/h (2 Bft) S-SW 202 0 min 0,0 UV-I 0 W/m 6,7 C 4,5 C 16,1 km/h (3 Bft)
06.01.2023 23:59 7,9 C 7,2 C 92 % 1021,1 hPa 0,0 l/m 11,3 km/h (2 Bft) S-SW 202 0 min 0,0 UV-I 0 W/m 6,7 C 4,5 C 17,7 km/h (3 Bft)
_ Min-Zeit 04:58 02:20 06:00 07:02 - 01:25 - - - - - 06:09 04:17 00:27
Minimum _ 6,7 C 6,1 C 89 % 1020,4 hPa - 4,8 km/h (1 Bft) - - - - - 5,0 C -2,6 C 9,7 km/h (2 Bft)
_ Max-Zeit 00:00 12:54 00:00 00:01 01:41 03:04 - - 00:00 00:00 11:45 00:00 00:27 10:24
Maximum _ 8,2 C 7,8 C 93 % 1022,6 hPa 0,2 l/m 25,7 km/h
S (4 Bft)
- - 0 min 0,0 UV-I 99 W/m 7,0 C 7,6 C 45,1 km/h
S (6 Bft)
Durchschnitt _ 7,5 C 6,8 C 92 % 1021,2 hPa #1,4 l/m 15,7 km/h (3 Bft) S-SW - #0 min. 0,0 UV-I 37 W/m 6,2 C 1,8 C 24,7 km/h (4 Bft)